Données météo: Actuelle lundi, 04/05/2026 12:12
Date Horaire Temp. Ext. Temp. +10cm Temp. -10cm Temp. -30cm Temp. -50cm Hum. Ext. Hum.feuil. Hum.feuil. 2 Hum. -10cm Hum. -30cm Hum. -50cm Baro. Pluie Vent Direction Direction Ensoleilleme Ev.Tr. UV Solaire P. de rosée Temp au vent Rafales
04/05/2026 12:12 16,7 °C 17,2 °C 14,4 °C 13,3 °C 12,8 °C 82 % 0 lf 0 lf 7 cb 60 cb 200 cb 1013,4 hPa 0,0 mm 1,8 km/h (1 Bft) O-NO 299 ° 0 min 0,000 mm 2,3 UV-I 309 W/m² 13,6 °C 16,7 °C 4,8 km/h (1 Bft)
04/05/2026 12:10 16,9 °C 17,2 °C 14,4 °C 13,3 °C 12,8 °C 82 % 0 lf 0 lf 7 cb 60 cb 200 cb 1013,4 hPa 0,0 mm 4,3 km/h (1 Bft) O-NO 299 ° 0 min 0,000 mm 2,4 UV-I 304 W/m² 13,8 °C 16,9 °C 4,8 km/h (1 Bft)
04/05/2026 12:08 17,3 °C 17,2 °C 14,4 °C 13,3 °C 12,8 °C 82 % 0 lf 0 lf 7 cb 60 cb 200 cb 1013,4 hPa 0,0 mm 2,7 km/h (1 Bft) O-NO 299 ° 0 min 0,000 mm 2,4 UV-I 295 W/m² 14,2 °C 17,3 °C 4,8 km/h (1 Bft)
04/05/2026 12:06 17,7 °C 17,2 °C 14,4 °C 13,3 °C 12,8 °C 82 % 0 lf 0 lf 7 cb 60 cb 200 cb 1013,4 hPa 0,0 mm 3,1 km/h (1 Bft) O-NO 299 ° 0 min 0,000 mm 2,6 UV-I 332 W/m² 14,6 °C 17,7 °C 4,8 km/h (1 Bft)
04/05/2026 12:04 17,7 °C 17,2 °C 14,4 °C 13,3 °C 12,8 °C 80 % 0 lf 0 lf 7 cb 60 cb 200 cb 1013,4 hPa 0,0 mm 0,5 km/h (0 Bft) O-NO 299 ° 2 min 0,000 mm 3,1 UV-I 425 W/m² 14,2 °C 17,7 °C 1,6 km/h (1 Bft)
04/05/2026 12:02 17,7 °C 17,2 °C 14,4 °C 13,3 °C 12,8 °C 82 % 0 lf 0 lf 7 cb 60 cb 200 cb 1013,4 hPa 0,0 mm 0,3 km/h (0 Bft) O-NO 299 ° 2 min 0,000 mm 4,0 UV-I 759 W/m² 14,6 °C 17,7 °C 1,6 km/h (1 Bft)
04/05/2026 12:00 17,6 °C 16,7 °C 14,4 °C 13,3 °C 12,8 °C 82 % 0 lf 0 lf 7 cb 60 cb 200 cb 1013,5 hPa 0,0 mm 0,4 km/h (0 Bft) O-NO 299 ° 2 min 0,331 mm 4,2 UV-I 821 W/m² 14,5 °C 17,6 °C 3,2 km/h (1 Bft)
04/05/2026 11:58 17,7 °C 17,2 °C 14,4 °C 13,3 °C 12,8 °C 83 % 0 lf 0 lf 7 cb 59 cb 200 cb 1013,5 hPa 0,0 mm 0,3 km/h (0 Bft) O-NO 299 ° 2 min 0,000 mm 4,0 UV-I 770 W/m² 14,8 °C 17,7 °C 1,6 km/h (1 Bft)
04/05/2026 11:56 17,6 °C 16,7 °C 14,4 °C 13,3 °C 12,8 °C 83 % 0 lf 0 lf 7 cb 59 cb 200 cb 1013,4 hPa 0,0 mm 1,2 km/h (1 Bft) O-NO 299 ° 2 min 0,000 mm 3,5 UV-I 626 W/m² 14,7 °C 17,6 °C 3,2 km/h (1 Bft)
04/05/2026 11:54 17,4 °C 16,7 °C 14,4 °C 13,3 °C 12,8 °C 81 % 0 lf 0 lf 7 cb 59 cb 200 cb 1013,4 hPa 0,0 mm 0,8 km/h (0 Bft) O-NO 299 ° 2 min 0,000 mm 4,0 UV-I 780 W/m² 14,1 °C 17,4 °C 3,2 km/h (1 Bft)
04/05/2026 11:52 17,4 °C 16,7 °C 14,4 °C 13,3 °C 12,8 °C 82 % 0 lf 0 lf 7 cb 59 cb 200 cb 1013,4 hPa 0,0 mm 0,9 km/h (0 Bft) O-NO 299 ° 2 min 0,000 mm 4,2 UV-I 835 W/m² 14,3 °C 17,4 °C 3,2 km/h (1 Bft)
04/05/2026 11:50 17,3 °C 16,7 °C 14,4 °C 13,3 °C 12,8 °C 84 % 0 lf 0 lf 7 cb 59 cb 200 cb 1013,5 hPa 0,0 mm 1,6 km/h (1 Bft) O-NO 299 ° 2 min 0,000 mm 4,1 UV-I 816 W/m² 14,6 °C 17,3 °C 3,2 km/h (1 Bft)
04/05/2026 11:48 16,9 °C 16,1 °C 14,4 °C 13,3 °C 12,8 °C 82 % 0 lf 0 lf 7 cb 59 cb 200 cb 1013,5 hPa 0,0 mm 0,4 km/h (0 Bft) O-NO 299 ° 2 min 0,000 mm 4,0 UV-I 800 W/m² 13,8 °C 16,9 °C 3,2 km/h (1 Bft)
04/05/2026 11:46 17,1 °C 16,7 °C 14,4 °C 13,3 °C 12,8 °C 84 % 0 lf 0 lf 7 cb 59 cb 200 cb 1013,5 hPa 0,0 mm 1,7 km/h (1 Bft) O-NO 299 ° 2 min 0,000 mm 3,9 UV-I 789 W/m² 14,4 °C 17,1 °C 4,8 km/h (1 Bft)
04/05/2026 11:44 17,1 °C 16,7 °C 14,4 °C 13,3 °C 12,8 °C 84 % 0 lf 0 lf 7 cb 59 cb 200 cb 1013,4 hPa 0,0 mm 1,4 km/h (1 Bft) O-NO 299 ° 2 min 0,000 mm 3,3 UV-I 636 W/m² 14,4 °C 17,1 °C 4,8 km/h (1 Bft)
04/05/2026 11:42 17,1 °C 16,7 °C 14,4 °C 13,3 °C 12,8 °C 83 % 0 lf 0 lf 7 cb 59 cb 200 cb 1013,4 hPa 0,0 mm 1,4 km/h (1 Bft) O-NO 298 ° 2 min 0,000 mm 3,6 UV-I 668 W/m² 14,2 °C 17,1 °C 3,2 km/h (1 Bft)
04/05/2026 11:40 17,3 °C 16,7 °C 14,4 °C 13,3 °C 12,8 °C 86 % 0 lf 0 lf 7 cb 59 cb 200 cb 1013,5 hPa 0,0 mm 2,2 km/h (1 Bft) O-NO 298 ° 2 min 0,000 mm 3,6 UV-I 747 W/m² 14,9 °C 17,3 °C 4,8 km/h (1 Bft)
04/05/2026 11:38 17,1 °C 16,1 °C 14,4 °C 13,3 °C 12,8 °C 86 % 0 lf 0 lf 7 cb 59 cb 200 cb 1013,4 hPa 0,0 mm 0,7 km/h (0 Bft) O-NO 298 ° 2 min 0,000 mm 3,7 UV-I 733 W/m² 14,7 °C 17,1 °C 4,8 km/h (1 Bft)
04/05/2026 11:36 16,8 °C 16,1 °C 14,4 °C 13,3 °C 12,8 °C 85 % 0 lf 0 lf 7 cb 59 cb 200 cb 1013,4 hPa 0,0 mm 0,3 km/h (0 Bft) O-NO 298 ° 2 min 0,000 mm 3,6 UV-I 719 W/m² 14,3 °C 16,8 °C 1,6 km/h (1 Bft)
04/05/2026 11:34 16,8 °C 16,1 °C 14,4 °C 13,3 °C 12,8 °C 86 % 0 lf 0 lf 7 cb 59 cb 200 cb 1013,4 hPa 0,0 mm 0,6 km/h (0 Bft) O-NO 298 ° 2 min 0,000 mm 3,6 UV-I 710 W/m² 14,4 °C 16,8 °C 3,2 km/h (1 Bft)
04/05/2026 11:32 16,7 °C 16,1 °C 14,4 °C 13,3 °C 12,8 °C 84 % 0 lf 0 lf 7 cb 59 cb 200 cb 1013,4 hPa 0,0 mm 1,2 km/h (1 Bft) O-NO 298 ° 2 min 0,000 mm 3,4 UV-I 657 W/m² 14,0 °C 16,7 °C 3,2 km/h (1 Bft)
04/05/2026 11:30 16,8 °C 16,1 °C 14,4 °C 13,3 °C 12,8 °C 86 % 0 lf 0 lf 7 cb 59 cb 200 cb 1013,4 hPa 0,0 mm 3,0 km/h (1 Bft) O-NO 298 ° 2 min 0,000 mm 3,3 UV-I 615 W/m² 14,4 °C 16,8 °C 4,8 km/h (1 Bft)
04/05/2026 11:28 16,7 °C 16,1 °C 14,4 °C 13,3 °C 12,8 °C 86 % 0 lf 1 lf 7 cb 59 cb 200 cb 1013,4 hPa 0,0 mm 1,7 km/h (1 Bft) O-NO 298 ° 2 min 0,000 mm 3,1 UV-I 541 W/m² 14,3 °C 16,7 °C 3,2 km/h (1 Bft)
04/05/2026 11:26 16,6 °C 15,6 °C 14,4 °C 13,3 °C 12,8 °C 86 % 0 lf 1 lf 7 cb 59 cb 200 cb 1013,4 hPa 0,0 mm 1,2 km/h (1 Bft) O-NO 298 ° 2 min 0,000 mm 3,0 UV-I 504 W/m² 14,2 °C 16,6 °C 3,2 km/h (1 Bft)
04/05/2026 11:24 16,3 °C 15,0 °C 14,4 °C 13,3 °C 12,8 °C 85 % 0 lf 2 lf 7 cb 59 cb 200 cb 1013,3 hPa 0,0 mm 0,8 km/h (0 Bft) O-NO 298 ° 2 min 0,000 mm 3,1 UV-I 585 W/m² 13,8 °C 16,3 °C 1,6 km/h (1 Bft)
04/05/2026 11:22 16,3 °C 15,0 °C 14,4 °C 13,3 °C 12,8 °C 84 % 0 lf 2 lf 7 cb 59 cb 200 cb 1013,3 hPa 0,0 mm 0,4 km/h (0 Bft) O-NO 298 ° 2 min 0,000 mm 3,1 UV-I 566 W/m² 13,6 °C 16,3 °C 1,6 km/h (1 Bft)
04/05/2026 11:20 16,1 °C 15,0 °C 14,4 °C 13,3 °C 12,8 °C 83 % 0 lf 3 lf 7 cb 59 cb 200 cb 1013,4 hPa 0,0 mm 0,0 km/h (0 Bft) O-NO 298 ° 0 min 0,000 mm 2,9 UV-I 343 W/m² 13,2 °C 16,1 °C 1,6 km/h (1 Bft)
04/05/2026 11:18 16,1 °C 15,0 °C 14,4 °C 13,3 °C 12,8 °C 84 % 0 lf 3 lf 7 cb 59 cb 200 cb 1013,3 hPa 0,0 mm 0,2 km/h (0 Bft) O-NO 298 ° 0 min 0,000 mm 2,4 UV-I 330 W/m² 13,4 °C 16,1 °C 1,6 km/h (1 Bft)
04/05/2026 11:16 15,8 °C 15,0 °C 14,4 °C 13,3 °C 12,8 °C 84 % 0 lf 4 lf 7 cb 59 cb 200 cb 1013,3 hPa 0,0 mm 0,5 km/h (0 Bft) O-NO 298 ° 2 min 0,000 mm 2,8 UV-I 571 W/m² 13,1 °C 15,8 °C 3,2 km/h (1 Bft)
04/05/2026 11:14 15,8 °C 15,0 °C 14,4 °C 13,3 °C 12,8 °C 84 % 0 lf 4 lf 7 cb 59 cb 200 cb 1013,4 hPa 0,0 mm 1,6 km/h (1 Bft) O-NO 298 ° 2 min 0,000 mm 3,0 UV-I 559 W/m² 13,1 °C 15,8 °C 4,8 km/h (1 Bft)
04/05/2026 11:12 15,8 °C 15,0 °C 14,4 °C 13,3 °C 12,8 °C 85 % 0 lf 6 lf 7 cb 59 cb 200 cb 1013,3 hPa 0,0 mm 0,9 km/h (0 Bft) O-NO 298 ° 0 min 0,000 mm 2,5 UV-I 373 W/m² 13,3 °C 15,8 °C 3,2 km/h (1 Bft)
04/05/2026 11:10 15,7 °C 15,0 °C 14,4 °C 13,3 °C 12,8 °C 87 % 0 lf 9 lf 7 cb 59 cb 200 cb 1013,4 hPa 0,0 mm 0,8 km/h (0 Bft) O-NO 298 ° 2 min 0,000 mm 2,7 UV-I 501 W/m² 13,5 °C 15,7 °C 3,2 km/h (1 Bft)
04/05/2026 11:08 15,6 °C 15,0 °C 14,4 °C 13,3 °C 12,8 °C 86 % 0 lf 9 lf 7 cb 58 cb 200 cb 1013,4 hPa 0,0 mm 0,0 km/h (0 Bft) O-NO 298 ° 2 min 0,000 mm 2,9 UV-I 483 W/m² 13,3 °C 15,6 °C 0,0 km/h (0 Bft)
04/05/2026 11:06 15,4 °C 14,4 °C 14,4 °C 13,3 °C 12,8 °C 85 % 0 lf 10 lf 7 cb 58 cb 200 cb 1013,4 hPa 0,0 mm 0,7 km/h (0 Bft) O-NO 298 ° 2 min 0,000 mm 2,6 UV-I 432 W/m² 12,9 °C 15,4 °C 3,2 km/h (1 Bft)
04/05/2026 11:04 15,6 °C 14,4 °C 14,4 °C 13,3 °C 12,8 °C 86 % 0 lf 10 lf 7 cb 58 cb 200 cb 1013,4 hPa 0,0 mm 0,4 km/h (0 Bft) O-NO 298 ° 0 min 0,000 mm 2,3 UV-I 297 W/m² 13,3 °C 15,6 °C 3,2 km/h (1 Bft)
04/05/2026 11:02 15,6 °C 14,4 °C 14,4 °C 13,3 °C 12,8 °C 86 % 0 lf 11 lf 7 cb 58 cb 200 cb 1013,4 hPa 0,0 mm 0,7 km/h (0 Bft) O-NO 298 ° 0 min 0,000 mm 2,1 UV-I 285 W/m² 13,3 °C 15,6 °C 3,2 km/h (1 Bft)
04/05/2026 11:00 15,6 °C 14,4 °C 14,4 °C 13,3 °C 12,8 °C 86 % 0 lf 11 lf 7 cb 59 cb 200 cb 1013,4 hPa 0,0 mm 0,4 km/h (0 Bft) O-NO 298 ° 0 min 0,203 mm 2,2 UV-I 295 W/m² 13,3 °C 15,6 °C 1,6 km/h (1 Bft)
04/05/2026 10:58 15,4 °C 14,4 °C 14,4 °C 13,3 °C 12,8 °C 84 % 0 lf 11 lf 7 cb 59 cb 200 cb 1013,5 hPa 0,0 mm 0,3 km/h (0 Bft) O-NO 298 ° 0 min 0,000 mm 2,1 UV-I 295 W/m² 12,7 °C 15,4 °C 3,2 km/h (1 Bft)
04/05/2026 10:56 15,5 °C 14,4 °C 14,4 °C 13,3 °C 12,8 °C 84 % 0 lf 12 lf 7 cb 59 cb 200 cb 1013,4 hPa 0,0 mm 0,3 km/h (0 Bft) O-NO 298 ° 0 min 0,000 mm 2,1 UV-I 318 W/m² 12,8 °C 15,5 °C 1,6 km/h (1 Bft)
04/05/2026 10:54 15,6 °C 14,4 °C 14,4 °C 13,3 °C 12,8 °C 85 % 0 lf 13 lf 7 cb 59 cb 200 cb 1013,4 hPa 0,0 mm 2,6 km/h (1 Bft) O-NO 298 ° 0 min 0,000 mm 2,1 UV-I 290 W/m² 13,1 °C 15,6 °C 4,8 km/h (1 Bft)
04/05/2026 10:52 15,7 °C 14,4 °C 14,4 °C 13,3 °C 12,8 °C 86 % 0 lf 13 lf 7 cb 58 cb 200 cb 1013,4 hPa 0,0 mm 0,9 km/h (0 Bft) O-NO 298 ° 0 min 0,000 mm 2,1 UV-I 297 W/m² 13,4 °C 15,7 °C 3,2 km/h (1 Bft)
04/05/2026 10:50 15,6 °C 14,4 °C 14,4 °C 13,3 °C 12,8 °C 86 % 1 lf 14 lf 7 cb 58 cb 200 cb 1013,4 hPa 0,0 mm 0,0 km/h (0 Bft) O-NO 298 ° 2 min 0,000 mm 2,2 UV-I 369 W/m² 13,3 °C 15,6 °C 0,0 km/h (0 Bft)
04/05/2026 10:48 15,4 °C 14,4 °C 14,4 °C 13,3 °C 12,8 °C 86 % 1 lf 14 lf 7 cb 58 cb 200 cb 1013,4 hPa 0,0 mm 0,0 km/h (0 Bft) O-NO 298 ° 2 min 0,000 mm 2,1 UV-I 376 W/m² 13,1 °C 15,4 °C 1,6 km/h (1 Bft)
04/05/2026 10:46 15,4 °C 13,9 °C 14,4 °C 13,3 °C 12,8 °C 85 % 2 lf 14 lf 7 cb 58 cb 200 cb 1013,4 hPa 0,0 mm 0,0 km/h (0 Bft) O-NO 298 ° 2 min 0,000 mm 2,1 UV-I 381 W/m² 12,9 °C 15,4 °C 0,0 km/h (0 Bft)
04/05/2026 10:44 15,4 °C 13,9 °C 14,4 °C 13,3 °C 12,8 °C 84 % 2 lf 14 lf 7 cb 58 cb 200 cb 1013,3 hPa 0,0 mm 0,3 km/h (0 Bft) O-NO 298 ° 0 min 0,000 mm 2,0 UV-I 269 W/m² 12,7 °C 15,4 °C 1,6 km/h (1 Bft)
04/05/2026 10:42 15,4 °C 13,9 °C 14,4 °C 13,3 °C 12,8 °C 85 % 3 lf 15 lf 7 cb 58 cb 200 cb 1013,4 hPa 0,0 mm 0,2 km/h (0 Bft) O-NO 298 ° 0 min 0,000 mm 1,8 UV-I 237 W/m² 12,9 °C 15,4 °C 1,6 km/h (1 Bft)
04/05/2026 10:40 15,5 °C 13,9 °C 14,4 °C 13,3 °C 12,8 °C 84 % 3 lf 15 lf 7 cb 58 cb 200 cb 1013,3 hPa 0,0 mm 0,6 km/h (0 Bft) O-NO 298 ° 0 min 0,000 mm 1,8 UV-I 225 W/m² 12,8 °C 15,5 °C 3,2 km/h (1 Bft)
04/05/2026 10:38 15,5 °C 13,9 °C 14,4 °C 13,3 °C 12,8 °C 85 % 4 lf 15 lf 7 cb 58 cb 200 cb 1013,3 hPa 0,0 mm 0,0 km/h (0 Bft) O-NO 298 ° 2 min 0,000 mm 2,2 UV-I 394 W/m² 13,0 °C 15,5 °C 1,6 km/h (1 Bft)
04/05/2026 10:36 15,4 °C 13,9 °C 14,4 °C 13,3 °C 12,8 °C 85 % 4 lf 15 lf 7 cb 58 cb 200 cb 1013,3 hPa 0,0 mm 0,5 km/h (0 Bft) O-NO 298 ° 0 min 0,000 mm 1,8 UV-I 272 W/m² 12,9 °C 15,4 °C 1,6 km/h (1 Bft)
04/05/2026 10:34 15,6 °C 13,9 °C 14,4 °C 13,3 °C 12,8 °C 85 % 4 lf 15 lf 7 cb 58 cb 200 cb 1013,2 hPa 0,0 mm 0,3 km/h (0 Bft) O-NO 298 ° 2 min 0,000 mm 2,2 UV-I 436 W/m² 13,1 °C 15,6 °C 1,6 km/h (1 Bft)
04/05/2026 10:32 15,4 °C 13,9 °C 14,4 °C 13,3 °C 12,8 °C 85 % 5 lf 15 lf 7 cb 58 cb 200 cb 1013,3 hPa 0,0 mm 0,4 km/h (0 Bft) O-NO 298 ° 2 min 0,000 mm 2,4 UV-I 499 W/m² 12,9 °C 15,4 °C 1,6 km/h (1 Bft)
04/05/2026 10:30 15,4 °C 13,9 °C 14,4 °C 13,3 °C 12,8 °C 86 % 7 lf 15 lf 7 cb 58 cb 200 cb 1013,3 hPa 0,0 mm 0,5 km/h (0 Bft) O-NO 298 ° 2 min 0,000 mm 2,4 UV-I 483 W/m² 13,1 °C 15,4 °C 3,2 km/h (1 Bft)
04/05/2026 10:28 15,3 °C 13,9 °C 14,4 °C 13,3 °C 12,8 °C 86 % 8 lf 15 lf 7 cb 58 cb 200 cb 1013,3 hPa 0,0 mm 0,1 km/h (0 Bft) O-NO 298 ° 2 min 0,000 mm 2,5 UV-I 492 W/m² 13,0 °C 15,3 °C 1,6 km/h (1 Bft)
04/05/2026 10:26 15,4 °C 13,9 °C 14,4 °C 13,3 °C 12,8 °C 87 % 9 lf 15 lf 7 cb 58 cb 200 cb 1013,3 hPa 0,0 mm 0,1 km/h (0 Bft) O-NO 298 ° 2 min 0,000 mm 2,4 UV-I 448 W/m² 13,2 °C 15,4 °C 1,6 km/h (1 Bft)
04/05/2026 10:24 15,2 °C 13,9 °C 14,4 °C 13,3 °C 12,8 °C 86 % 9 lf 15 lf 7 cb 58 cb 200 cb 1013,3 hPa 0,0 mm 0,5 km/h (0 Bft) O-NO 298 ° 2 min 0,000 mm 2,4 UV-I 455 W/m² 12,9 °C 15,2 °C 3,2 km/h (1 Bft)
04/05/2026 10:22 15,2 °C 13,9 °C 14,4 °C 13,3 °C 12,8 °C 86 % 9 lf 15 lf 7 cb 58 cb 200 cb 1013,3 hPa 0,0 mm 1,1 km/h (1 Bft) O-NO 298 ° 2 min 0,000 mm 2,3 UV-I 436 W/m² 12,9 °C 15,2 °C 4,8 km/h (1 Bft)
04/05/2026 10:20 15,3 °C 13,9 °C 14,4 °C 13,3 °C 12,8 °C 87 % 10 lf 15 lf 7 cb 58 cb 200 cb 1013,3 hPa 0,0 mm 1,6 km/h (1 Bft) O-NO 298 ° 2 min 0,000 mm 2,3 UV-I 457 W/m² 13,1 °C 15,3 °C 3,2 km/h (1 Bft)
04/05/2026 10:18 15,2 °C 13,9 °C 14,4 °C 13,3 °C 12,8 °C 86 % 10 lf 15 lf 7 cb 58 cb 200 cb 1013,3 hPa 0,0 mm 0,6 km/h (0 Bft) O-NO 298 ° 2 min 0,000 mm 2,3 UV-I 466 W/m² 12,9 °C 15,2 °C 3,2 km/h (1 Bft)
04/05/2026 10:16 15,3 °C 13,9 °C 14,4 °C 13,3 °C 12,8 °C 87 % 11 lf 15 lf 7 cb 58 cb 200 cb 1013,3 hPa 0,0 mm 1,2 km/h (1 Bft) O-NO 298 ° 2 min 0,000 mm 2,3 UV-I 478 W/m² 13,1 °C 15,3 °C 3,2 km/h (1 Bft)
04/05/2026 10:14 15,2 °C 13,9 °C 14,4 °C 13,3 °C 12,8 °C 88 % 12 lf 15 lf 7 cb 58 cb 200 cb 1013,2 hPa 0,0 mm 1,8 km/h (1 Bft) O-NO 298 ° 2 min 0,000 mm 2,3 UV-I 404 W/m² 13,2 °C 15,2 °C 4,8 km/h (1 Bft)
04/05/2026 10:12 15,0 °C 13,9 °C 14,4 °C 13,3 °C 12,8 °C 88 % 12 lf 15 lf 7 cb 58 cb 200 cb 1013,3 hPa 0,0 mm 2,0 km/h (1 Bft) O-NO 298 ° 2 min 0,000 mm 2,2 UV-I 404 W/m² 13,0 °C 15,0 °C 4,8 km/h (1 Bft)
04/05/2026 10:10 14,9 °C 13,9 °C 14,4 °C 13,3 °C 12,8 °C 88 % 13 lf 15 lf 7 cb 58 cb 200 cb 1013,2 hPa 0,0 mm 0,8 km/h (0 Bft) O-NO 298 ° 2 min 0,000 mm 2,3 UV-I 494 W/m² 12,9 °C 14,9 °C 3,2 km/h (1 Bft)
04/05/2026 10:08 14,9 °C 13,9 °C 14,4 °C 13,3 °C 12,8 °C 89 % 14 lf 15 lf 7 cb 58 cb 200 cb 1013,2 hPa 0,0 mm 0,3 km/h (0 Bft) O-NO 298 ° 2 min 0,000 mm 2,0 UV-I 418 W/m² 13,1 °C 14,9 °C 1,6 km/h (1 Bft)
04/05/2026 10:06 14,9 °C 13,9 °C 14,4 °C 13,3 °C 12,8 °C 90 % 14 lf 15 lf 7 cb 58 cb 200 cb 1013,2 hPa 0,0 mm 0,0 km/h (0 Bft) O-NO 298 ° 2 min 0,000 mm 1,8 UV-I 348 W/m² 13,3 °C 14,9 °C 1,6 km/h (1 Bft)
04/05/2026 10:04 14,7 °C 13,9 °C 14,4 °C 13,3 °C 12,8 °C 90 % 14 lf 15 lf 7 cb 58 cb 200 cb 1013,2 hPa 0,0 mm 0,8 km/h (0 Bft) O-NO 298 ° 2 min 0,000 mm 2,0 UV-I 431 W/m² 13,1 °C 14,7 °C 3,2 km/h (1 Bft)
04/05/2026 10:02 14,6 °C 13,9 °C 14,4 °C 13,3 °C 12,8 °C 90 % 15 lf 15 lf 7 cb 58 cb 200 cb 1013,2 hPa 0,0 mm 2,2 km/h (1 Bft) O-NO 298 ° 2 min 0,000 mm 2,0 UV-I 424 W/m² 13,0 °C 14,6 °C 4,8 km/h (1 Bft)
04/05/2026 10:00 14,6 °C 13,9 °C 14,4 °C 13,3 °C 12,8 °C 90 % 15 lf 15 lf 7 cb 58 cb 200 cb 1013,2 hPa 0,0 mm 2,3 km/h (1 Bft) O-NO 299 ° 2 min 0,101 mm 1,8 UV-I 387 W/m² 13,0 °C 14,6 °C 4,8 km/h (1 Bft)
04/05/2026 09:58 14,4 °C 13,9 °C 14,4 °C 13,3 °C 12,8 °C 89 % 15 lf 15 lf 7 cb 58 cb 200 cb 1013,2 hPa 0,0 mm 1,0 km/h (0 Bft) O-NO 302 ° 0 min 0,000 mm 1,6 UV-I 255 W/m² 12,6 °C 14,4 °C 3,2 km/h (1 Bft)
04/05/2026 09:56 14,6 °C 13,9 °C 14,4 °C 13,3 °C 12,8 °C 90 % 15 lf 15 lf 7 cb 58 cb 200 cb 1013,2 hPa 0,0 mm 3,1 km/h (1 Bft) O-NO 302 ° 0 min 0,000 mm 1,6 UV-I 285 W/m² 13,0 °C 14,6 °C 4,8 km/h (1 Bft)
04/05/2026 09:54 14,4 °C 13,3 °C 14,4 °C 13,3 °C 12,8 °C 90 % 15 lf 15 lf 7 cb 58 cb 200 cb 1013,2 hPa 0,0 mm 1,1 km/h (1 Bft) O-NO 302 ° 0 min 0,000 mm 1,4 UV-I 285 W/m² 12,8 °C 14,4 °C 3,2 km/h (1 Bft)
04/05/2026 09:52 14,3 °C 13,3 °C 14,4 °C 13,3 °C 12,8 °C 90 % 15 lf 15 lf 7 cb 58 cb 200 cb 1013,2 hPa 0,0 mm 2,2 km/h (1 Bft) O-NO 302 ° 2 min 0,000 mm 1,5 UV-I 374 W/m² 12,7 °C 14,3 °C 3,2 km/h (1 Bft)
04/05/2026 09:50 14,1 °C 13,3 °C 14,4 °C 13,3 °C 12,8 °C 89 % 15 lf 15 lf 7 cb 58 cb 200 cb 1013,3 hPa 0,0 mm 1,2 km/h (1 Bft) O-NO 302 ° 2 min 0,000 mm 1,4 UV-I 304 W/m² 12,3 °C 14,1 °C 3,2 km/h (1 Bft)
04/05/2026 09:48 14,0 °C 13,3 °C 14,4 °C 13,3 °C 12,8 °C 90 % 15 lf 15 lf 7 cb 58 cb 200 cb 1013,2 hPa 0,0 mm 1,3 km/h (1 Bft) O-NO 302 ° 2 min 0,000 mm 1,5 UV-I 454 W/m² 12,4 °C 14,0 °C 3,2 km/h (1 Bft)
04/05/2026 09:46 13,9 °C 13,3 °C 14,4 °C 13,3 °C 12,8 °C 90 % 15 lf 15 lf 7 cb 58 cb 200 cb 1013,3 hPa 0,0 mm 1,0 km/h (0 Bft) O-NO 302 ° 0 min 0,000 mm 1,3 UV-I 265 W/m² 12,3 °C 13,9 °C 3,2 km/h (1 Bft)
04/05/2026 09:44 13,7 °C 12,8 °C 14,4 °C 13,3 °C 12,8 °C 90 % 15 lf 15 lf 7 cb 58 cb 200 cb 1013,3 hPa 0,0 mm 0,3 km/h (0 Bft) O-NO 302 ° 0 min 0,000 mm 1,2 UV-I 255 W/m² 12,1 °C 13,7 °C 1,6 km/h (1 Bft)
04/05/2026 09:42 13,7 °C 12,8 °C 14,4 °C 13,3 °C 12,8 °C 90 % 15 lf 15 lf 7 cb 58 cb 200 cb 1013,2 hPa 0,0 mm 0,3 km/h (0 Bft) O-NO 302 ° 0 min 0,000 mm 1,2 UV-I 190 W/m² 12,1 °C 13,7 °C 1,6 km/h (1 Bft)
04/05/2026 09:40 13,8 °C 12,8 °C 14,4 °C 13,3 °C 12,8 °C 90 % 15 lf 15 lf 7 cb 58 cb 200 cb 1013,2 hPa 0,0 mm 0,2 km/h (0 Bft) O-NO 302 ° 0 min 0,000 mm 1,1 UV-I 153 W/m² 12,2 °C 13,8 °C 1,6 km/h (1 Bft)
04/05/2026 09:38 13,8 °C 12,8 °C 14,4 °C 13,3 °C 12,8 °C 90 % 15 lf 15 lf 7 cb 58 cb 200 cb 1013,1 hPa 0,0 mm 0,0 km/h (0 Bft) O-NO 302 ° 0 min 0,000 mm 1,0 UV-I 132 W/m² 12,2 °C 13,8 °C 1,6 km/h (1 Bft)
04/05/2026 09:36 13,8 °C 12,8 °C 14,4 °C 13,3 °C 12,8 °C 91 % 15 lf 15 lf 7 cb 58 cb 200 cb 1013,1 hPa 0,0 mm 0,0 km/h (0 Bft) O-NO 302 ° 0 min 0,000 mm 1,0 UV-I 132 W/m² 12,4 °C 13,8 °C 0,0 km/h (0 Bft)
04/05/2026 09:34 13,8 °C 12,8 °C 14,4 °C 13,3 °C 12,8 °C 91 % 15 lf 15 lf 7 cb 58 cb 200 cb 1013,1 hPa 0,0 mm 0,0 km/h (0 Bft) O-NO 302 ° 0 min 0,000 mm 1,1 UV-I 213 W/m² 12,4 °C 13,8 °C 0,0 km/h (0 Bft)
04/05/2026 09:32 13,6 °C 12,8 °C 14,4 °C 13,3 °C 12,8 °C 91 % 15 lf 15 lf 7 cb 58 cb 200 cb 1013,1 hPa 0,0 mm 0,0 km/h (0 Bft) O-NO 302 ° 0 min 0,000 mm 1,0 UV-I 178 W/m² 12,2 °C 13,6 °C 0,0 km/h (0 Bft)
04/05/2026 09:30 13,6 °C 12,8 °C 14,4 °C 13,3 °C 12,8 °C 91 % 15 lf 15 lf 7 cb 58 cb 200 cb 1013,1 hPa 0,0 mm 0,8 km/h (0 Bft) O-NO 302 ° 0 min 0,000 mm 1,1 UV-I 167 W/m² 12,2 °C 13,6 °C 3,2 km/h (1 Bft)
04/05/2026 09:28 13,6 °C 12,8 °C 14,4 °C 13,3 °C 12,8 °C 91 % 15 lf 15 lf 7 cb 58 cb 200 cb 1013,0 hPa 0,0 mm 0,8 km/h (0 Bft) O-NO 302 ° 0 min 0,000 mm 1,0 UV-I 139 W/m² 12,2 °C 13,6 °C 3,2 km/h (1 Bft)
04/05/2026 09:26 13,6 °C 12,8 °C 14,4 °C 13,3 °C 12,8 °C 91 % 15 lf 15 lf 7 cb 58 cb 200 cb 1013,1 hPa 0,0 mm 0,9 km/h (0 Bft) O-NO 302 ° 0 min 0,000 mm 0,9 UV-I 141 W/m² 12,2 °C 13,6 °C 3,2 km/h (1 Bft)
04/05/2026 09:24 13,6 °C 12,8 °C 14,4 °C 13,3 °C 12,8 °C 91 % 15 lf 15 lf 7 cb 58 cb 200 cb 1013,0 hPa 0,0 mm 0,7 km/h (0 Bft) O-NO 302 ° 0 min 0,000 mm 0,9 UV-I 123 W/m² 12,2 °C 13,6 °C 1,6 km/h (1 Bft)
04/05/2026 09:22 13,6 °C 12,8 °C 14,4 °C 13,3 °C 12,8 °C 91 % 15 lf 15 lf 7 cb 58 cb 200 cb 1013,0 hPa 0,0 mm 2,0 km/h (1 Bft) O-NO 302 ° 0 min 0,000 mm 0,9 UV-I 135 W/m² 12,2 °C 13,6 °C 3,2 km/h (1 Bft)
04/05/2026 09:20 13,6 °C 12,8 °C 14,4 °C 13,3 °C 12,8 °C 91 % 15 lf 15 lf 7 cb 58 cb 200 cb 1013,0 hPa 0,0 mm 0,1 km/h (0 Bft) O-NO 302 ° 0 min 0,000 mm 0,9 UV-I 146 W/m² 12,2 °C 13,6 °C 1,6 km/h (1 Bft)
04/05/2026 09:18 13,5 °C 12,8 °C 14,4 °C 13,3 °C 12,8 °C 91 % 15 lf 15 lf 7 cb 58 cb 200 cb 1013,0 hPa 0,0 mm 0,7 km/h (0 Bft) O-NO 302 ° 0 min 0,000 mm 0,9 UV-I 139 W/m² 12,1 °C 13,5 °C 3,2 km/h (1 Bft)
04/05/2026 09:16 13,4 °C 13,3 °C 14,4 °C 13,3 °C 12,8 °C 91 % 15 lf 15 lf 7 cb 58 cb 200 cb 1013,0 hPa 0,0 mm 0,7 km/h (0 Bft) O-NO 302 ° 0 min 0,000 mm 0,9 UV-I 174 W/m² 12,0 °C 13,4 °C 1,6 km/h (1 Bft)
04/05/2026 09:14 13,4 °C 13,3 °C 14,4 °C 13,3 °C 12,8 °C 91 % 15 lf 15 lf 7 cb 58 cb 200 cb 1013,0 hPa 0,0 mm 0,1 km/h (0 Bft) O-NO 302 ° 0 min 0,000 mm 0,9 UV-I 155 W/m² 12,0 °C 13,4 °C 1,6 km/h (1 Bft)
04/05/2026 09:12 13,4 °C 13,3 °C 14,4 °C 13,3 °C 12,8 °C 92 % 15 lf 15 lf 7 cb 58 cb 200 cb 1013,0 hPa 0,0 mm 0,1 km/h (0 Bft) O-NO 302 ° 0 min 0,000 mm 0,9 UV-I 172 W/m² 12,1 °C 13,4 °C 1,6 km/h (1 Bft)
04/05/2026 09:10 13,4 °C 13,3 °C 14,4 °C 13,3 °C 12,8 °C 91 % 15 lf 15 lf 7 cb 58 cb 200 cb 1012,9 hPa 0,0 mm 0,1 km/h (0 Bft) O-NO 302 ° 0 min 0,000 mm 0,9 UV-I 193 W/m² 12,0 °C 13,4 °C 1,6 km/h (1 Bft)
04/05/2026 09:08 13,4 °C 13,3 °C 14,4 °C 13,3 °C 12,8 °C 92 % 15 lf 15 lf 7 cb 58 cb 200 cb 1012,9 hPa 0,0 mm 1,2 km/h (1 Bft) O-NO 302 ° 0 min 0,000 mm 0,9 UV-I 193 W/m² 12,1 °C 13,4 °C 3,2 km/h (1 Bft)
04/05/2026 09:06 13,3 °C 12,8 °C 14,4 °C 13,3 °C 12,8 °C 92 % 15 lf 15 lf 7 cb 58 cb 200 cb 1012,9 hPa 0,0 mm 0,2 km/h (0 Bft) O-NO 302 ° 0 min 0,000 mm 0,9 UV-I 200 W/m² 12,0 °C 13,3 °C 1,6 km/h (1 Bft)
04/05/2026 09:04 13,2 °C 12,8 °C 14,4 °C 13,3 °C 12,8 °C 92 % 15 lf 15 lf 7 cb 58 cb 200 cb 1012,9 hPa 0,0 mm 0,3 km/h (0 Bft) O-NO 302 ° 0 min 0,000 mm 0,9 UV-I 206 W/m² 11,9 °C 13,2 °C 1,6 km/h (1 Bft)
04/05/2026 09:02 13,1 °C 12,8 °C 14,4 °C 13,3 °C 12,8 °C 92 % 15 lf 15 lf 7 cb 58 cb 200 cb 1012,9 hPa 0,0 mm 0,0 km/h (0 Bft) O-NO 302 ° 0 min 0,000 mm 0,9 UV-I 214 W/m² 11,8 °C 13,1 °C 0,0 km/h (0 Bft)
04/05/2026 09:00 13,1 °C 12,8 °C 14,4 °C 13,3 °C 12,8 °C 92 % 15 lf 15 lf 7 cb 58 cb 200 cb 1012,9 hPa 0,0 mm 0,3 km/h (0 Bft) O-NO 302 ° 0 min 0,077 mm 0,8 UV-I 188 W/m² 11,8 °C 13,1 °C 3,2 km/h (1 Bft)
04/05/2026 08:58 13,1 °C 12,8 °C 14,4 °C 13,3 °C 12,8 °C 92 % 15 lf 15 lf 7 cb 58 cb 200 cb 1012,8 hPa 0,0 mm 1,1 km/h (1 Bft) O-NO 302 ° 0 min 0,000 mm 0,8 UV-I 195 W/m² 11,8 °C 13,1 °C 3,2 km/h (1 Bft)
04/05/2026 08:56 13,1 °C 12,8 °C 14,4 °C 13,3 °C 12,8 °C 92 % 15 lf 15 lf 7 cb 58 cb 200 cb 1012,8 hPa 0,0 mm 0,1 km/h (0 Bft) O-NO 302 ° 0 min 0,000 mm 0,8 UV-I 209 W/m² 11,8 °C 13,1 °C 1,6 km/h (1 Bft)
04/05/2026 08:54 13,0 °C 12,8 °C 14,4 °C 13,3 °C 12,8 °C 92 % 15 lf 15 lf 7 cb 58 cb 200 cb 1012,8 hPa 0,0 mm 1,0 km/h (0 Bft) O-NO 302 ° 0 min 0,000 mm 0,8 UV-I 186 W/m² 11,7 °C 13,0 °C 3,2 km/h (1 Bft)
04/05/2026 08:52 13,1 °C 12,8 °C 14,4 °C 13,3 °C 12,8 °C 92 % 15 lf 15 lf 7 cb 58 cb 200 cb 1012,8 hPa 0,0 mm 1,4 km/h (1 Bft) O-NO 303 ° 0 min 0,000 mm 0,7 UV-I 172 W/m² 11,8 °C 13,1 °C 3,2 km/h (1 Bft)
04/05/2026 08:50 13,1 °C 12,8 °C 14,4 °C 13,3 °C 12,8 °C 92 % 15 lf 15 lf 7 cb 58 cb 200 cb 1012,9 hPa 0,0 mm 0,1 km/h (0 Bft) O-NO 303 ° 0 min 0,000 mm 0,7 UV-I 165 W/m² 11,8 °C 13,1 °C 1,6 km/h (1 Bft)
04/05/2026 08:48 13,2 °C 12,8 °C 14,4 °C 13,3 °C 12,8 °C 93 % 15 lf 15 lf 7 cb 58 cb 200 cb 1012,8 hPa 0,0 mm 1,3 km/h (1 Bft) O-NO 303 ° 0 min 0,000 mm 0,7 UV-I 167 W/m² 12,1 °C 13,2 °C 3,2 km/h (1 Bft)
04/05/2026 08:46 13,2 °C 12,8 °C 14,4 °C 13,3 °C 12,8 °C 93 % 15 lf 15 lf 7 cb 58 cb 200 cb 1012,8 hPa 0,0 mm 1,1 km/h (1 Bft) O-NO 303 ° 0 min 0,000 mm 0,7 UV-I 193 W/m² 12,1 °C 13,2 °C 3,2 km/h (1 Bft)
04/05/2026 08:44 13,1 °C 12,8 °C 14,4 °C 13,3 °C 12,8 °C 93 % 15 lf 15 lf 7 cb 58 cb 200 cb 1012,8 hPa 0,0 mm 0,1 km/h (0 Bft) O-NO 303 ° 2 min 0,000 mm 0,8 UV-I 213 W/m² 12,0 °C 13,1 °C 1,6 km/h (1 Bft)
04/05/2026 08:42 13,0 °C 12,8 °C 14,4 °C 13,3 °C 12,8 °C 93 % 15 lf 15 lf 7 cb 58 cb 200 cb 1012,7 hPa 0,0 mm 0,3 km/h (0 Bft) O-NO 303 ° 2 min 0,000 mm 0,7 UV-I 207 W/m² 11,9 °C 13,0 °C 1,6 km/h (1 Bft)
04/05/2026 08:40 12,9 °C 12,8 °C 14,4 °C 13,3 °C 12,8 °C 93 % 15 lf 15 lf 7 cb 58 cb 200 cb 1012,7 hPa 0,0 mm 0,0 km/h (0 Bft) O-NO 303 ° 2 min 0,000 mm 0,7 UV-I 206 W/m² 11,8 °C 12,9 °C 0,0 km/h (0 Bft)
04/05/2026 08:38 12,8 °C 12,8 °C 14,4 °C 13,3 °C 12,8 °C 93 % 15 lf 15 lf 7 cb 58 cb 200 cb 1012,6 hPa 0,0 mm 0,4 km/h (0 Bft) O-NO 303 ° 0 min 0,000 mm 0,7 UV-I 183 W/m² 11,7 °C 12,8 °C 1,6 km/h (1 Bft)
04/05/2026 08:36 12,9 °C 12,8 °C 14,4 °C 13,3 °C 12,8 °C 93 % 15 lf 15 lf 7 cb 58 cb 200 cb 1012,6 hPa 0,0 mm 1,3 km/h (1 Bft) O-NO 303 ° 0 min 0,000 mm 0,7 UV-I 185 W/m² 11,8 °C 12,9 °C 3,2 km/h (1 Bft)
04/05/2026 08:34 12,8 °C 12,8 °C 14,4 °C 13,3 °C 12,8 °C 93 % 15 lf 15 lf 7 cb 58 cb 200 cb 1012,6 hPa 0,0 mm 0,1 km/h (0 Bft) O-NO 303 ° 2 min 0,000 mm 0,7 UV-I 229 W/m² 11,7 °C 12,8 °C 1,6 km/h (1 Bft)
04/05/2026 08:32 12,7 °C 12,2 °C 14,4 °C 13,3 °C 12,8 °C 93 % 15 lf 15 lf 7 cb 58 cb 200 cb 1012,5 hPa 0,0 mm 0,1 km/h (0 Bft) O-NO 303 ° 2 min 0,000 mm 0,6 UV-I 204 W/m² 11,6 °C 12,7 °C 1,6 km/h (1 Bft)
04/05/2026 08:30 12,7 °C 12,2 °C 14,4 °C 13,3 °C 12,8 °C 93 % 15 lf 15 lf 7 cb 58 cb 200 cb 1012,6 hPa 0,0 mm 0,9 km/h (0 Bft) O-NO 303 ° 0 min 0,000 mm 0,6 UV-I 165 W/m² 11,6 °C 12,7 °C 3,2 km/h (1 Bft)
04/05/2026 08:28 12,6 °C 12,2 °C 14,4 °C 13,3 °C 12,8 °C 93 % 15 lf 15 lf 7 cb 58 cb 200 cb 1012,6 hPa 0,0 mm 2,0 km/h (1 Bft) O-NO 303 ° 0 min 0,000 mm 0,6 UV-I 160 W/m² 11,5 °C 12,6 °C 3,2 km/h (1 Bft)
04/05/2026 08:26 12,6 °C 12,2 °C 14,4 °C 13,3 °C 12,8 °C 93 % 15 lf 15 lf 7 cb 58 cb 200 cb 1012,5 hPa 0,0 mm 2,3 km/h (1 Bft) O-NO 303 ° 0 min 0,000 mm 0,5 UV-I 155 W/m² 11,5 °C 12,6 °C 3,2 km/h (1 Bft)
04/05/2026 08:24 12,6 °C 12,2 °C 14,4 °C 13,3 °C 12,8 °C 93 % 15 lf 15 lf 7 cb 58 cb 200 cb 1012,5 hPa 0,0 mm 2,5 km/h (1 Bft) O-NO 303 ° 0 min 0,000 mm 0,5 UV-I 153 W/m² 11,5 °C 12,6 °C 3,2 km/h (1 Bft)
04/05/2026 08:22 12,7 °C 12,2 °C 14,4 °C 13,3 °C 12,8 °C 93 % 15 lf 15 lf 7 cb 57 cb 200 cb 1012,5 hPa 0,0 mm 1,6 km/h (1 Bft) O-NO 303 ° 0 min 0,000 mm 0,5 UV-I 156 W/m² 11,6 °C 12,7 °C 3,2 km/h (1 Bft)
04/05/2026 08:20 12,6 °C 12,2 °C 14,4 °C 13,3 °C 12,8 °C 93 % 15 lf 15 lf 6 cb 57 cb 200 cb 1012,5 hPa 0,0 mm 1,0 km/h (0 Bft) O-NO 303 ° 0 min 0,000 mm 0,5 UV-I 160 W/m² 11,5 °C 12,6 °C 3,2 km/h (1 Bft)
04/05/2026 08:18 12,6 °C 12,2 °C 14,4 °C 13,3 °C 12,8 °C 93 % 15 lf 15 lf 6 cb 57 cb 200 cb 1012,5 hPa 0,0 mm 1,3 km/h (1 Bft) O-NO 303 ° 0 min 0,000 mm 0,5 UV-I 162 W/m² 11,5 °C 12,6 °C 3,2 km/h (1 Bft)
04/05/2026 08:16 12,3 °C 11,7 °C 14,4 °C 13,3 °C 12,8 °C 93 % 15 lf 15 lf 6 cb 57 cb 200 cb 1012,5 hPa 0,0 mm 1,8 km/h (1 Bft) O-NO 303 ° 0 min 0,000 mm 0,5 UV-I 160 W/m² 11,2 °C 12,3 °C 3,2 km/h (1 Bft)
04/05/2026 08:14 12,4 °C 11,7 °C 14,4 °C 13,3 °C 12,8 °C 93 % 15 lf 15 lf 6 cb 57 cb 200 cb 1012,5 hPa 0,0 mm 2,5 km/h (1 Bft) O-NO 303 ° 0 min 0,000 mm 0,5 UV-I 155 W/m² 11,3 °C 12,4 °C 4,8 km/h (1 Bft)
04/05/2026 08:12 12,3 °C 11,7 °C 14,4 °C 13,3 °C 12,8 °C 93 % 15 lf 15 lf 6 cb 57 cb 200 cb 1012,4 hPa 0,0 mm 2,7 km/h (1 Bft) O-NO 303 ° 0 min 0,000 mm 0,0 UV-I 142 W/m² 11,2 °C 12,3 °C 4,8 km/h (1 Bft)
04/05/2026 08:10 12,3 °C 11,7 °C 14,4 °C 13,3 °C 12,8 °C 93 % 15 lf 15 lf 6 cb 57 cb 200 cb 1012,4 hPa 0,0 mm 2,7 km/h (1 Bft) O-NO 303 ° 0 min 0,000 mm 0,0 UV-I 135 W/m² 11,2 °C 12,3 °C 3,2 km/h (1 Bft)
04/05/2026 08:08 12,2 °C 11,7 °C 14,4 °C 13,3 °C 12,8 °C 92 % 15 lf 15 lf 6 cb 57 cb 200 cb 1012,4 hPa 0,0 mm 1,3 km/h (1 Bft) O-NO 303 ° 0 min 0,000 mm 0,0 UV-I 132 W/m² 10,9 °C 12,2 °C 3,2 km/h (1 Bft)
04/05/2026 08:06 12,1 °C 11,7 °C 14,4 °C 13,3 °C 12,8 °C 92 % 15 lf 15 lf 6 cb 57 cb 200 cb 1012,4 hPa 0,0 mm 1,0 km/h (0 Bft) O-NO 303 ° 0 min 0,000 mm 0,0 UV-I 123 W/m² 10,8 °C 12,1 °C 3,2 km/h (1 Bft)
04/05/2026 08:04 12,1 °C 11,7 °C 14,4 °C 13,3 °C 12,8 °C 92 % 15 lf 15 lf 6 cb 57 cb 200 cb 1012,4 hPa 0,0 mm 1,0 km/h (0 Bft) O-NO 303 ° 0 min 0,000 mm 0,0 UV-I 120 W/m² 10,8 °C 12,1 °C 1,6 km/h (1 Bft)
04/05/2026 08:02 12,1 °C 11,1 °C 14,4 °C 13,3 °C 12,8 °C 92 % 15 lf 15 lf 6 cb 57 cb 200 cb 1012,4 hPa 0,0 mm 1,7 km/h (1 Bft) O-NO 303 ° 0 min 0,000 mm 0,0 UV-I 116 W/m² 10,8 °C 12,1 °C 3,2 km/h (1 Bft)
04/05/2026 08:00 12,0 °C 11,1 °C 14,4 °C 13,3 °C 12,8 °C 92 % 15 lf 15 lf 6 cb 57 cb 200 cb 1012,3 hPa 0,0 mm 1,4 km/h (1 Bft) O-NO 303 ° 0 min 0,025 mm 0,0 UV-I 113 W/m² 10,7 °C 12,0 °C 3,2 km/h (1 Bft)
04/05/2026 07:58 11,9 °C 11,1 °C 14,4 °C 13,3 °C 12,8 °C 92 % 15 lf 15 lf 6 cb 57 cb 200 cb 1012,3 hPa 0,0 mm 1,1 km/h (1 Bft) O-NO 303 ° 0 min 0,000 mm 0,0 UV-I 109 W/m² 10,6 °C 11,9 °C 3,2 km/h (1 Bft)
04/05/2026 07:56 11,9 °C 11,1 °C 14,4 °C 13,3 °C 12,8 °C 92 % 15 lf 15 lf 6 cb 57 cb 200 cb 1012,3 hPa 0,0 mm 0,0 km/h (0 Bft) O-NO 303 ° 0 min 0,000 mm 0,0 UV-I 107 W/m² 10,6 °C 11,9 °C 1,6 km/h (1 Bft)
04/05/2026 07:54 11,8 °C 11,1 °C 14,4 °C 13,3 °C 12,8 °C 92 % 15 lf 15 lf 6 cb 57 cb 200 cb 1012,3 hPa 0,0 mm 0,0 km/h (0 Bft) O-NO 303 ° 0 min 0,000 mm 0,0 UV-I 104 W/m² 10,5 °C 11,8 °C 0,0 km/h (0 Bft)
04/05/2026 07:52 11,7 °C 11,1 °C 14,4 °C 13,3 °C 12,8 °C 92 % 15 lf 15 lf 6 cb 57 cb 200 cb 1012,3 hPa 0,0 mm 0,1 km/h (0 Bft) O-NO 303 ° 0 min 0,000 mm 0,0 UV-I 102 W/m² 10,4 °C 11,7 °C 1,6 km/h (1 Bft)
04/05/2026 07:50 11,7 °C 11,1 °C 14,4 °C 13,3 °C 12,8 °C 92 % 15 lf 15 lf 6 cb 57 cb 200 cb 1012,2 hPa 0,0 mm 0,4 km/h (0 Bft) O-NO 303 ° 0 min 0,000 mm 0,0 UV-I 100 W/m² 10,4 °C 11,7 °C 1,6 km/h (1 Bft)
04/05/2026 07:48 11,6 °C 11,1 °C 14,4 °C 13,3 °C 12,8 °C 92 % 15 lf 15 lf 6 cb 57 cb 200 cb 1012,2 hPa 0,0 mm 0,2 km/h (0 Bft) O-NO 303 ° 0 min 0,000 mm 0,0 UV-I 97 W/m² 10,3 °C 11,6 °C 1,6 km/h (1 Bft)
04/05/2026 07:46 11,4 °C 10,6 °C 14,4 °C 13,3 °C 12,8 °C 92 % 15 lf 15 lf 6 cb 57 cb 200 cb 1012,2 hPa 0,0 mm 0,3 km/h (0 Bft) O-NO 303 ° 0 min 0,000 mm 0,0 UV-I 90 W/m² 10,1 °C 11,4 °C 1,6 km/h (1 Bft)
04/05/2026 07:44 11,3 °C 10,6 °C 14,4 °C 13,3 °C 12,8 °C 91 % 15 lf 15 lf 6 cb 57 cb 200 cb 1012,3 hPa 0,0 mm 1,2 km/h (1 Bft) O-NO 303 ° 0 min 0,000 mm 0,0 UV-I 76 W/m² 9,9 °C 11,3 °C 3,2 km/h (1 Bft)
04/05/2026 07:42 11,2 °C 10,6 °C 14,4 °C 13,3 °C 12,8 °C 92 % 15 lf 15 lf 6 cb 57 cb 200 cb 1012,2 hPa 0,0 mm 1,1 km/h (1 Bft) O-NO 303 ° 0 min 0,000 mm 0,0 UV-I 69 W/m² 9,9 °C 11,2 °C 1,6 km/h (1 Bft)
04/05/2026 07:40 11,1 °C 10,6 °C 14,4 °C 13,3 °C 12,8 °C 91 % 15 lf 15 lf 6 cb 57 cb 200 cb 1012,1 hPa 0,0 mm 1,1 km/h (1 Bft) O-NO 303 ° 0 min 0,000 mm 0,0 UV-I 67 W/m² 9,7 °C 11,1 °C 3,2 km/h (1 Bft)
04/05/2026 07:38 10,9 °C 10,6 °C 14,4 °C 13,3 °C 12,8 °C 91 % 15 lf 15 lf 6 cb 57 cb 200 cb 1012,2 hPa 0,0 mm 1,0 km/h (0 Bft) NO 304 ° 0 min 0,000 mm 0,0 UV-I 65 W/m² 9,5 °C 10,9 °C 3,2 km/h (1 Bft)
04/05/2026 07:36 10,9 °C 10,6 °C 14,4 °C 13,3 °C 12,8 °C 91 % 15 lf 15 lf 6 cb 57 cb 200 cb 1012,2 hPa 0,0 mm 3,2 km/h (1 Bft) NO 304 ° 0 min 0,000 mm 0,0 UV-I 63 W/m² 9,5 °C 10,9 °C 4,8 km/h (1 Bft)
04/05/2026 07:34 10,9 °C 10,6 °C 14,4 °C 13,3 °C 12,8 °C 91 % 15 lf 15 lf 6 cb 57 cb 200 cb 1012,2 hPa 0,0 mm 0,9 km/h (0 Bft) NO 304 ° 0 min 0,000 mm 0,0 UV-I 62 W/m² 9,5 °C 10,9 °C 3,2 km/h (1 Bft)
04/05/2026 07:32 10,9 °C 10,6 °C 14,4 °C 13,3 °C 12,8 °C 91 % 15 lf 15 lf 6 cb 57 cb 200 cb 1012,2 hPa 0,0 mm 0,3 km/h (0 Bft) NO 304 ° 0 min 0,000 mm 0,0 UV-I 58 W/m² 9,5 °C 10,9 °C 1,6 km/h (1 Bft)
04/05/2026 07:30 10,9 °C 10,6 °C 14,4 °C 13,3 °C 12,8 °C 91 % 15 lf 15 lf 6 cb 57 cb 200 cb 1012,1 hPa 0,0 mm 0,7 km/h (0 Bft) NO 304 ° 0 min 0,000 mm 0,0 UV-I 56 W/m² 9,5 °C 10,9 °C 1,6 km/h (1 Bft)
04/05/2026 07:28 10,9 °C 10,6 °C 14,4 °C 13,3 °C 12,8 °C 91 % 15 lf 15 lf 6 cb 57 cb 200 cb 1012,1 hPa 0,0 mm 0,1 km/h (0 Bft) NO 304 ° 0 min 0,000 mm 0,0 UV-I 53 W/m² 9,5 °C 10,9 °C 1,6 km/h (1 Bft)
04/05/2026 07:26 10,9 °C 10,6 °C 14,4 °C 13,3 °C 12,8 °C 91 % 15 lf 15 lf 6 cb 57 cb 200 cb 1012,0 hPa 0,0 mm 0,0 km/h (0 Bft) NO 304 ° 0 min 0,000 mm 0,0 UV-I 49 W/m² 9,5 °C 10,9 °C 0,0 km/h (0 Bft)
04/05/2026 07:24 10,9 °C 10,6 °C 14,4 °C 13,3 °C 12,8 °C 91 % 15 lf 15 lf 6 cb 57 cb 200 cb 1012,1 hPa 0,0 mm 0,1 km/h (0 Bft) NO 304 ° 0 min 0,000 mm 0,0 UV-I 49 W/m² 9,5 °C 10,9 °C 1,6 km/h (1 Bft)
04/05/2026 07:22 10,9 °C 10,0 °C 14,4 °C 13,3 °C 12,8 °C 91 % 15 lf 15 lf 6 cb 57 cb 200 cb 1012,0 hPa 0,0 mm 0,1 km/h (0 Bft) NO 304 ° 0 min 0,000 mm 0,0 UV-I 47 W/m² 9,5 °C 10,9 °C 1,6 km/h (1 Bft)
04/05/2026 07:20 10,9 °C 10,0 °C 14,4 °C 13,3 °C 12,8 °C 91 % 15 lf 15 lf 6 cb 57 cb 200 cb 1012,1 hPa 0,0 mm 0,5 km/h (0 Bft) NO 304 ° 0 min 0,000 mm 0,0 UV-I 44 W/m² 9,5 °C 10,9 °C 1,6 km/h (1 Bft)
04/05/2026 07:18 10,8 °C 10,0 °C 14,4 °C 13,3 °C 12,8 °C 91 % 15 lf 15 lf 6 cb 57 cb 200 cb 1012,0 hPa 0,0 mm 0,0 km/h (0 Bft) NO 304 ° 0 min 0,000 mm 0,0 UV-I 42 W/m² 9,4 °C 10,8 °C 1,6 km/h (1 Bft)
04/05/2026 07:16 10,9 °C 10,0 °C 14,4 °C 13,3 °C 12,8 °C 91 % 15 lf 15 lf 6 cb 57 cb 200 cb 1012,1 hPa 0,0 mm 0,0 km/h (0 Bft) NO 304 ° 0 min 0,000 mm 0,0 UV-I 40 W/m² 9,5 °C 10,9 °C 0,0 km/h (0 Bft)
04/05/2026 07:14 10,9 °C 10,0 °C 14,4 °C 13,3 °C 12,8 °C 91 % 15 lf 15 lf 6 cb 57 cb 200 cb 1012,0 hPa 0,0 mm 0,0 km/h (0 Bft) NO 304 ° 0 min 0,000 mm 0,0 UV-I 39 W/m² 9,5 °C 10,9 °C 0,0 km/h (0 Bft)
04/05/2026 07:12 10,9 °C 10,0 °C 14,4 °C 13,3 °C 12,8 °C 91 % 15 lf 15 lf 6 cb 57 cb 200 cb 1012,0 hPa 0,0 mm 0,0 km/h (0 Bft) NO 304 ° 0 min 0,000 mm 0,0 UV-I 39 W/m² 9,5 °C 10,9 °C 0,0 km/h (0 Bft)
04/05/2026 07:10 10,9 °C 10,0 °C 14,4 °C 13,3 °C 12,8 °C 91 % 15 lf 15 lf 6 cb 57 cb 200 cb 1012,0 hPa 0,0 mm 0,0 km/h (0 Bft) NO 304 ° 0 min 0,000 mm 0,0 UV-I 37 W/m² 9,5 °C 10,9 °C 0,0 km/h (0 Bft)
04/05/2026 07:08 10,9 °C 10,0 °C 14,4 °C 13,3 °C 12,8 °C 91 % 15 lf 15 lf 6 cb 57 cb 200 cb 1012,0 hPa 0,0 mm 0,6 km/h (0 Bft) NO 304 ° 0 min 0,000 mm 0,0 UV-I 35 W/m² 9,5 °C 10,9 °C 1,6 km/h (1 Bft)
04/05/2026 07:06 10,9 °C 10,0 °C 14,4 °C 13,3 °C 12,8 °C 91 % 15 lf 15 lf 6 cb 57 cb 200 cb 1012,0 hPa 0,0 mm 0,2 km/h (0 Bft) NO 304 ° 0 min 0,000 mm 0,0 UV-I 35 W/m² 9,5 °C 10,9 °C 1,6 km/h (1 Bft)
04/05/2026 07:04 10,9 °C 10,0 °C 14,4 °C 13,3 °C 12,8 °C 91 % 15 lf 15 lf 6 cb 57 cb 200 cb 1012,1 hPa 0,0 mm 0,5 km/h (0 Bft) NO 304 ° 0 min 0,000 mm 0,0 UV-I 33 W/m² 9,5 °C 10,9 °C 1,6 km/h (1 Bft)
04/05/2026 07:02 10,9 °C 10,0 °C 14,4 °C 13,3 °C 12,8 °C 91 % 15 lf 15 lf 6 cb 57 cb 200 cb 1012,1 hPa 0,0 mm 1,8 km/h (1 Bft) NO 304 ° 0 min 0,000 mm 0,0 UV-I 33 W/m² 9,5 °C 10,9 °C 3,2 km/h (1 Bft)
04/05/2026 07:00 10,9 °C 10,0 °C 14,4 °C 13,3 °C 12,8 °C 91 % 15 lf 15 lf 6 cb 56 cb 200 cb 1012,0 hPa 0,0 mm 1,6 km/h (1 Bft) NO 304 ° 0 min 0,000 mm 0,0 UV-I 33 W/m² 9,5 °C 10,9 °C 3,2 km/h (1 Bft)
04/05/2026 06:58 10,9 °C 10,0 °C 14,4 °C 13,3 °C 12,8 °C 91 % 15 lf 15 lf 6 cb 56 cb 200 cb 1011,9 hPa 0,0 mm 0,2 km/h (0 Bft) NO 304 ° 0 min 0,000 mm 0,0 UV-I 32 W/m² 9,5 °C 10,9 °C 1,6 km/h (1 Bft)
04/05/2026 06:56 10,9 °C 10,0 °C 14,4 °C 13,3 °C 12,8 °C 91 % 15 lf 15 lf 6 cb 56 cb 200 cb 1011,9 hPa 0,0 mm 0,0 km/h (0 Bft) NO 304 ° 0 min 0,000 mm 0,0 UV-I 28 W/m² 9,5 °C 10,9 °C 0,0 km/h (0 Bft)
04/05/2026 06:54 10,9 °C 10,0 °C 14,4 °C 13,3 °C 12,8 °C 91 % 15 lf 15 lf 6 cb 56 cb 200 cb 1011,9 hPa 0,0 mm 0,0 km/h (0 Bft) NO 304 ° 0 min 0,000 mm 0,0 UV-I 25 W/m² 9,5 °C 10,9 °C 0,0 km/h (0 Bft)
04/05/2026 06:52 10,9 °C 10,0 °C 14,4 °C 13,3 °C 12,8 °C 91 % 15 lf 15 lf 6 cb 56 cb 200 cb 1011,8 hPa 0,0 mm 0,0 km/h (0 Bft) NO 304 ° 0 min 0,000 mm 0,0 UV-I 21 W/m² 9,5 °C 10,9 °C 0,0 km/h (0 Bft)
04/05/2026 06:50 11,0 °C 10,0 °C 14,4 °C 13,3 °C 12,8 °C 91 % 15 lf 15 lf 6 cb 56 cb 200 cb 1011,8 hPa 0,0 mm 0,0 km/h (0 Bft) NO 304 ° 0 min 0,000 mm 0,0 UV-I 16 W/m² 9,6 °C 11,0 °C 0,0 km/h (0 Bft)
04/05/2026 06:48 11,0 °C 10,0 °C 14,4 °C 13,3 °C 12,8 °C 91 % 15 lf 15 lf 6 cb 56 cb 200 cb 1011,8 hPa 0,0 mm 0,0 km/h (0 Bft) NO 304 ° 0 min 0,000 mm 0,0 UV-I 16 W/m² 9,6 °C 11,0 °C 0,0 km/h (0 Bft)
04/05/2026 06:46 11,1 °C 10,0 °C 14,4 °C 13,3 °C 12,8 °C 91 % 15 lf 15 lf 6 cb 56 cb 200 cb 1011,8 hPa 0,0 mm 0,0 km/h (0 Bft) NO 304 ° 0 min 0,000 mm 0,0 UV-I 14 W/m² 9,7 °C 11,1 °C 0,0 km/h (0 Bft)
04/05/2026 06:44 11,1 °C 10,0 °C 14,4 °C 13,3 °C 12,8 °C 90 % 15 lf 15 lf 6 cb 56 cb 200 cb 1011,8 hPa 0,0 mm 0,0 km/h (0 Bft) NO 304 ° 0 min 0,000 mm 0,0 UV-I 16 W/m² 9,5 °C 11,1 °C 0,0 km/h (0 Bft)
04/05/2026 06:42 11,1 °C 10,0 °C 14,4 °C 13,3 °C 12,8 °C 90 % 15 lf 15 lf 6 cb 56 cb 200 cb 1011,8 hPa 0,0 mm 0,0 km/h (0 Bft) NO 304 ° 0 min 0,000 mm 0,0 UV-I 16 W/m² 9,5 °C 11,1 °C 0,0 km/h (0 Bft)
04/05/2026 06:40 11,1 °C 10,0 °C 14,4 °C 13,3 °C 12,8 °C 90 % 15 lf 15 lf 6 cb 56 cb 200 cb 1011,9 hPa 0,0 mm 0,0 km/h (0 Bft) NO 304 ° 0 min 0,000 mm 0,0 UV-I 14 W/m² 9,5 °C 11,1 °C 0,0 km/h (0 Bft)
04/05/2026 06:38 11,1 °C 10,0 °C 14,4 °C 13,3 °C 12,8 °C 90 % 15 lf 15 lf 6 cb 56 cb 200 cb 1011,9 hPa 0,0 mm 0,0 km/h (0 Bft) NO 304 ° 0 min 0,000 mm 0,0 UV-I 14 W/m² 9,5 °C 11,1 °C 0,0 km/h (0 Bft)
04/05/2026 06:36 11,1 °C 10,0 °C 14,4 °C 13,3 °C 12,8 °C 90 % 15 lf 15 lf 6 cb 56 cb 200 cb 1011,9 hPa 0,0 mm 0,0 km/h (0 Bft) NO 304 ° 0 min 0,000 mm 0,0 UV-I 12 W/m² 9,5 °C 11,1 °C 0,0 km/h (0 Bft)
04/05/2026 06:34 11,2 °C 10,0 °C 14,4 °C 13,3 °C 12,8 °C 90 % 15 lf 15 lf 6 cb 56 cb 200 cb 1011,9 hPa 0,0 mm 0,0 km/h (0 Bft) NO 304 ° 0 min 0,000 mm 0,0 UV-I 11 W/m² 9,6 °C 11,2 °C 0,0 km/h (0 Bft)
04/05/2026 06:32 11,2 °C 10,0 °C 14,4 °C 13,3 °C 12,8 °C 90 % 15 lf 15 lf 6 cb 56 cb 200 cb 1011,9 hPa 0,0 mm 0,0 km/h (0 Bft) NO 304 ° 0 min 0,000 mm 0,0 UV-I 9 W/m² 9,6 °C 11,2 °C 0,0 km/h (0 Bft)
04/05/2026 06:30 11,2 °C 10,0 °C 14,4 °C 13,3 °C 12,8 °C 90 % 15 lf 15 lf 6 cb 56 cb 200 cb 1011,9 hPa 0,0 mm 0,0 km/h (0 Bft) NO 304 ° 0 min 0,000 mm 0,0 UV-I 9 W/m² 9,6 °C 11,2 °C 0,0 km/h (0 Bft)
04/05/2026 06:28 11,2 °C 10,0 °C 14,4 °C 13,3 °C 12,8 °C 90 % 15 lf 15 lf 6 cb 56 cb 200 cb 1011,8 hPa 0,0 mm 0,0 km/h (0 Bft) NO 304 ° 0 min 0,000 mm 0,0 UV-I 7 W/m² 9,6 °C 11,2 °C 0,0 km/h (0 Bft)
04/05/2026 06:26 11,2 °C 10,0 °C 14,4 °C 13,3 °C 12,8 °C 90 % 15 lf 15 lf 6 cb 56 cb 200 cb 1011,9 hPa 0,0 mm 0,0 km/h (0 Bft) NO 304 ° 0 min 0,000 mm 0,0 UV-I 7 W/m² 9,6 °C 11,2 °C 0,0 km/h (0 Bft)
04/05/2026 06:24 11,2 °C 10,0 °C 14,4 °C 13,3 °C 12,8 °C 91 % 15 lf 15 lf 6 cb 56 cb 200 cb 1011,9 hPa 0,0 mm 0,0 km/h (0 Bft) NO 304 ° 0 min 0,000 mm 0,0 UV-I 5 W/m² 9,8 °C 11,2 °C 0,0 km/h (0 Bft)
04/05/2026 06:22 11,3 °C 10,0 °C 14,4 °C 13,3 °C 12,8 °C 91 % 15 lf 15 lf 6 cb 56 cb 200 cb 1011,9 hPa 0,0 mm 0,0 km/h (0 Bft) NO 304 ° 0 min 0,000 mm 0,0 UV-I 5 W/m² 9,9 °C 11,3 °C 0,0 km/h (0 Bft)
04/05/2026 06:20 11,3 °C 10,0 °C 14,4 °C 13,3 °C 12,8 °C 90 % 15 lf 15 lf 6 cb 56 cb 200 cb 1011,9 hPa 0,0 mm 0,0 km/h (0 Bft) NO 304 ° 0 min 0,000 mm 0,0 UV-I 0 W/m² 9,7 °C 11,3 °C 0,0 km/h (0 Bft)
04/05/2026 06:18 11,3 °C 10,0 °C 14,4 °C 13,3 °C 12,8 °C 90 % 15 lf 15 lf 6 cb 56 cb 200 cb 1012,0 hPa 0,0 mm 0,0 km/h (0 Bft) NO 304 ° 0 min 0,000 mm 0,0 UV-I 0 W/m² 9,7 °C 11,3 °C 0,0 km/h (0 Bft)
04/05/2026 06:16 11,3 °C 10,0 °C 14,4 °C 13,3 °C 12,8 °C 90 % 15 lf 15 lf 6 cb 56 cb 200 cb 1011,9 hPa 0,0 mm 0,1 km/h (0 Bft) NO 304 ° 0 min 0,000 mm 0,0 UV-I 0 W/m² 9,7 °C 11,3 °C 1,6 km/h (1 Bft)
04/05/2026 06:14 11,3 °C 10,0 °C 14,4 °C 13,3 °C 12,8 °C 90 % 15 lf 15 lf 6 cb 56 cb 200 cb 1011,9 hPa 0,0 mm 0,0 km/h (0 Bft) E-SE 120 ° 0 min 0,000 mm 0,0 UV-I 0 W/m² 9,7 °C 11,3 °C 0,0 km/h (0 Bft)
04/05/2026 06:12 11,4 °C 10,0 °C 14,4 °C 13,3 °C 12,8 °C 90 % 15 lf 15 lf 6 cb 56 cb 200 cb 1011,9 hPa 0,0 mm 0,0 km/h (0 Bft) E-SE 120 ° 0 min 0,000 mm 0,0 UV-I 0 W/m² 9,8 °C 11,4 °C 0,0 km/h (0 Bft)
04/05/2026 06:10 11,4 °C 10,0 °C 14,4 °C 13,3 °C 12,8 °C 90 % 15 lf 15 lf 6 cb 56 cb 200 cb 1011,8 hPa 0,0 mm 0,0 km/h (0 Bft) E-SE 120 ° 0 min 0,000 mm 0,0 UV-I 0 W/m² 9,8 °C 11,4 °C 0,0 km/h (0 Bft)
04/05/2026 06:08 11,4 °C 10,0 °C 14,4 °C 13,3 °C 12,8 °C 90 % 15 lf 15 lf 6 cb 56 cb 200 cb 1011,8 hPa 0,0 mm 0,0 km/h (0 Bft) E-SE 120 ° 0 min 0,000 mm 0,0 UV-I 0 W/m² 9,8 °C 11,4 °C 0,0 km/h (0 Bft)
04/05/2026 06:06 11,4 °C 10,0 °C 14,4 °C 13,3 °C 12,8 °C 90 % 15 lf 15 lf 6 cb 56 cb 200 cb 1011,8 hPa 0,0 mm 0,0 km/h (0 Bft) E-SE 120 ° 0 min 0,000 mm 0,0 UV-I 0 W/m² 9,8 °C 11,4 °C 0,0 km/h (0 Bft)
04/05/2026 06:04 11,5 °C 10,0 °C 14,4 °C 13,3 °C 12,8 °C 90 % 15 lf 15 lf 6 cb 56 cb 200 cb 1011,8 hPa 0,0 mm 0,0 km/h (0 Bft) E-SE 120 ° 0 min 0,000 mm 0,0 UV-I 0 W/m² 9,9 °C 11,5 °C 0,0 km/h (0 Bft)
04/05/2026 06:02 11,6 °C 10,0 °C 14,4 °C 13,3 °C 12,8 °C 90 % 15 lf 15 lf 6 cb 56 cb 200 cb 1011,8 hPa 0,0 mm 0,0 km/h (0 Bft) E-SE 120 ° 0 min 0,000 mm 0,0 UV-I 0 W/m² 10,0 °C 11,6 °C 0,0 km/h (0 Bft)
04/05/2026 06:00 11,6 °C 10,0 °C 14,4 °C 13,3 °C 12,8 °C 90 % 15 lf 15 lf 6 cb 56 cb 200 cb 1011,8 hPa 0,0 mm 0,9 km/h (0 Bft) E-SE 120 ° 0 min 0,000 mm 0,0 UV-I 0 W/m² 10,0 °C 11,6 °C 1,6 km/h (1 Bft)
04/05/2026 05:58 11,6 °C 10,0 °C 14,4 °C 13,3 °C 12,8 °C 90 % 15 lf 15 lf 6 cb 56 cb 200 cb 1011,8 hPa 0,0 mm 0,2 km/h (0 Bft) E-SE 120 ° 0 min 0,000 mm 0,0 UV-I 0 W/m² 10,0 °C 11,6 °C 1,6 km/h (1 Bft)
04/05/2026 05:56 11,7 °C 10,0 °C 14,4 °C 13,3 °C 12,8 °C 90 % 15 lf 15 lf 6 cb 56 cb 200 cb 1011,8 hPa 0,0 mm 0,0 km/h (0 Bft) E-SE 120 ° 0 min 0,000 mm 0,0 UV-I 0 W/m² 10,1 °C 11,7 °C 0,0 km/h (0 Bft)
04/05/2026 05:54 11,7 °C 10,6 °C 14,4 °C 13,3 °C 12,8 °C 90 % 15 lf 15 lf 6 cb 56 cb 200 cb 1011,8 hPa 0,0 mm 0,0 km/h (0 Bft) E-SE 120 ° 0 min 0,000 mm 0,0 UV-I 0 W/m² 10,1 °C 11,7 °C 0,0 km/h (0 Bft)
04/05/2026 05:52 11,7 °C 10,6 °C 14,4 °C 13,3 °C 12,8 °C 90 % 15 lf 15 lf 6 cb 56 cb 200 cb 1011,8 hPa 0,0 mm 0,0 km/h (0 Bft) E-SE 120 ° 0 min 0,000 mm 0,0 UV-I 0 W/m² 10,1 °C 11,7 °C 0,0 km/h (0 Bft)
04/05/2026 05:50 11,8 °C 10,6 °C 14,4 °C 13,3 °C 12,8 °C 90 % 15 lf 15 lf 6 cb 56 cb 200 cb 1011,9 hPa 0,0 mm 0,0 km/h (0 Bft) E-SE 120 ° 0 min 0,000 mm 0,0 UV-I 0 W/m² 10,2 °C 11,8 °C 0,0 km/h (0 Bft)
04/05/2026 05:48 11,8 °C 10,6 °C 14,4 °C 13,3 °C 12,8 °C 90 % 15 lf 15 lf 6 cb 56 cb 200 cb 1011,8 hPa 0,0 mm 0,0 km/h (0 Bft) E-SE 120 ° 0 min 0,000 mm 0,0 UV-I 0 W/m² 10,2 °C 11,8 °C 0,0 km/h (0 Bft)
04/05/2026 05:46 11,8 °C 10,6 °C 14,4 °C 13,3 °C 12,8 °C 90 % 15 lf 15 lf 6 cb 56 cb 200 cb 1011,9 hPa 0,0 mm 0,0 km/h (0 Bft) E-SE 120 ° 0 min 0,000 mm 0,0 UV-I 0 W/m² 10,2 °C 11,8 °C 0,0 km/h (0 Bft)
04/05/2026 05:44 11,8 °C 10,6 °C 14,4 °C 13,3 °C 12,8 °C 90 % 15 lf 15 lf 6 cb 56 cb 200 cb 1011,9 hPa 0,0 mm 0,0 km/h (0 Bft) E-SE 120 ° 0 min 0,000 mm 0,0 UV-I 0 W/m² 10,2 °C 11,8 °C 0,0 km/h (0 Bft)
04/05/2026 05:42 11,9 °C 10,6 °C 14,4 °C 13,3 °C 12,8 °C 90 % 15 lf 15 lf 7 cb 56 cb 200 cb 1011,8 hPa 0,0 mm 0,4 km/h (0 Bft) E-SE 120 ° 0 min 0,000 mm 0,0 UV-I 0 W/m² 10,3 °C 11,9 °C 1,6 km/h (1 Bft)
04/05/2026 05:40 11,9 °C 10,6 °C 14,4 °C 13,3 °C 12,8 °C 90 % 15 lf 15 lf 7 cb 56 cb 200 cb 1011,9 hPa 0,0 mm 0,0 km/h (0 Bft) E-SE 120 ° 0 min 0,000 mm 0,0 UV-I 0 W/m² 10,3 °C 11,9 °C 0,0 km/h (0 Bft)
04/05/2026 05:38 12,0 °C 10,6 °C 14,4 °C 13,3 °C 12,8 °C 90 % 15 lf 15 lf 7 cb 56 cb 200 cb 1011,9 hPa 0,0 mm 0,0 km/h (0 Bft) E-SE 120 ° 0 min 0,000 mm 0,0 UV-I 0 W/m² 10,4 °C 12,0 °C 0,0 km/h (0 Bft)
04/05/2026 05:36 12,0 °C 10,6 °C 14,4 °C 13,3 °C 12,8 °C 91 % 15 lf 15 lf 7 cb 56 cb 200 cb 1011,9 hPa 0,0 mm 0,0 km/h (0 Bft) E-SE 120 ° 0 min 0,000 mm 0,0 UV-I 0 W/m² 10,6 °C 12,0 °C 0,0 km/h (0 Bft)
04/05/2026 05:34 12,1 °C 10,6 °C 14,4 °C 13,3 °C 12,8 °C 90 % 15 lf 15 lf 7 cb 56 cb 200 cb 1011,8 hPa 0,0 mm 0,0 km/h (0 Bft) E-SE 120 ° 0 min 0,000 mm 0,0 UV-I 0 W/m² 10,5 °C 12,1 °C 0,0 km/h (0 Bft)
04/05/2026 05:32 12,1 °C 10,6 °C 14,4 °C 13,3 °C 12,8 °C 90 % 15 lf 15 lf 7 cb 56 cb 200 cb 1011,9 hPa 0,0 mm 0,0 km/h (0 Bft) E-SE 120 ° 0 min 0,000 mm 0,0 UV-I 0 W/m² 10,5 °C 12,1 °C 0,0 km/h (0 Bft)
04/05/2026 05:30 12,2 °C 10,6 °C 14,4 °C 13,3 °C 12,8 °C 90 % 15 lf 15 lf 7 cb 56 cb 200 cb 1011,8 hPa 0,0 mm 0,0 km/h (0 Bft) E-SE 120 ° 0 min 0,000 mm 0,0 UV-I 0 W/m² 10,6 °C 12,2 °C 0,0 km/h (0 Bft)
04/05/2026 05:28 12,2 °C 10,6 °C 14,4 °C 13,3 °C 12,8 °C 90 % 15 lf 15 lf 7 cb 56 cb 200 cb 1011,9 hPa 0,0 mm 0,0 km/h (0 Bft) E-SE 120 ° 0 min 0,000 mm 0,0 UV-I 0 W/m² 10,6 °C 12,2 °C 0,0 km/h (0 Bft)
04/05/2026 05:26 12,2 °C 10,6 °C 14,4 °C 13,3 °C 12,8 °C 90 % 15 lf 15 lf 7 cb 56 cb 200 cb 1011,9 hPa 0,0 mm 0,0 km/h (0 Bft) E-SE 120 ° 0 min 0,000 mm 0,0 UV-I 0 W/m² 10,6 °C 12,2 °C 0,0 km/h (0 Bft)
04/05/2026 05:24 12,2 °C 10,6 °C 14,4 °C 13,3 °C 12,8 °C 90 % 15 lf 15 lf 7 cb 56 cb 200 cb 1011,9 hPa 0,0 mm 0,0 km/h (0 Bft) E-SE 120 ° 0 min 0,000 mm 0,0 UV-I 0 W/m² 10,6 °C 12,2 °C 0,0 km/h (0 Bft)
04/05/2026 05:22 12,3 °C 10,6 °C 14,4 °C 13,3 °C 12,8 °C 90 % 15 lf 15 lf 7 cb 56 cb 200 cb 1012,0 hPa 0,0 mm 0,0 km/h (0 Bft) E-SE 120 ° 0 min 0,000 mm 0,0 UV-I 0 W/m² 10,7 °C 12,3 °C 0,0 km/h (0 Bft)
04/05/2026 05:20 12,3 °C 11,1 °C 14,4 °C 13,3 °C 12,8 °C 90 % 15 lf 15 lf 7 cb 56 cb 200 cb 1011,9 hPa 0,0 mm 0,5 km/h (0 Bft) E-SE 120 ° 0 min 0,000 mm 0,0 UV-I 0 W/m² 10,7 °C 12,3 °C 1,6 km/h (1 Bft)
04/05/2026 05:18 12,4 °C 11,1 °C 14,4 °C 13,3 °C 12,8 °C 91 % 15 lf 15 lf 7 cb 56 cb 200 cb 1011,9 hPa 0,0 mm 0,6 km/h (0 Bft) E-SE 120 ° 0 min 0,000 mm 0,0 UV-I 0 W/m² 11,0 °C 12,4 °C 3,2 km/h (1 Bft)
04/05/2026 05:16 12,4 °C 11,1 °C 14,4 °C 13,3 °C 12,8 °C 91 % 15 lf 15 lf 7 cb 56 cb 200 cb 1011,9 hPa 0,0 mm 0,1 km/h (0 Bft) E-SE 120 ° 0 min 0,000 mm 0,0 UV-I 0 W/m² 11,0 °C 12,4 °C 1,6 km/h (1 Bft)
04/05/2026 05:14 12,4 °C 11,1 °C 14,4 °C 13,3 °C 12,8 °C 91 % 15 lf 15 lf 7 cb 56 cb 200 cb 1011,9 hPa 0,0 mm 0,0 km/h (0 Bft) E-SE 120 ° 0 min 0,000 mm 0,0 UV-I 0 W/m² 11,0 °C 12,4 °C 0,0 km/h (0 Bft)
04/05/2026 05:12 12,5 °C 11,1 °C 14,4 °C 13,3 °C 12,8 °C 91 % 15 lf 15 lf 7 cb 56 cb 200 cb 1011,9 hPa 0,0 mm 0,8 km/h (0 Bft) E-SE 120 ° 0 min 0,000 mm 0,0 UV-I 0 W/m² 11,1 °C 12,5 °C 1,6 km/h (1 Bft)
04/05/2026 05:10 12,6 °C 11,1 °C 14,4 °C 13,3 °C 12,8 °C 91 % 15 lf 15 lf 7 cb 56 cb 200 cb 1011,8 hPa 0,0 mm 0,4 km/h (0 Bft) E-SE 120 ° 0 min 0,000 mm 0,0 UV-I 0 W/m² 11,2 °C 12,6 °C 1,6 km/h (1 Bft)
04/05/2026 05:08 12,6 °C 11,1 °C 14,4 °C 13,3 °C 12,8 °C 90 % 15 lf 15 lf 7 cb 56 cb 200 cb 1011,9 hPa 0,0 mm 0,0 km/h (0 Bft) E-SE 120 ° 0 min 0,000 mm 0,0 UV-I 0 W/m² 11,0 °C 12,6 °C 0,0 km/h (0 Bft)
04/05/2026 05:06 12,6 °C 11,1 °C 14,4 °C 13,3 °C 12,8 °C 90 % 15 lf 15 lf 7 cb 56 cb 200 cb 1011,9 hPa 0,0 mm 0,0 km/h (0 Bft) E-SE 120 ° 0 min 0,000 mm 0,0 UV-I 0 W/m² 11,0 °C 12,6 °C 0,0 km/h (0 Bft)
04/05/2026 05:04 12,6 °C 11,1 °C 14,4 °C 13,3 °C 12,8 °C 90 % 15 lf 15 lf 7 cb 56 cb 200 cb 1011,8 hPa 0,0 mm 0,0 km/h (0 Bft) E-SE 120 ° 0 min 0,000 mm 0,0 UV-I 0 W/m² 11,0 °C 12,6 °C 0,0 km/h (0 Bft)
04/05/2026 05:02 12,7 °C 11,1 °C 14,4 °C 13,3 °C 12,8 °C 90 % 15 lf 15 lf 7 cb 56 cb 200 cb 1011,8 hPa 0,0 mm 0,0 km/h (0 Bft) E-SE 120 ° 0 min 0,000 mm 0,0 UV-I 0 W/m² 11,1 °C 12,7 °C 0,0 km/h (0 Bft)
04/05/2026 05:00 12,7 °C 11,1 °C 14,4 °C 13,3 °C 12,8 °C 90 % 15 lf 15 lf 7 cb 56 cb 200 cb 1011,8 hPa 0,0 mm 0,0 km/h (0 Bft) E-SE 120 ° 0 min 0,000 mm 0,0 UV-I 0 W/m² 11,1 °C 12,7 °C 0,0 km/h (0 Bft)
04/05/2026 04:58 12,7 °C 11,1 °C 14,4 °C 13,3 °C 12,8 °C 91 % 15 lf 15 lf 7 cb 56 cb 200 cb 1011,9 hPa 0,0 mm 0,0 km/h (0 Bft) E-SE 120 ° 0 min 0,000 mm 0,0 UV-I 0 W/m² 11,3 °C 12,7 °C 0,0 km/h (0 Bft)
04/05/2026 04:56 12,8 °C 11,1 °C 14,4 °C 13,3 °C 12,8 °C 91 % 15 lf 15 lf 7 cb 56 cb 200 cb 1011,9 hPa 0,0 mm 0,0 km/h (0 Bft) E-SE 120 ° 0 min 0,000 mm 0,0 UV-I 0 W/m² 11,4 °C 12,8 °C 0,0 km/h (0 Bft)
04/05/2026 04:54 12,8 °C 11,1 °C 14,4 °C 13,3 °C 12,8 °C 91 % 15 lf 15 lf 7 cb 56 cb 200 cb 1011,8 hPa 0,0 mm 0,0 km/h (0 Bft) E-SE 120 ° 0 min 0,000 mm 0,0 UV-I 0 W/m² 11,4 °C 12,8 °C 0,0 km/h (0 Bft)
04/05/2026 04:52 12,8 °C 11,1 °C 14,4 °C 13,3 °C 12,8 °C 91 % 15 lf 15 lf 7 cb 56 cb 200 cb 1011,8 hPa 0,0 mm 0,2 km/h (0 Bft) E-SE 120 ° 0 min 0,000 mm 0,0 UV-I 0 W/m² 11,4 °C 12,8 °C 1,6 km/h (1 Bft)
04/05/2026 04:50 12,9 °C 11,1 °C 14,4 °C 13,3 °C 12,8 °C 91 % 15 lf 15 lf 7 cb 56 cb 200 cb 1011,8 hPa 0,0 mm 0,0 km/h (0 Bft) E-SE 120 ° 0 min 0,000 mm 0,0 UV-I 0 W/m² 11,5 °C 12,9 °C 0,0 km/h (0 Bft)
04/05/2026 04:48 12,9 °C 11,7 °C 14,4 °C 13,3 °C 12,8 °C 91 % 15 lf 15 lf 7 cb 56 cb 200 cb 1011,8 hPa 0,0 mm 0,0 km/h (0 Bft) E-SE 120 ° 0 min 0,000 mm 0,0 UV-I 0 W/m² 11,5 °C 12,9 °C 0,0 km/h (0 Bft)
04/05/2026 04:46 12,9 °C 11,7 °C 14,4 °C 13,3 °C 12,8 °C 90 % 15 lf 15 lf 7 cb 56 cb 200 cb 1011,7 hPa 0,0 mm 0,0 km/h (0 Bft) E-SE 120 ° 0 min 0,000 mm 0,0 UV-I 0 W/m² 11,3 °C 12,9 °C 0,0 km/h (0 Bft)
04/05/2026 04:44 13,0 °C 11,7 °C 14,4 °C 13,3 °C 12,8 °C 90 % 15 lf 15 lf 7 cb 56 cb 200 cb 1011,7 hPa 0,0 mm 0,0 km/h (0 Bft) E-SE 120 ° 0 min 0,000 mm 0,0 UV-I 0 W/m² 11,4 °C 13,0 °C 0,0 km/h (0 Bft)
04/05/2026 04:42 13,0 °C 11,7 °C 14,4 °C 13,3 °C 12,8 °C 90 % 15 lf 15 lf 7 cb 56 cb 200 cb 1011,7 hPa 0,0 mm 0,0 km/h (0 Bft) E-SE 120 ° 0 min 0,000 mm 0,0 UV-I 0 W/m² 11,4 °C 13,0 °C 0,0 km/h (0 Bft)
04/05/2026 04:40 13,1 °C 11,7 °C 14,4 °C 13,3 °C 12,8 °C 90 % 15 lf 15 lf 7 cb 56 cb 200 cb 1011,6 hPa 0,0 mm 0,1 km/h (0 Bft) E-SE 120 ° 0 min 0,000 mm 0,0 UV-I 0 W/m² 11,5 °C 13,1 °C 1,6 km/h (1 Bft)
04/05/2026 04:38 13,1 °C 11,7 °C 14,4 °C 13,3 °C 12,8 °C 90 % 15 lf 15 lf 7 cb 56 cb 200 cb 1011,5 hPa 0,0 mm 0,0 km/h (0 Bft) E-SE 120 ° 0 min 0,000 mm 0,0 UV-I 0 W/m² 11,5 °C 13,1 °C 1,6 km/h (1 Bft)
04/05/2026 04:36 13,1 °C 11,7 °C 14,4 °C 13,3 °C 12,8 °C 91 % 15 lf 15 lf 7 cb 56 cb 200 cb 1011,4 hPa 0,0 mm 0,0 km/h (0 Bft) E-SE 120 ° 0 min 0,000 mm 0,0 UV-I 0 W/m² 11,7 °C 13,1 °C 1,6 km/h (1 Bft)
04/05/2026 04:34 13,1 °C 11,7 °C 14,4 °C 13,3 °C 12,8 °C 91 % 15 lf 15 lf 6 cb 56 cb 200 cb 1011,4 hPa 0,0 mm 0,0 km/h (0 Bft) E-SE 120 ° 0 min 0,000 mm 0,0 UV-I 0 W/m² 11,7 °C 13,1 °C 0,0 km/h (0 Bft)
04/05/2026 04:32 13,2 °C 11,7 °C 14,4 °C 13,3 °C 12,8 °C 91 % 15 lf 15 lf 6 cb 56 cb 200 cb 1011,5 hPa 0,0 mm 0,2 km/h (0 Bft) E-SE 120 ° 0 min 0,000 mm 0,0 UV-I 0 W/m² 11,8 °C 13,2 °C 1,6 km/h (1 Bft)
04/05/2026 04:30 13,2 °C 11,7 °C 14,4 °C 13,3 °C 12,8 °C 91 % 15 lf 15 lf 6 cb 56 cb 200 cb 1011,4 hPa 0,0 mm 0,6 km/h (0 Bft) E-SE 120 ° 0 min 0,000 mm 0,0 UV-I 0 W/m² 11,8 °C 13,2 °C 1,6 km/h (1 Bft)
04/05/2026 04:28 13,2 °C 11,7 °C 14,4 °C 13,3 °C 12,8 °C 91 % 15 lf 15 lf 6 cb 56 cb 200 cb 1011,4 hPa 0,0 mm 0,4 km/h (0 Bft) E-SE 120 ° 0 min 0,000 mm 0,0 UV-I 0 W/m² 11,8 °C 13,2 °C 1,6 km/h (1 Bft)
04/05/2026 04:26 13,3 °C 11,7 °C 14,4 °C 13,3 °C 12,8 °C 91 % 15 lf 15 lf 6 cb 56 cb 200 cb 1011,4 hPa 0,0 mm 0,3 km/h (0 Bft) E-SE 120 ° 0 min 0,000 mm 0,0 UV-I 0 W/m² 11,9 °C 13,3 °C 1,6 km/h (1 Bft)
04/05/2026 04:24 13,3 °C 12,2 °C 14,4 °C 13,3 °C 12,8 °C 91 % 15 lf 15 lf 6 cb 56 cb 200 cb 1011,4 hPa 0,0 mm 0,0 km/h (0 Bft) E-SE 120 ° 0 min 0,000 mm 0,0 UV-I 0 W/m² 11,9 °C 13,3 °C 0,0 km/h (0 Bft)
04/05/2026 04:22 13,3 °C 12,2 °C 14,4 °C 13,3 °C 12,8 °C 91 % 15 lf 15 lf 6 cb 56 cb 200 cb 1011,5 hPa 0,0 mm 0,0 km/h (0 Bft) E-SE 120 ° 0 min 0,000 mm 0,0 UV-I 0 W/m² 11,9 °C 13,3 °C 0,0 km/h (0 Bft)
04/05/2026 04:20 13,4 °C 12,2 °C 14,4 °C 13,3 °C 12,8 °C 91 % 15 lf 15 lf 6 cb 56 cb 200 cb 1011,4 hPa 0,0 mm 0,3 km/h (0 Bft) E-SE 120 ° 0 min 0,000 mm 0,0 UV-I 0 W/m² 12,0 °C 13,4 °C 3,2 km/h (1 Bft)
04/05/2026 04:18 13,4 °C 12,2 °C 14,4 °C 13,3 °C 12,8 °C 91 % 15 lf 15 lf 6 cb 56 cb 200 cb 1011,4 hPa 0,0 mm 0,3 km/h (0 Bft) E-SE 120 ° 0 min 0,000 mm 0,0 UV-I 0 W/m² 12,0 °C 13,4 °C 3,2 km/h (1 Bft)
04/05/2026 04:16 13,4 °C 12,2 °C 14,4 °C 13,3 °C 12,8 °C 91 % 15 lf 15 lf 6 cb 56 cb 200 cb 1011,4 hPa 0,0 mm 0,3 km/h (0 Bft) E-SE 120 ° 0 min 0,000 mm 0,0 UV-I 0 W/m² 12,0 °C 13,4 °C 1,6 km/h (1 Bft)
04/05/2026 04:14 13,4 °C 12,2 °C 14,4 °C 13,3 °C 12,8 °C 91 % 15 lf 15 lf 6 cb 56 cb 200 cb 1011,4 hPa 0,0 mm 0,3 km/h (0 Bft) E-SE 120 ° 0 min 0,000 mm 0,0 UV-I 0 W/m² 12,0 °C 13,4 °C 1,6 km/h (1 Bft)
04/05/2026 04:12 13,4 °C 12,2 °C 14,4 °C 13,3 °C 12,8 °C 91 % 15 lf 15 lf 6 cb 56 cb 200 cb 1011,3 hPa 0,0 mm 0,1 km/h (0 Bft) E-SE 120 ° 0 min 0,000 mm 0,0 UV-I 0 W/m² 12,0 °C 13,4 °C 1,6 km/h (1 Bft)
04/05/2026 04:10 13,5 °C 12,2 °C 14,4 °C 13,3 °C 12,8 °C 91 % 15 lf 15 lf 6 cb 56 cb 200 cb 1011,3 hPa 0,0 mm 0,3 km/h (0 Bft) E-SE 120 ° 0 min 0,000 mm 0,0 UV-I 0 W/m² 12,1 °C 13,5 °C 1,6 km/h (1 Bft)
04/05/2026 04:08 13,5 °C 12,8 °C 14,4 °C 13,3 °C 12,8 °C 90 % 15 lf 15 lf 6 cb 55 cb 200 cb 1011,3 hPa 0,0 mm 0,6 km/h (0 Bft) E-SE 120 ° 0 min 0,000 mm 0,0 UV-I 0 W/m² 11,9 °C 13,5 °C 3,2 km/h (1 Bft)
04/05/2026 04:06 13,5 °C 12,8 °C 14,4 °C 13,3 °C 12,8 °C 91 % 15 lf 15 lf 6 cb 55 cb 200 cb 1011,3 hPa 0,0 mm 2,1 km/h (1 Bft) E-SE 120 ° 0 min 0,000 mm 0,0 UV-I 0 W/m² 12,1 °C 13,5 °C 4,8 km/h (1 Bft)
04/05/2026 04:04 13,6 °C 12,8 °C 14,4 °C 13,3 °C 12,8 °C 91 % 15 lf 15 lf 6 cb 55 cb 200 cb 1011,4 hPa 0,0 mm 1,9 km/h (1 Bft) E-SE 121 ° 0 min 0,000 mm 0,0 UV-I 0 W/m² 12,2 °C 13,6 °C 4,8 km/h (1 Bft)
04/05/2026 04:02 13,6 °C 12,8 °C 14,4 °C 13,3 °C 12,8 °C 91 % 15 lf 15 lf 6 cb 55 cb 200 cb 1011,4 hPa 0,0 mm 1,3 km/h (1 Bft) E-SE 121 ° 0 min 0,000 mm 0,0 UV-I 0 W/m² 12,2 °C 13,6 °C 3,2 km/h (1 Bft)
04/05/2026 04:00 13,6 °C 12,8 °C 14,4 °C 13,3 °C 12,8 °C 91 % 15 lf 15 lf 6 cb 55 cb 200 cb 1011,4 hPa 0,0 mm 0,8 km/h (0 Bft) E-SE 121 ° 0 min 0,000 mm 0,0 UV-I 0 W/m² 12,2 °C 13,6 °C 3,2 km/h (1 Bft)
04/05/2026 03:58 13,6 °C 12,8 °C 14,4 °C 13,3 °C 12,8 °C 91 % 15 lf 15 lf 6 cb 55 cb 200 cb 1011,5 hPa 0,0 mm 1,2 km/h (1 Bft) E-SE 121 ° 0 min 0,000 mm 0,0 UV-I 0 W/m² 12,2 °C 13,6 °C 4,8 km/h (1 Bft)
04/05/2026 03:56 13,6 °C 12,8 °C 14,4 °C 13,3 °C 12,8 °C 91 % 15 lf 15 lf 6 cb 55 cb 200 cb 1011,5 hPa 0,0 mm 1,0 km/h (0 Bft) E-SE 121 ° 0 min 0,000 mm 0,0 UV-I 0 W/m² 12,2 °C 13,6 °C 3,2 km/h (1 Bft)
04/05/2026 03:54 13,6 °C 12,8 °C 14,4 °C 13,3 °C 12,8 °C 91 % 15 lf 15 lf 6 cb 55 cb 200 cb 1011,5 hPa 0,0 mm 0,7 km/h (0 Bft) E-SE 121 ° 0 min 0,000 mm 0,0 UV-I 0 W/m² 12,2 °C 13,6 °C 3,2 km/h (1 Bft)
04/05/2026 03:52 13,7 °C 12,8 °C 14,4 °C 13,3 °C 12,8 °C 91 % 15 lf 15 lf 6 cb 55 cb 200 cb 1011,5 hPa 0,0 mm 1,8 km/h (1 Bft) E-SE 121 ° 0 min 0,000 mm 0,0 UV-I 0 W/m² 12,3 °C 13,7 °C 3,2 km/h (1 Bft)
04/05/2026 03:50 13,6 °C 12,8 °C 14,4 °C 13,3 °C 12,8 °C 91 % 15 lf 15 lf 6 cb 55 cb 200 cb 1011,5 hPa 0,0 mm 1,7 km/h (1 Bft) E-SE 121 ° 0 min 0,000 mm 0,0 UV-I 0 W/m² 12,2 °C 13,6 °C 4,8 km/h (1 Bft)
04/05/2026 03:48 13,6 °C 12,8 °C 14,4 °C 13,3 °C 12,8 °C 91 % 15 lf 15 lf 6 cb 55 cb 200 cb 1011,5 hPa 0,0 mm 1,1 km/h (1 Bft) E-SE 121 ° 0 min 0,000 mm 0,0 UV-I 0 W/m² 12,2 °C 13,6 °C 3,2 km/h (1 Bft)
04/05/2026 03:46 13,6 °C 12,8 °C 14,4 °C 13,3 °C 12,8 °C 91 % 15 lf 15 lf 6 cb 55 cb 200 cb 1011,5 hPa 0,0 mm 0,8 km/h (0 Bft) E-SE 121 ° 0 min 0,000 mm 0,0 UV-I 0 W/m² 12,2 °C 13,6 °C 3,2 km/h (1 Bft)
04/05/2026 03:44 13,6 °C 12,8 °C 14,4 °C 13,3 °C 12,8 °C 91 % 15 lf 15 lf 6 cb 55 cb 200 cb 1011,5 hPa 0,0 mm 0,4 km/h (0 Bft) E-SE 121 ° 0 min 0,000 mm 0,0 UV-I 0 W/m² 12,2 °C 13,6 °C 3,2 km/h (1 Bft)
04/05/2026 03:42 13,6 °C 12,8 °C 14,4 °C 13,3 °C 12,8 °C 91 % 15 lf 15 lf 6 cb 55 cb 200 cb 1011,5 hPa 0,0 mm 0,7 km/h (0 Bft) E-SE 121 ° 0 min 0,000 mm 0,0 UV-I 0 W/m² 12,2 °C 13,6 °C 1,6 km/h (1 Bft)
04/05/2026 03:40 13,6 °C 12,8 °C 14,4 °C 13,3 °C 12,8 °C 90 % 15 lf 15 lf 6 cb 55 cb 200 cb 1011,5 hPa 0,0 mm 0,1 km/h (0 Bft) E-SE 121 ° 0 min 0,000 mm 0,0 UV-I 0 W/m² 12,0 °C 13,6 °C 1,6 km/h (1 Bft)
04/05/2026 03:38 13,6 °C 12,8 °C 14,4 °C 13,3 °C 12,8 °C 91 % 15 lf 15 lf 6 cb 55 cb 200 cb 1011,5 hPa 0,0 mm 1,1 km/h (1 Bft) E-SE 121 ° 0 min 0,000 mm 0,0 UV-I 0 W/m² 12,2 °C 13,6 °C 3,2 km/h (1 Bft)
04/05/2026 03:36 13,6 °C 12,8 °C 14,4 °C 13,3 °C 12,8 °C 90 % 15 lf 15 lf 6 cb 55 cb 200 cb 1011,5 hPa 0,0 mm 1,6 km/h (1 Bft) E-SE 121 ° 0 min 0,000 mm 0,0 UV-I 0 W/m² 12,0 °C 13,6 °C 4,8 km/h (1 Bft)
04/05/2026 03:34 13,6 °C 12,8 °C 14,4 °C 13,3 °C 12,8 °C 90 % 15 lf 15 lf 6 cb 55 cb 200 cb 1011,5 hPa 0,0 mm 0,7 km/h (0 Bft) E-SE 121 ° 0 min 0,000 mm 0,0 UV-I 0 W/m² 12,0 °C 13,6 °C 1,6 km/h (1 Bft)
04/05/2026 03:32 13,5 °C 12,8 °C 14,4 °C 13,3 °C 12,8 °C 90 % 15 lf 15 lf 6 cb 55 cb 200 cb 1011,5 hPa 0,0 mm 0,5 km/h (0 Bft) E-SE 121 ° 0 min 0,000 mm 0,0 UV-I 0 W/m² 11,9 °C 13,5 °C 1,6 km/h (1 Bft)
04/05/2026 03:30 13,5 °C 12,8 °C 14,4 °C 13,3 °C 12,8 °C 90 % 15 lf 15 lf 6 cb 55 cb 200 cb 1011,5 hPa 0,0 mm 0,7 km/h (0 Bft) E-SE 121 ° 0 min 0,000 mm 0,0 UV-I 0 W/m² 11,9 °C 13,5 °C 3,2 km/h (1 Bft)
04/05/2026 03:28 13,5 °C 12,8 °C 14,4 °C 13,3 °C 12,8 °C 90 % 15 lf 15 lf 6 cb 55 cb 200 cb 1011,5 hPa 0,0 mm 0,9 km/h (0 Bft) E-SE 121 ° 0 min 0,000 mm 0,0 UV-I 0 W/m² 11,9 °C 13,5 °C 3,2 km/h (1 Bft)
04/05/2026 03:26 13,5 °C 12,8 °C 14,4 °C 13,3 °C 12,8 °C 90 % 15 lf 15 lf 6 cb 55 cb 200 cb 1011,5 hPa 0,0 mm 0,6 km/h (0 Bft) E-SE 121 ° 0 min 0,000 mm 0,0 UV-I 0 W/m² 11,9 °C 13,5 °C 3,2 km/h (1 Bft)
04/05/2026 03:24 13,5 °C 12,8 °C 14,4 °C 13,3 °C 12,8 °C 90 % 15 lf 15 lf 6 cb 55 cb 200 cb 1011,5 hPa 0,0 mm 0,8 km/h (0 Bft) E-SE 121 ° 0 min 0,000 mm 0,0 UV-I 0 W/m² 11,9 °C 13,5 °C 3,2 km/h (1 Bft)
04/05/2026 03:22 13,5 °C 12,8 °C 14,4 °C 13,3 °C 12,8 °C 90 % 15 lf 15 lf 6 cb 55 cb 200 cb 1011,4 hPa 0,0 mm 0,0 km/h (0 Bft) E-SE 121 ° 0 min 0,000 mm 0,0 UV-I 0 W/m² 11,9 °C 13,5 °C 0,0 km/h (0 Bft)
04/05/2026 03:20 13,5 °C 12,8 °C 14,4 °C 13,3 °C 12,8 °C 90 % 15 lf 15 lf 6 cb 55 cb 200 cb 1011,4 hPa 0,0 mm 0,0 km/h (0 Bft) E-SE 121 ° 0 min 0,000 mm 0,0 UV-I 0 W/m² 11,9 °C 13,5 °C 0,0 km/h (0 Bft)
04/05/2026 03:18 13,5 °C 12,8 °C 14,4 °C 13,3 °C 12,8 °C 90 % 15 lf 15 lf 6 cb 55 cb 200 cb 1011,4 hPa 0,0 mm 0,0 km/h (0 Bft) E-SE 121 ° 0 min 0,000 mm 0,0 UV-I 0 W/m² 11,9 °C 13,5 °C 0,0 km/h (0 Bft)
04/05/2026 03:16 13,5 °C 12,8 °C 14,4 °C 13,3 °C 12,8 °C 90 % 15 lf 15 lf 6 cb 55 cb 200 cb 1011,5 hPa 0,0 mm 0,0 km/h (0 Bft) E-SE 121 ° 0 min 0,000 mm 0,0 UV-I 0 W/m² 11,9 °C 13,5 °C 0,0 km/h (0 Bft)
04/05/2026 03:14 13,5 °C 12,8 °C 14,4 °C 13,3 °C 12,8 °C 90 % 15 lf 15 lf 6 cb 55 cb 200 cb 1011,5 hPa 0,0 mm 0,0 km/h (0 Bft) E-SE 121 ° 0 min 0,000 mm 0,0 UV-I 0 W/m² 11,9 °C 13,5 °C 1,6 km/h (1 Bft)
04/05/2026 03:12 13,5 °C 12,8 °C 14,4 °C 13,3 °C 12,8 °C 90 % 15 lf 15 lf 6 cb 55 cb 200 cb 1011,5 hPa 0,0 mm 0,9 km/h (0 Bft) E-SE 121 ° 0 min 0,000 mm 0,0 UV-I 0 W/m² 11,9 °C 13,5 °C 1,6 km/h (1 Bft)
04/05/2026 03:10 13,5 °C 12,8 °C 14,4 °C 13,3 °C 12,8 °C 90 % 15 lf 15 lf 6 cb 55 cb 200 cb 1011,5 hPa 0,0 mm 0,4 km/h (0 Bft) E-SE 121 ° 0 min 0,000 mm 0,0 UV-I 0 W/m² 11,9 °C 13,5 °C 1,6 km/h (1 Bft)
04/05/2026 03:08 13,6 °C 12,8 °C 14,4 °C 13,3 °C 12,8 °C 90 % 15 lf 15 lf 6 cb 55 cb 200 cb 1011,5 hPa 0,0 mm 1,1 km/h (1 Bft) E-SE 121 ° 0 min 0,000 mm 0,0 UV-I 0 W/m² 12,0 °C 13,6 °C 3,2 km/h (1 Bft)
04/05/2026 03:06 13,6 °C 12,8 °C 14,4 °C 13,3 °C 12,8 °C 90 % 15 lf 15 lf 6 cb 55 cb 200 cb 1011,5 hPa 0,0 mm 0,7 km/h (0 Bft) E-SE 121 ° 0 min 0,000 mm 0,0 UV-I 0 W/m² 12,0 °C 13,6 °C 1,6 km/h (1 Bft)
04/05/2026 03:04 13,6 °C 12,8 °C 14,4 °C 13,3 °C 12,8 °C 90 % 15 lf 15 lf 6 cb 55 cb 200 cb 1011,5 hPa 0,0 mm 0,7 km/h (0 Bft) E-SE 121 ° 0 min 0,000 mm 0,0 UV-I 0 W/m² 12,0 °C 13,6 °C 1,6 km/h (1 Bft)
04/05/2026 03:02 13,6 °C 12,8 °C 14,4 °C 13,3 °C 12,8 °C 90 % 15 lf 15 lf 6 cb 55 cb 200 cb 1011,4 hPa 0,0 mm 0,6 km/h (0 Bft) E-SE 121 ° 0 min 0,000 mm 0,0 UV-I 0 W/m² 12,0 °C 13,6 °C 1,6 km/h (1 Bft)
04/05/2026 03:00 13,6 °C 12,8 °C 14,4 °C 13,3 °C 12,8 °C 90 % 15 lf 15 lf 6 cb 55 cb 200 cb 1011,5 hPa 0,0 mm 0,9 km/h (0 Bft) E-SE 121 ° 0 min 0,000 mm 0,0 UV-I 0 W/m² 12,0 °C 13,6 °C 1,6 km/h (1 Bft)
04/05/2026 02:58 13,6 °C 12,8 °C 14,4 °C 13,3 °C 12,8 °C 90 % 15 lf 15 lf 6 cb 55 cb 200 cb 1011,4 hPa 0,0 mm 0,0 km/h (0 Bft) E-SE 121 ° 0 min 0,000 mm 0,0 UV-I 0 W/m² 12,0 °C 13,6 °C 1,6 km/h (1 Bft)
04/05/2026 02:56 13,6 °C 12,8 °C 14,4 °C 13,3 °C 12,8 °C 90 % 15 lf 15 lf 6 cb 55 cb 200 cb 1011,5 hPa 0,0 mm 0,2 km/h (0 Bft) E-SE 121 ° 0 min 0,000 mm 0,0 UV-I 0 W/m² 12,0 °C 13,6 °C 1,6 km/h (1 Bft)
04/05/2026 02:54 13,6 °C 12,8 °C 14,4 °C 13,3 °C 12,8 °C 90 % 15 lf 15 lf 6 cb 55 cb 200 cb 1011,4 hPa 0,0 mm 1,0 km/h (0 Bft) E-SE 121 ° 0 min 0,000 mm 0,0 UV-I 0 W/m² 12,0 °C 13,6 °C 1,6 km/h (1 Bft)
04/05/2026 02:52 13,6 °C 12,8 °C 14,4 °C 13,3 °C 12,8 °C 90 % 15 lf 15 lf 6 cb 55 cb 200 cb 1011,4 hPa 0,0 mm 1,8 km/h (1 Bft) E-SE 121 ° 0 min 0,000 mm 0,0 UV-I 0 W/m² 12,0 °C 13,6 °C 3,2 km/h (1 Bft)
04/05/2026 02:50 13,6 °C 12,8 °C 14,4 °C 13,3 °C 12,8 °C 90 % 15 lf 15 lf 6 cb 55 cb 200 cb 1011,4 hPa 0,0 mm 0,8 km/h (0 Bft) E-SE 121 ° 0 min 0,000 mm 0,0 UV-I 0 W/m² 12,0 °C 13,6 °C 1,6 km/h (1 Bft)
04/05/2026 02:48 13,6 °C 12,8 °C 14,4 °C 13,3 °C 12,8 °C 90 % 15 lf 15 lf 6 cb 55 cb 200 cb 1011,4 hPa 0,0 mm 0,2 km/h (0 Bft) E-SE 121 ° 0 min 0,000 mm 0,0 UV-I 0 W/m² 12,0 °C 13,6 °C 1,6 km/h (1 Bft)
04/05/2026 02:46 13,6 °C 12,8 °C 14,4 °C 13,3 °C 12,8 °C 90 % 15 lf 15 lf 6 cb 55 cb 200 cb 1011,4 hPa 0,0 mm 0,3 km/h (0 Bft) E-SE 121 ° 0 min 0,000 mm 0,0 UV-I 0 W/m² 12,0 °C 13,6 °C 1,6 km/h (1 Bft)
04/05/2026 02:44 13,6 °C 12,8 °C 14,4 °C 13,3 °C 12,8 °C 90 % 15 lf 15 lf 6 cb 55 cb 200 cb 1011,4 hPa 0,0 mm 0,2 km/h (0 Bft) E-SE 121 ° 0 min 0,000 mm 0,0 UV-I 0 W/m² 12,0 °C 13,6 °C 1,6 km/h (1 Bft)
04/05/2026 02:42 13,7 °C 12,8 °C 14,4 °C 13,3 °C 12,8 °C 90 % 15 lf 15 lf 6 cb 55 cb 200 cb 1011,5 hPa 0,0 mm 1,5 km/h (1 Bft) E-SE 121 ° 0 min 0,000 mm 0,0 UV-I 0 W/m² 12,1 °C 13,7 °C 3,2 km/h (1 Bft)
04/05/2026 02:40 13,7 °C 12,8 °C 14,4 °C 13,3 °C 12,8 °C 90 % 15 lf 15 lf 6 cb 55 cb 200 cb 1011,5 hPa 0,0 mm 1,2 km/h (1 Bft) E-SE 121 ° 0 min 0,000 mm 0,0 UV-I 0 W/m² 12,1 °C 13,7 °C 3,2 km/h (1 Bft)
04/05/2026 02:38 13,7 °C 12,8 °C 14,4 °C 13,3 °C 12,8 °C 90 % 15 lf 15 lf 6 cb 55 cb 200 cb 1011,5 hPa 0,0 mm 0,6 km/h (0 Bft) E-SE 121 ° 0 min 0,000 mm 0,0 UV-I 0 W/m² 12,1 °C 13,7 °C 1,6 km/h (1 Bft)
04/05/2026 02:36 13,7 °C 12,8 °C 14,4 °C 13,3 °C 12,8 °C 90 % 15 lf 15 lf 6 cb 55 cb 200 cb 1011,5 hPa 0,0 mm 0,3 km/h (0 Bft) E-SE 121 ° 0 min 0,000 mm 0,0 UV-I 0 W/m² 12,1 °C 13,7 °C 1,6 km/h (1 Bft)
04/05/2026 02:34 13,7 °C 12,8 °C 14,4 °C 13,3 °C 12,8 °C 90 % 15 lf 15 lf 6 cb 55 cb 200 cb 1011,5 hPa 0,0 mm 0,2 km/h (0 Bft) E-SE 121 ° 0 min 0,000 mm 0,0 UV-I 0 W/m² 12,1 °C 13,7 °C 1,6 km/h (1 Bft)
04/05/2026 02:32 13,8 °C 12,8 °C 14,4 °C 13,3 °C 12,8 °C 90 % 15 lf 15 lf 6 cb 55 cb 200 cb 1011,4 hPa 0,0 mm 1,1 km/h (1 Bft) E-SE 121 ° 0 min 0,000 mm 0,0 UV-I 0 W/m² 12,2 °C 13,8 °C 3,2 km/h (1 Bft)
04/05/2026 02:30 13,8 °C 12,8 °C 14,4 °C 13,3 °C 12,8 °C 90 % 15 lf 15 lf 6 cb 55 cb 200 cb 1011,4 hPa 0,0 mm 0,9 km/h (0 Bft) E-SE 121 ° 0 min 0,000 mm 0,0 UV-I 0 W/m² 12,2 °C 13,8 °C 3,2 km/h (1 Bft)
04/05/2026 02:28 13,8 °C 12,8 °C 14,4 °C 13,3 °C 12,8 °C 90 % 15 lf 15 lf 6 cb 55 cb 200 cb 1011,4 hPa 0,0 mm 0,2 km/h (0 Bft) E-SE 121 ° 0 min 0,000 mm 0,0 UV-I 0 W/m² 12,2 °C 13,8 °C 1,6 km/h (1 Bft)
04/05/2026 02:26 13,8 °C 12,8 °C 14,4 °C 13,3 °C 12,8 °C 90 % 15 lf 15 lf 6 cb 55 cb 200 cb 1011,4 hPa 0,0 mm 0,0 km/h (0 Bft) E-SE 121 ° 0 min 0,000 mm 0,0 UV-I 0 W/m² 12,2 °C 13,8 °C 0,0 km/h (0 Bft)
04/05/2026 02:24 13,8 °C 12,8 °C 14,4 °C 13,3 °C 12,8 °C 90 % 15 lf 15 lf 6 cb 55 cb 200 cb 1011,4 hPa 0,0 mm 0,2 km/h (0 Bft) E-SE 121 ° 0 min 0,000 mm 0,0 UV-I 0 W/m² 12,2 °C 13,8 °C 1,6 km/h (1 Bft)
04/05/2026 02:22 13,8 °C 12,8 °C 14,4 °C 13,3 °C 12,8 °C 90 % 15 lf 15 lf 6 cb 55 cb 200 cb 1011,4 hPa 0,0 mm 0,0 km/h (0 Bft) E-SE 121 ° 0 min 0,000 mm 0,0 UV-I 0 W/m² 12,2 °C 13,8 °C 0,0 km/h (0 Bft)
04/05/2026 02:20 13,8 °C 12,8 °C 14,4 °C 13,3 °C 12,8 °C 90 % 15 lf 15 lf 6 cb 55 cb 200 cb 1011,4 hPa 0,0 mm 0,0 km/h (0 Bft) E-SE 121 ° 0 min 0,000 mm 0,0 UV-I 0 W/m² 12,2 °C 13,8 °C 1,6 km/h (1 Bft)
04/05/2026 02:18 13,8 °C 12,8 °C 14,4 °C 13,3 °C 12,8 °C 90 % 15 lf 15 lf 6 cb 55 cb 200 cb 1011,4 hPa 0,0 mm 0,0 km/h (0 Bft) E-SE 121 ° 0 min 0,000 mm 0,0 UV-I 0 W/m² 12,2 °C 13,8 °C 0,0 km/h (0 Bft)
04/05/2026 02:16 13,8 °C 12,8 °C 14,4 °C 13,3 °C 12,8 °C 90 % 15 lf 15 lf 6 cb 55 cb 200 cb 1011,4 hPa 0,0 mm 0,0 km/h (0 Bft) E-SE 121 ° 0 min 0,000 mm 0,0 UV-I 0 W/m² 12,2 °C 13,8 °C 0,0 km/h (0 Bft)
04/05/2026 02:14 13,8 °C 12,8 °C 14,4 °C 13,3 °C 12,8 °C 90 % 15 lf 15 lf 6 cb 55 cb 200 cb 1011,4 hPa 0,0 mm 0,2 km/h (0 Bft) E-SE 121 ° 0 min 0,000 mm 0,0 UV-I 0 W/m² 12,2 °C 13,8 °C 1,6 km/h (1 Bft)
04/05/2026 02:12 13,8 °C 12,8 °C 14,4 °C 13,3 °C 12,8 °C 90 % 15 lf 15 lf 5 cb 55 cb 200 cb 1011,4 hPa 0,0 mm 0,5 km/h (0 Bft) E-SE 121 ° 0 min 0,000 mm 0,0 UV-I 0 W/m² 12,2 °C 13,8 °C 1,6 km/h (1 Bft)
04/05/2026 02:10 13,8 °C 12,8 °C 14,4 °C 13,3 °C 12,8 °C 90 % 15 lf 15 lf 5 cb 55 cb 200 cb 1011,3 hPa 0,0 mm 0,0 km/h (0 Bft) E-SE 121 ° 0 min 0,000 mm 0,0 UV-I 0 W/m² 12,2 °C 13,8 °C 0,0 km/h (0 Bft)
04/05/2026 02:08 13,8 °C 12,8 °C 14,4 °C 13,3 °C 12,8 °C 90 % 15 lf 15 lf 5 cb 55 cb 200 cb 1011,4 hPa 0,0 mm 0,3 km/h (0 Bft) E-SE 121 ° 0 min 0,000 mm 0,0 UV-I 0 W/m² 12,2 °C 13,8 °C 1,6 km/h (1 Bft)
04/05/2026 02:06 13,8 °C 12,8 °C 14,4 °C 13,3 °C 12,8 °C 90 % 15 lf 15 lf 6 cb 55 cb 200 cb 1011,4 hPa 0,0 mm 0,3 km/h (0 Bft) E-SE 121 ° 0 min 0,000 mm 0,0 UV-I 0 W/m² 12,2 °C 13,8 °C 1,6 km/h (1 Bft)
04/05/2026 02:04 13,8 °C 12,8 °C 14,4 °C 13,3 °C 12,8 °C 90 % 15 lf 15 lf 6 cb 55 cb 200 cb 1011,4 hPa 0,0 mm 0,2 km/h (0 Bft) E-SE 121 ° 0 min 0,000 mm 0,0 UV-I 0 W/m² 12,2 °C 13,8 °C 1,6 km/h (1 Bft)
04/05/2026 02:02 13,8 °C 12,8 °C 14,4 °C 13,3 °C 12,8 °C 90 % 15 lf 15 lf 6 cb 55 cb 200 cb 1011,4 hPa 0,0 mm 0,2 km/h (0 Bft) E-SE 121 ° 0 min 0,000 mm 0,0 UV-I 0 W/m² 12,2 °C 13,8 °C 1,6 km/h (1 Bft)
04/05/2026 02:00 13,8 °C 12,8 °C 14,4 °C 13,3 °C 12,8 °C 90 % 15 lf 15 lf 6 cb 55 cb 200 cb 1011,4 hPa 0,0 mm 0,4 km/h (0 Bft) E-SE 121 ° 0 min 0,000 mm 0,0 UV-I 0 W/m² 12,2 °C 13,8 °C 1,6 km/h (1 Bft)
04/05/2026 01:58 13,8 °C 12,8 °C 14,4 °C 13,3 °C 12,8 °C 90 % 15 lf 15 lf 5 cb 55 cb 200 cb 1011,4 hPa 0,0 mm 0,5 km/h (0 Bft) E-SE 121 ° 0 min 0,000 mm 0,0 UV-I 0 W/m² 12,2 °C 13,8 °C 1,6 km/h (1 Bft)
04/05/2026 01:56 13,8 °C 12,8 °C 14,4 °C 13,3 °C 12,8 °C 90 % 15 lf 15 lf 5 cb 55 cb 200 cb 1011,5 hPa 0,0 mm 1,4 km/h (1 Bft) E-SE 121 ° 0 min 0,000 mm 0,0 UV-I 0 W/m² 12,2 °C 13,8 °C 3,2 km/h (1 Bft)
04/05/2026 01:54 13,8 °C 12,8 °C 14,4 °C 13,3 °C 12,8 °C 90 % 15 lf 15 lf 5 cb 55 cb 200 cb 1011,4 hPa 0,0 mm 1,9 km/h (1 Bft) E-SE 121 ° 0 min 0,000 mm 0,0 UV-I 0 W/m² 12,2 °C 13,8 °C 3,2 km/h (1 Bft)
04/05/2026 01:52 13,7 °C 12,8 °C 14,4 °C 13,3 °C 12,8 °C 89 % 15 lf 15 lf 5 cb 55 cb 200 cb 1011,4 hPa 0,0 mm 1,0 km/h (0 Bft) E-SE 121 ° 0 min 0,000 mm 0,0 UV-I 0 W/m² 11,9 °C 13,7 °C 3,2 km/h (1 Bft)
04/05/2026 01:50 13,7 °C 12,8 °C 14,4 °C 13,3 °C 12,8 °C 90 % 15 lf 15 lf 5 cb 55 cb 200 cb 1011,4 hPa 0,0 mm 0,8 km/h (0 Bft) E-SE 121 ° 0 min 0,000 mm 0,0 UV-I 0 W/m² 12,1 °C 13,7 °C 1,6 km/h (1 Bft)
04/05/2026 01:48 13,7 °C 12,8 °C 14,4 °C 13,3 °C 12,8 °C 89 % 15 lf 15 lf 5 cb 55 cb 200 cb 1011,4 hPa 0,0 mm 0,2 km/h (0 Bft) E-SE 121 ° 0 min 0,000 mm 0,0 UV-I 0 W/m² 11,9 °C 13,7 °C 1,6 km/h (1 Bft)
04/05/2026 01:46 13,7 °C 12,8 °C 14,4 °C 13,3 °C 12,8 °C 89 % 15 lf 15 lf 5 cb 55 cb 200 cb 1011,3 hPa 0,0 mm 0,0 km/h (0 Bft) E-SE 121 ° 0 min 0,000 mm 0,0 UV-I 0 W/m² 11,9 °C 13,7 °C 0,0 km/h (0 Bft)
04/05/2026 01:44 13,7 °C 12,8 °C 14,4 °C 13,3 °C 12,8 °C 89 % 15 lf 15 lf 5 cb 55 cb 200 cb 1011,3 hPa 0,0 mm 0,0 km/h (0 Bft) E-SE 121 ° 0 min 0,000 mm 0,0 UV-I 0 W/m² 11,9 °C 13,7 °C 0,0 km/h (0 Bft)
04/05/2026 01:42 13,7 °C 12,8 °C 14,4 °C 13,3 °C 12,8 °C 89 % 15 lf 15 lf 5 cb 55 cb 200 cb 1011,3 hPa 0,0 mm 0,1 km/h (0 Bft) E-SE 121 ° 0 min 0,000 mm 0,0 UV-I 0 W/m² 11,9 °C 13,7 °C 1,6 km/h (1 Bft)
04/05/2026 01:40 13,8 °C 12,8 °C 14,4 °C 13,3 °C 12,8 °C 89 % 15 lf 15 lf 5 cb 55 cb 200 cb 1011,3 hPa 0,0 mm 0,0 km/h (0 Bft) E-SE 121 ° 0 min 0,000 mm 0,0 UV-I 0 W/m² 12,0 °C 13,8 °C 0,0 km/h (0 Bft)
04/05/2026 01:38 13,8 °C 12,8 °C 14,4 °C 13,3 °C 12,8 °C 89 % 15 lf 15 lf 5 cb 55 cb 200 cb 1011,3 hPa 0,0 mm 0,0 km/h (0 Bft) E-SE 121 ° 0 min 0,000 mm 0,0 UV-I 0 W/m² 12,0 °C 13,8 °C 0,0 km/h (0 Bft)
04/05/2026 01:36 13,8 °C 12,8 °C 14,4 °C 13,3 °C 12,8 °C 89 % 15 lf 15 lf 5 cb 55 cb 200 cb 1011,3 hPa 0,0 mm 0,0 km/h (0 Bft) E-SE 121 ° 0 min 0,000 mm 0,0 UV-I 0 W/m² 12,0 °C 13,8 °C 0,0 km/h (0 Bft)
04/05/2026 01:34 13,8 °C 12,8 °C 14,4 °C 13,3 °C 12,8 °C 89 % 15 lf 15 lf 5 cb 55 cb 200 cb 1011,4 hPa 0,0 mm 0,0 km/h (0 Bft) E-SE 121 ° 0 min 0,000 mm 0,0 UV-I 0 W/m² 12,0 °C 13,8 °C 0,0 km/h (0 Bft)
04/05/2026 01:32 13,8 °C 12,8 °C 14,4 °C 13,3 °C 12,8 °C 89 % 15 lf 15 lf 5 cb 55 cb 200 cb 1011,3 hPa 0,0 mm 0,0 km/h (0 Bft) E-SE 121 ° 0 min 0,000 mm 0,0 UV-I 0 W/m² 12,0 °C 13,8 °C 0,0 km/h (0 Bft)
04/05/2026 01:30 13,8 °C 12,8 °C 14,4 °C 13,3 °C 12,8 °C 89 % 15 lf 15 lf 5 cb 55 cb 200 cb 1011,3 hPa 0,0 mm 0,0 km/h (0 Bft) E-SE 121 ° 0 min 0,000 mm 0,0 UV-I 0 W/m² 12,0 °C 13,8 °C 1,6 km/h (1 Bft)
04/05/2026 01:28 13,8 °C 12,8 °C 14,4 °C 13,3 °C 12,8 °C 89 % 15 lf 15 lf 5 cb 55 cb 200 cb 1011,4 hPa 0,0 mm 0,0 km/h (0 Bft) E-SE 121 ° 0 min 0,000 mm 0,0 UV-I 0 W/m² 12,0 °C 13,8 °C 0,0 km/h (0 Bft)
04/05/2026 01:26 13,8 °C 12,8 °C 14,4 °C 13,3 °C 12,8 °C 89 % 15 lf 15 lf 5 cb 54 cb 200 cb 1011,4 hPa 0,0 mm 0,0 km/h (0 Bft) E-SE 121 ° 0 min 0,000 mm 0,0 UV-I 0 W/m² 12,0 °C 13,8 °C 0,0 km/h (0 Bft)
04/05/2026 01:24 13,9 °C 12,8 °C 14,4 °C 13,3 °C 12,8 °C 89 % 15 lf 15 lf 5 cb 54 cb 200 cb 1011,3 hPa 0,0 mm 0,0 km/h (0 Bft) E-SE 121 ° 0 min 0,000 mm 0,0 UV-I 0 W/m² 12,1 °C 13,9 °C 0,0 km/h (0 Bft)
04/05/2026 01:22 13,9 °C 12,8 °C 14,4 °C 13,3 °C 12,8 °C 89 % 15 lf 15 lf 5 cb 54 cb 200 cb 1011,4 hPa 0,0 mm 0,0 km/h (0 Bft) E-SE 121 ° 0 min 0,000 mm 0,0 UV-I 0 W/m² 12,1 °C 13,9 °C 0,0 km/h (0 Bft)
04/05/2026 01:20 13,9 °C 12,8 °C 14,4 °C 13,3 °C 12,8 °C 89 % 15 lf 15 lf 5 cb 54 cb 200 cb 1011,3 hPa 0,0 mm 0,0 km/h (0 Bft) E-SE 121 ° 0 min 0,000 mm 0,0 UV-I 0 W/m² 12,1 °C 13,9 °C 0,0 km/h (0 Bft)
04/05/2026 01:18 13,9 °C 12,8 °C 14,4 °C 13,3 °C 12,8 °C 89 % 15 lf 15 lf 5 cb 54 cb 200 cb 1011,3 hPa 0,0 mm 0,0 km/h (0 Bft) E-SE 121 ° 0 min 0,000 mm 0,0 UV-I 0 W/m² 12,1 °C 13,9 °C 0,0 km/h (0 Bft)
04/05/2026 01:16 14,0 °C 12,8 °C 14,4 °C 13,3 °C 12,8 °C 89 % 15 lf 15 lf 5 cb 54 cb 200 cb 1011,3 hPa 0,0 mm 0,0 km/h (0 Bft) E-SE 121 ° 0 min 0,000 mm 0,0 UV-I 0 W/m² 12,2 °C 14,0 °C 0,0 km/h (0 Bft)
04/05/2026 01:14 14,1 °C 12,8 °C 14,4 °C 13,3 °C 12,8 °C 89 % 15 lf 15 lf 5 cb 54 cb 200 cb 1011,3 hPa 0,0 mm 0,0 km/h (0 Bft) E-SE 121 ° 0 min 0,000 mm 0,0 UV-I 0 W/m² 12,3 °C 14,1 °C 0,0 km/h (0 Bft)
04/05/2026 01:12 14,1 °C 12,8 °C 14,4 °C 13,3 °C 12,8 °C 89 % 15 lf 15 lf 5 cb 54 cb 200 cb 1011,3 hPa 0,0 mm 0,0 km/h (0 Bft) E-SE 121 ° 0 min 0,000 mm 0,0 UV-I 0 W/m² 12,3 °C 14,1 °C 0,0 km/h (0 Bft)
04/05/2026 01:10 14,1 °C 12,8 °C 14,4 °C 13,3 °C 12,8 °C 89 % 15 lf 15 lf 5 cb 54 cb 200 cb 1011,3 hPa 0,0 mm 0,0 km/h (0 Bft) E-SE 121 ° 0 min 0,000 mm 0,0 UV-I 0 W/m² 12,3 °C 14,1 °C 0,0 km/h (0 Bft)
04/05/2026 01:08 14,2 °C 12,8 °C 14,4 °C 13,3 °C 12,8 °C 89 % 15 lf 15 lf 5 cb 54 cb 200 cb 1011,3 hPa 0,0 mm 0,0 km/h (0 Bft) E-SE 121 ° 0 min 0,000 mm 0,0 UV-I 0 W/m² 12,4 °C 14,2 °C 0,0 km/h (0 Bft)
04/05/2026 01:06 14,2 °C 12,8 °C 14,4 °C 13,3 °C 12,8 °C 89 % 15 lf 15 lf 5 cb 54 cb 200 cb 1011,2 hPa 0,0 mm 0,0 km/h (0 Bft) E-SE 121 ° 0 min 0,000 mm 0,0 UV-I 0 W/m² 12,4 °C 14,2 °C 0,0 km/h (0 Bft)
04/05/2026 01:04 14,2 °C 12,8 °C 14,4 °C 13,3 °C 12,8 °C 89 % 15 lf 15 lf 5 cb 54 cb 200 cb 1011,2 hPa 0,0 mm 0,0 km/h (0 Bft) E-SE 121 ° 0 min 0,000 mm 0,0 UV-I 0 W/m² 12,4 °C 14,2 °C 0,0 km/h (0 Bft)
04/05/2026 01:02 14,3 °C 12,8 °C 14,4 °C 13,3 °C 12,8 °C 89 % 15 lf 15 lf 5 cb 54 cb 200 cb 1011,2 hPa 0,0 mm 0,0 km/h (0 Bft) E-SE 121 ° 0 min 0,000 mm 0,0 UV-I 0 W/m² 12,5 °C 14,3 °C 0,0 km/h (0 Bft)
04/05/2026 01:00 14,3 °C 12,8 °C 14,4 °C 13,3 °C 12,8 °C 89 % 15 lf 15 lf 5 cb 54 cb 200 cb 1011,2 hPa 0,0 mm 0,0 km/h (0 Bft) E-SE 121 ° 0 min 0,000 mm 0,0 UV-I 0 W/m² 12,5 °C 14,3 °C 0,0 km/h (0 Bft)
04/05/2026 00:58 14,3 °C 12,8 °C 14,4 °C 13,3 °C 12,8 °C 89 % 15 lf 15 lf 5 cb 54 cb 200 cb 1011,1 hPa 0,0 mm 0,0 km/h (0 Bft) E-SE 121 ° 0 min 0,000 mm 0,0 UV-I 0 W/m² 12,5 °C 14,3 °C 0,0 km/h (0 Bft)
04/05/2026 00:56 14,4 °C 12,8 °C 14,4 °C 13,3 °C 12,8 °C 89 % 15 lf 15 lf 5 cb 54 cb 200 cb 1011,2 hPa 0,0 mm 0,0 km/h (0 Bft) E-SE 121 ° 0 min 0,000 mm 0,0 UV-I 0 W/m² 12,6 °C 14,4 °C 0,0 km/h (0 Bft)
04/05/2026 00:54 14,4 °C 12,8 °C 14,4 °C 13,3 °C 12,8 °C 89 % 15 lf 15 lf 5 cb 54 cb 200 cb 1011,2 hPa 0,0 mm 0,0 km/h (0 Bft) E-SE 121 ° 0 min 0,000 mm 0,0 UV-I 0 W/m² 12,6 °C 14,4 °C 0,0 km/h (0 Bft)
04/05/2026 00:52 14,5 °C 12,8 °C 14,4 °C 13,3 °C 12,8 °C 89 % 15 lf 15 lf 5 cb 54 cb 200 cb 1011,2 hPa 0,0 mm 0,0 km/h (0 Bft) E-SE 121 ° 0 min 0,000 mm 0,0 UV-I 0 W/m² 12,7 °C 14,5 °C 0,0 km/h (0 Bft)
04/05/2026 00:50 14,5 °C 13,3 °C 14,4 °C 13,3 °C 12,8 °C 89 % 15 lf 15 lf 5 cb 54 cb 200 cb 1011,2 hPa 0,0 mm 0,0 km/h (0 Bft) E-SE 121 ° 0 min 0,000 mm 0,0 UV-I 0 W/m² 12,7 °C 14,5 °C 0,0 km/h (0 Bft)
04/05/2026 00:48 14,5 °C 13,3 °C 14,4 °C 13,3 °C 12,8 °C 89 % 15 lf 15 lf 5 cb 54 cb 200 cb 1011,2 hPa 0,0 mm 0,0 km/h (0 Bft) E-SE 121 ° 0 min 0,000 mm 0,0 UV-I 0 W/m² 12,7 °C 14,5 °C 0,0 km/h (0 Bft)
04/05/2026 00:46 14,6 °C 13,3 °C 14,4 °C 13,3 °C 12,8 °C 89 % 15 lf 15 lf 5 cb 54 cb 200 cb 1011,1 hPa 0,0 mm 0,0 km/h (0 Bft) E-SE 121 ° 0 min 0,000 mm 0,0 UV-I 0 W/m² 12,8 °C 14,6 °C 0,0 km/h (0 Bft)
04/05/2026 00:44 14,6 °C 13,3 °C 14,4 °C 13,3 °C 12,8 °C 89 % 15 lf 15 lf 5 cb 54 cb 200 cb 1011,1 hPa 0,0 mm 0,1 km/h (0 Bft) E-SE 121 ° 0 min 0,000 mm 0,0 UV-I 0 W/m² 12,8 °C 14,6 °C 1,6 km/h (1 Bft)
04/05/2026 00:42 14,6 °C 13,3 °C 14,4 °C 13,3 °C 12,8 °C 89 % 15 lf 15 lf 5 cb 54 cb 200 cb 1011,2 hPa 0,0 mm 0,0 km/h (0 Bft) E-SE 121 ° 0 min 0,000 mm 0,0 UV-I 0 W/m² 12,8 °C 14,6 °C 0,0 km/h (0 Bft)
04/05/2026 00:40 14,7 °C 13,3 °C 14,4 °C 13,3 °C 12,8 °C 89 % 15 lf 15 lf 5 cb 54 cb 200 cb 1011,1 hPa 0,0 mm 0,0 km/h (0 Bft) E-SE 121 ° 0 min 0,000 mm 0,0 UV-I 0 W/m² 12,9 °C 14,7 °C 0,0 km/h (0 Bft)
04/05/2026 00:38 14,7 °C 13,3 °C 14,4 °C 13,3 °C 12,8 °C 89 % 15 lf 15 lf 5 cb 54 cb 200 cb 1011,1 hPa 0,0 mm 0,0 km/h (0 Bft) E-SE 121 ° 0 min 0,000 mm 0,0 UV-I 0 W/m² 12,9 °C 14,7 °C 0,0 km/h (0 Bft)
04/05/2026 00:36 14,7 °C 13,3 °C 14,4 °C 13,3 °C 12,8 °C 89 % 15 lf 15 lf 5 cb 54 cb 200 cb 1011,1 hPa 0,0 mm 0,0 km/h (0 Bft) E-SE 121 ° 0 min 0,000 mm 0,0 UV-I 0 W/m² 12,9 °C 14,7 °C 0,0 km/h (0 Bft)
04/05/2026 00:34 14,7 °C 13,9 °C 14,4 °C 13,3 °C 12,8 °C 89 % 15 lf 15 lf 5 cb 54 cb 200 cb 1011,1 hPa 0,0 mm 0,0 km/h (0 Bft) E-SE 121 ° 0 min 0,000 mm 0,0 UV-I 0 W/m² 12,9 °C 14,7 °C 0,0 km/h (0 Bft)
04/05/2026 00:32 14,8 °C 13,9 °C 14,4 °C 13,3 °C 12,8 °C 89 % 15 lf 15 lf 5 cb 54 cb 200 cb 1011,0 hPa 0,0 mm 0,0 km/h (0 Bft) E-SE 121 ° 0 min 0,000 mm 0,0 UV-I 0 W/m² 13,0 °C 14,8 °C 0,0 km/h (0 Bft)
04/05/2026 00:30 14,7 °C 13,9 °C 14,4 °C 13,3 °C 12,8 °C 89 % 15 lf 15 lf 5 cb 54 cb 200 cb 1011,0 hPa 0,0 mm 0,0 km/h (0 Bft) E-SE 121 ° 0 min 0,000 mm 0,0 UV-I 0 W/m² 12,9 °C 14,7 °C 0,0 km/h (0 Bft)
04/05/2026 00:28 14,8 °C 13,9 °C 14,4 °C 13,3 °C 12,8 °C 89 % 15 lf 15 lf 5 cb 54 cb 200 cb 1011,0 hPa 0,0 mm 0,0 km/h (0 Bft) E-SE 121 ° 0 min 0,000 mm 0,0 UV-I 0 W/m² 13,0 °C 14,8 °C 0,0 km/h (0 Bft)
04/05/2026 00:26 14,8 °C 13,9 °C 14,4 °C 13,3 °C 12,8 °C 89 % 15 lf 15 lf 5 cb 54 cb 200 cb 1011,1 hPa 0,0 mm 0,0 km/h (0 Bft) E-SE 121 ° 0 min 0,000 mm 0,0 UV-I 0 W/m² 13,0 °C 14,8 °C 0,0 km/h (0 Bft)
04/05/2026 00:24 14,8 °C 13,9 °C 14,4 °C 13,3 °C 12,8 °C 89 % 15 lf 15 lf 5 cb 54 cb 200 cb 1011,1 hPa 0,0 mm 0,0 km/h (0 Bft) E-SE 121 ° 0 min 0,000 mm 0,0 UV-I 0 W/m² 13,0 °C 14,8 °C 0,0 km/h (0 Bft)
04/05/2026 00:22 14,8 °C 13,9 °C 14,4 °C 13,3 °C 12,8 °C 89 % 15 lf 15 lf 5 cb 54 cb 200 cb 1011,2 hPa 0,0 mm 0,0 km/h (0 Bft) E-SE 121 ° 0 min 0,000 mm 0,0 UV-I 0 W/m² 13,0 °C 14,8 °C 0,0 km/h (0 Bft)
04/05/2026 00:20 14,8 °C 13,9 °C 14,4 °C 13,3 °C 12,8 °C 89 % 15 lf 15 lf 5 cb 54 cb 200 cb 1011,1 hPa 0,0 mm 1,4 km/h (1 Bft) E-SE 121 ° 0 min 0,000 mm 0,0 UV-I 0 W/m² 13,0 °C 14,8 °C 3,2 km/h (1 Bft)
04/05/2026 00:18 14,8 °C 13,9 °C 14,4 °C 13,3 °C 12,8 °C 89 % 15 lf 15 lf 5 cb 54 cb 200 cb 1011,1 hPa 0,0 mm 0,7 km/h (0 Bft) E-SE 121 ° 0 min 0,000 mm 0,0 UV-I 0 W/m² 13,0 °C 14,8 °C 3,2 km/h (1 Bft)
04/05/2026 00:16 14,8 °C 13,9 °C 14,4 °C 13,3 °C 12,8 °C 89 % 15 lf 15 lf 5 cb 54 cb 200 cb 1011,0 hPa 0,0 mm 0,0 km/h (0 Bft) E-SE 121 ° 0 min 0,000 mm 0,0 UV-I 0 W/m² 13,0 °C 14,8 °C 0,0 km/h (0 Bft)
04/05/2026 00:14 14,8 °C 13,9 °C 14,4 °C 13,3 °C 12,8 °C 89 % 15 lf 15 lf 5 cb 53 cb 200 cb 1011,1 hPa 0,0 mm 0,5 km/h (0 Bft) E-SE 121 ° 0 min 0,000 mm 0,0 UV-I 0 W/m² 13,0 °C 14,8 °C 1,6 km/h (1 Bft)
04/05/2026 00:12 14,8 °C 13,9 °C 14,4 °C 13,3 °C 12,8 °C 89 % 15 lf 15 lf 5 cb 53 cb 200 cb 1011,1 hPa 0,0 mm 0,1 km/h (0 Bft) E-SE 121 ° 0 min 0,000 mm 0,0 UV-I 0 W/m² 13,0 °C 14,8 °C 1,6 km/h (1 Bft)
04/05/2026 00:10 14,8 °C 13,9 °C 14,4 °C 13,3 °C 12,8 °C 89 % 15 lf 15 lf 4 cb 53 cb 200 cb 1011,0 hPa 0,0 mm 0,0 km/h (0 Bft) E-SE 121 ° 0 min 0,000 mm 0,0 UV-I 0 W/m² 13,0 °C 14,8 °C 0,0 km/h (0 Bft)
04/05/2026 00:08 14,8 °C 13,9 °C 14,4 °C 13,3 °C 12,8 °C 89 % 15 lf 15 lf 4 cb 53 cb 200 cb 1011,1 hPa 0,0 mm 0,0 km/h (0 Bft) E-SE 121 ° 0 min 0,000 mm 0,0 UV-I 0 W/m² 13,0 °C 14,8 °C 0,0 km/h (0 Bft)
04/05/2026 00:06 14,8 °C 13,9 °C 14,4 °C 13,3 °C 12,8 °C 89 % 15 lf 15 lf 4 cb 53 cb 200 cb 1011,1 hPa 0,0 mm 0,0 km/h (0 Bft) E-SE 121 ° 0 min 0,000 mm 0,0 UV-I 0 W/m² 13,0 °C 14,8 °C 0,0 km/h (0 Bft)
04/05/2026 00:04 14,8 °C 13,9 °C 14,4 °C 13,3 °C 12,8 °C 89 % 15 lf 15 lf 4 cb 53 cb 200 cb 1011,0 hPa 0,0 mm 0,0 km/h (0 Bft) E-SE 121 ° 0 min 0,000 mm 0,0 UV-I 0 W/m² 13,0 °C 14,8 °C 0,0 km/h (0 Bft)
04/05/2026 00:02 14,8 °C 13,9 °C 14,4 °C 13,3 °C 12,8 °C 89 % 15 lf 15 lf 4 cb 53 cb 200 cb 1011,0 hPa 0,0 mm 0,0 km/h (0 Bft) E-SE 121 ° 0 min 0,000 mm 0,0 UV-I 0 W/m² 13,0 °C 14,8 °C 0,0 km/h (0 Bft)
04/05/2026 00:00 14,8 °C 13,9 °C 14,4 °C 13,3 °C 12,8 °C 89 % 15 lf 15 lf 4 cb 53 cb 200 cb 1011,0 hPa 0,0 mm 0,0 km/h (0 Bft) E-SE 121 ° 0 min 0,000 mm 0,0 UV-I 0 W/m² 13,0 °C 14,8 °C 0,0 km/h (0 Bft)
03/05/2026 23:58 14,8 °C 13,9 °C 14,4 °C 13,3 °C 12,8 °C 89 % 15 lf 15 lf 4 cb 53 cb 200 cb 1011,0 hPa 0,0 mm 0,0 km/h (0 Bft) E-SE 121 ° 0 min 0,000 mm 0,0 UV-I 0 W/m² 13,0 °C 14,8 °C 0,0 km/h (0 Bft)
03/05/2026 23:56 14,8 °C 13,9 °C 14,4 °C 13,3 °C 12,8 °C 89 % 15 lf 15 lf 4 cb 53 cb 200 cb 1011,0 hPa 0,0 mm 0,0 km/h (0 Bft) E-SE 121 ° 0 min 0,000 mm 0,0 UV-I 0 W/m² 13,0 °C 14,8 °C 0,0 km/h (0 Bft)
03/05/2026 23:54 14,8 °C 13,9 °C 14,4 °C 13,3 °C 12,8 °C 89 % 15 lf 15 lf 4 cb 53 cb 200 cb 1011,1 hPa 0,0 mm 0,0 km/h (0 Bft) E-SE 121 ° 0 min 0,000 mm 0,0 UV-I 0 W/m² 13,0 °C 14,8 °C 0,0 km/h (0 Bft)
03/05/2026 23:52 14,8 °C 13,9 °C 14,4 °C 13,3 °C 12,8 °C 89 % 15 lf 15 lf 4 cb 53 cb 200 cb 1011,2 hPa 0,0 mm 0,0 km/h (0 Bft) E-SE 121 ° 0 min 0,000 mm 0,0 UV-I 0 W/m² 13,0 °C 14,8 °C 0,0 km/h (0 Bft)
03/05/2026 23:50 14,8 °C 13,9 °C 14,4 °C 13,3 °C 12,8 °C 89 % 15 lf 15 lf 4 cb 53 cb 200 cb 1011,2 hPa 0,0 mm 0,0 km/h (0 Bft) E-SE 121 ° 0 min 0,000 mm 0,0 UV-I 0 W/m² 13,0 °C 14,8 °C 0,0 km/h (0 Bft)
03/05/2026 23:48 14,8 °C 13,9 °C 14,4 °C 13,3 °C 12,8 °C 89 % 15 lf 15 lf 4 cb 53 cb 200 cb 1011,2 hPa 0,0 mm 0,0 km/h (0 Bft) E-SE 121 ° 0 min 0,000 mm 0,0 UV-I 0 W/m² 13,0 °C 14,8 °C 0,0 km/h (0 Bft)
03/05/2026 23:46 14,8 °C 13,9 °C 14,4 °C 13,3 °C 12,8 °C 89 % 15 lf 15 lf 4 cb 53 cb 200 cb 1011,3 hPa 0,0 mm 0,0 km/h (0 Bft) E-SE 121 ° 0 min 0,000 mm 0,0 UV-I 0 W/m² 13,0 °C 14,8 °C 0,0 km/h (0 Bft)
03/05/2026 23:44 14,8 °C 13,9 °C 14,4 °C 13,3 °C 12,8 °C 89 % 15 lf 15 lf 4 cb 53 cb 200 cb 1011,2 hPa 0,0 mm 0,0 km/h (0 Bft) E-SE 121 ° 0 min 0,000 mm 0,0 UV-I 0 W/m² 13,0 °C 14,8 °C 0,0 km/h (0 Bft)
03/05/2026 23:42 14,9 °C 13,9 °C 14,4 °C 13,3 °C 12,8 °C 89 % 15 lf 15 lf 4 cb 53 cb 200 cb 1011,3 hPa 0,0 mm 0,0 km/h (0 Bft) E-SE 121 ° 0 min 0,000 mm 0,0 UV-I 0 W/m² 13,1 °C 14,9 °C 0,0 km/h (0 Bft)
03/05/2026 23:40 14,9 °C 13,9 °C 14,4 °C 13,3 °C 12,8 °C 89 % 15 lf 15 lf 4 cb 53 cb 200 cb 1011,3 hPa 0,0 mm 0,0 km/h (0 Bft) E-SE 121 ° 0 min 0,000 mm 0,0 UV-I 0 W/m² 13,1 °C 14,9 °C 0,0 km/h (0 Bft)
03/05/2026 23:38 14,9 °C 13,9 °C 14,4 °C 13,3 °C 12,8 °C 89 % 15 lf 15 lf 4 cb 53 cb 200 cb 1011,2 hPa 0,0 mm 0,0 km/h (0 Bft) E-SE 121 ° 0 min 0,000 mm 0,0 UV-I 0 W/m² 13,1 °C 14,9 °C 0,0 km/h (0 Bft)
03/05/2026 23:36 14,9 °C 13,9 °C 14,4 °C 13,3 °C 12,8 °C 89 % 15 lf 15 lf 4 cb 53 cb 200 cb 1011,2 hPa 0,0 mm 0,0 km/h (0 Bft) E-SE 121 ° 0 min 0,000 mm 0,0 UV-I 0 W/m² 13,1 °C 14,9 °C 0,0 km/h (0 Bft)
03/05/2026 23:34 14,9 °C 13,9 °C 14,4 °C 13,3 °C 12,8 °C 89 % 15 lf 15 lf 4 cb 53 cb 200 cb 1011,2 hPa 0,0 mm 0,0 km/h (0 Bft) E-SE 121 ° 0 min 0,000 mm 0,0 UV-I 0 W/m² 13,1 °C 14,9 °C 0,0 km/h (0 Bft)
03/05/2026 23:32 14,8 °C 13,9 °C 14,4 °C 13,3 °C 12,8 °C 89 % 15 lf 15 lf 4 cb 53 cb 200 cb 1011,2 hPa 0,0 mm 0,0 km/h (0 Bft) E-SE 121 ° 0 min 0,000 mm 0,0 UV-I 0 W/m² 13,0 °C 14,8 °C 0,0 km/h (0 Bft)
03/05/2026 23:30 14,9 °C 13,9 °C 14,4 °C 13,3 °C 12,8 °C 89 % 15 lf 15 lf 4 cb 53 cb 200 cb 1011,2 hPa 0,0 mm 0,0 km/h (0 Bft) E-SE 121 ° 0 min 0,000 mm 0,0 UV-I 0 W/m² 13,1 °C 14,9 °C 0,0 km/h (0 Bft)
03/05/2026 23:28 14,9 °C 13,9 °C 14,4 °C 13,3 °C 12,8 °C 89 % 15 lf 15 lf 4 cb 53 cb 200 cb 1011,1 hPa 0,0 mm 0,0 km/h (0 Bft) E-SE 121 ° 0 min 0,000 mm 0,0 UV-I 0 W/m² 13,1 °C 14,9 °C 0,0 km/h (0 Bft)
03/05/2026 23:26 14,9 °C 13,9 °C 14,4 °C 13,3 °C 12,8 °C 89 % 15 lf 15 lf 4 cb 53 cb 200 cb 1011,2 hPa 0,0 mm 0,0 km/h (0 Bft) E-SE 121 ° 0 min 0,000 mm 0,0 UV-I 0 W/m² 13,1 °C 14,9 °C 0,0 km/h (0 Bft)
03/05/2026 23:24 14,9 °C 13,9 °C 14,4 °C 13,3 °C 12,8 °C 89 % 15 lf 15 lf 4 cb 53 cb 200 cb 1011,1 hPa 0,0 mm 0,0 km/h (0 Bft) E-SE 121 ° 0 min 0,000 mm 0,0 UV-I 0 W/m² 13,1 °C 14,9 °C 0,0 km/h (0 Bft)
03/05/2026 23:22 14,9 °C 13,9 °C 14,4 °C 13,3 °C 12,8 °C 89 % 15 lf 15 lf 4 cb 53 cb 200 cb 1011,1 hPa 0,0 mm 0,0 km/h (0 Bft) E-SE 121 ° 0 min 0,000 mm 0,0 UV-I 0 W/m² 13,1 °C 14,9 °C 0,0 km/h (0 Bft)
03/05/2026 23:20 14,9 °C 13,9 °C 14,4 °C 13,3 °C 12,8 °C 89 % 15 lf 15 lf 4 cb 53 cb 200 cb 1011,1 hPa 0,2 mm 0,0 km/h (0 Bft) E-SE 121 ° 0 min 0,000 mm 0,0 UV-I 0 W/m² 13,1 °C 14,9 °C 0,0 km/h (0 Bft)
03/05/2026 23:18 14,9 °C 13,9 °C 14,4 °C 13,3 °C 12,8 °C 89 % 15 lf 15 lf 4 cb 53 cb 200 cb 1011,2 hPa 1,0 mm 0,0 km/h (0 Bft) E-SE 121 ° 0 min 0,000 mm 0,0 UV-I 0 W/m² 13,1 °C 14,9 °C 0,0 km/h (0 Bft)
03/05/2026 23:16 14,9 °C 13,9 °C 14,4 °C 13,3 °C 12,8 °C 89 % 15 lf 15 lf 4 cb 53 cb 200 cb 1011,2 hPa 0,0 mm 0,0 km/h (0 Bft) E-SE 121 ° 0 min 0,000 mm 0,0 UV-I 0 W/m² 13,1 °C 14,9 °C 0,0 km/h (0 Bft)
03/05/2026 23:14 14,9 °C 13,9 °C 14,4 °C 13,3 °C 12,8 °C 89 % 15 lf 15 lf 4 cb 53 cb 200 cb 1011,2 hPa 0,2 mm 0,2 km/h (0 Bft) E-SE 121 ° 0 min 0,000 mm 0,0 UV-I 0 W/m² 13,1 °C 14,9 °C 1,6 km/h (1 Bft)
03/05/2026 23:12 14,9 °C 13,9 °C 14,4 °C 13,3 °C 12,8 °C 89 % 15 lf 15 lf 4 cb 53 cb 200 cb 1011,2 hPa 0,4 mm 2,0 km/h (1 Bft) E-SE 121 ° 0 min 0,000 mm 0,0 UV-I 0 W/m² 13,1 °C 14,9 °C 4,8 km/h (1 Bft)
03/05/2026 23:10 14,9 °C 13,9 °C 14,4 °C 13,3 °C 12,8 °C 89 % 15 lf 15 lf 4 cb 53 cb 200 cb 1011,3 hPa 0,2 mm 0,6 km/h (0 Bft) S-SE 165 ° 0 min 0,000 mm 0,0 UV-I 0 W/m² 13,1 °C 14,9 °C 1,6 km/h (1 Bft)
03/05/2026 23:08 15,0 °C 13,9 °C 14,4 °C 13,3 °C 12,8 °C 89 % 15 lf 15 lf 4 cb 53 cb 200 cb 1011,3 hPa 0,2 mm 0,8 km/h (0 Bft) S-SE 165 ° 0 min 0,000 mm 0,0 UV-I 0 W/m² 13,2 °C 15,0 °C 3,2 km/h (1 Bft)
03/05/2026 23:06 14,9 °C 13,9 °C 14,4 °C 13,3 °C 12,8 °C 88 % 15 lf 15 lf 4 cb 53 cb 200 cb 1011,2 hPa 0,0 mm 0,7 km/h (0 Bft) S-SE 165 ° 0 min 0,000 mm 0,0 UV-I 0 W/m² 12,9 °C 14,9 °C 1,6 km/h (1 Bft)
03/05/2026 23:04 14,9 °C 13,9 °C 14,4 °C 13,3 °C 12,8 °C 89 % 15 lf 15 lf 4 cb 53 cb 200 cb 1011,3 hPa 0,2 mm 0,7 km/h (0 Bft) S-SE 165 ° 0 min 0,000 mm 0,0 UV-I 0 W/m² 13,1 °C 14,9 °C 1,6 km/h (1 Bft)
03/05/2026 23:02 14,9 °C 13,9 °C 14,4 °C 13,3 °C 12,8 °C 89 % 15 lf 15 lf 4 cb 53 cb 200 cb 1011,2 hPa 0,0 mm 0,6 km/h (0 Bft) S-SE 165 ° 0 min 0,000 mm 0,0 UV-I 0 W/m² 13,1 °C 14,9 °C 1,6 km/h (1 Bft)
03/05/2026 23:00 14,9 °C 13,9 °C 14,4 °C 13,3 °C 12,8 °C 88 % 15 lf 15 lf 4 cb 53 cb 200 cb 1011,2 hPa 0,0 mm 0,1 km/h (0 Bft) S-SE 165 ° 0 min 0,000 mm 0,0 UV-I 0 W/m² 12,9 °C 14,9 °C 1,6 km/h (1 Bft)
03/05/2026 22:58 15,0 °C 13,9 °C 14,4 °C 13,3 °C 12,8 °C 88 % 15 lf 15 lf 4 cb 53 cb 200 cb 1011,3 hPa 0,0 mm 0,0 km/h (0 Bft) S-SE 165 ° 0 min 0,000 mm 0,0 UV-I 0 W/m² 13,0 °C 15,0 °C 0,0 km/h (0 Bft)
03/05/2026 22:56 15,0 °C 13,9 °C 14,4 °C 13,3 °C 12,8 °C 88 % 15 lf 15 lf 4 cb 52 cb 200 cb 1011,2 hPa 0,0 mm 0,3 km/h (0 Bft) S-SE 165 ° 0 min 0,000 mm 0,0 UV-I 0 W/m² 13,0 °C 15,0 °C 1,6 km/h (1 Bft)
03/05/2026 22:54 15,1 °C 13,9 °C 14,4 °C 13,3 °C 12,8 °C 88 % 15 lf 15 lf 4 cb 52 cb 200 cb 1011,2 hPa 0,0 mm 0,4 km/h (0 Bft) S-SE 165 ° 0 min 0,000 mm 0,0 UV-I 0 W/m² 13,1 °C 15,1 °C 1,6 km/h (1 Bft)
03/05/2026 22:52 15,0 °C 13,9 °C 14,4 °C 13,3 °C 12,8 °C 88 % 15 lf 15 lf 4 cb 52 cb 200 cb 1011,2 hPa 0,0 mm 0,8 km/h (0 Bft) S-SE 165 ° 0 min 0,000 mm 0,0 UV-I 0 W/m² 13,0 °C 15,0 °C 3,2 km/h (1 Bft)
03/05/2026 22:50 15,1 °C 13,9 °C 14,4 °C 13,3 °C 12,8 °C 88 % 15 lf 15 lf 4 cb 52 cb 200 cb 1011,2 hPa 0,0 mm 0,6 km/h (0 Bft) S-SE 165 ° 0 min 0,000 mm 0,0 UV-I 0 W/m² 13,1 °C 15,1 °C 3,2 km/h (1 Bft)
03/05/2026 22:48 15,1 °C 13,9 °C 14,4 °C 13,3 °C 12,8 °C 88 % 15 lf 15 lf 4 cb 52 cb 200 cb 1011,1 hPa 0,0 mm 0,0 km/h (0 Bft) S-SE 165 ° 0 min 0,000 mm 0,0 UV-I 0 W/m² 13,1 °C 15,1 °C 0,0 km/h (0 Bft)
03/05/2026 22:46 15,1 °C 13,9 °C 14,4 °C 13,3 °C 12,8 °C 88 % 15 lf 15 lf 4 cb 52 cb 200 cb 1011,0 hPa 0,0 mm 0,0 km/h (0 Bft) S-SE 165 ° 0 min 0,000 mm 0,0 UV-I 0 W/m² 13,1 °C 15,1 °C 0,0 km/h (0 Bft)
03/05/2026 22:44 15,1 °C 14,4 °C 14,4 °C 13,3 °C 12,8 °C 88 % 15 lf 15 lf 4 cb 52 cb 200 cb 1011,1 hPa 0,0 mm 0,4 km/h (0 Bft) S-SE 165 ° 0 min 0,000 mm 0,0 UV-I 0 W/m² 13,1 °C 15,1 °C 1,6 km/h (1 Bft)
03/05/2026 22:42 15,1 °C 14,4 °C 14,4 °C 13,3 °C 12,8 °C 88 % 15 lf 15 lf 4 cb 52 cb 200 cb 1011,1 hPa 0,0 mm 0,2 km/h (0 Bft) S-SE 165 ° 0 min 0,000 mm 0,0 UV-I 0 W/m² 13,1 °C 15,1 °C 1,6 km/h (1 Bft)
03/05/2026 22:40 15,1 °C 14,4 °C 14,4 °C 13,3 °C 12,8 °C 88 % 15 lf 15 lf 4 cb 52 cb 200 cb 1011,1 hPa 0,0 mm 0,0 km/h (0 Bft) S-SE 165 ° 0 min 0,000 mm 0,0 UV-I 0 W/m² 13,1 °C 15,1 °C 1,6 km/h (1 Bft)
03/05/2026 22:38 15,1 °C 14,4 °C 14,4 °C 13,3 °C 12,8 °C 88 % 15 lf 15 lf 4 cb 52 cb 200 cb 1011,0 hPa 0,0 mm 0,3 km/h (0 Bft) S-SE 165 ° 0 min 0,000 mm 0,0 UV-I 0 W/m² 13,1 °C 15,1 °C 1,6 km/h (1 Bft)
03/05/2026 22:36 15,1 °C 14,4 °C 14,4 °C 13,3 °C 12,8 °C 88 % 15 lf 15 lf 4 cb 52 cb 200 cb 1011,0 hPa 0,0 mm 0,0 km/h (0 Bft) S-SE 165 ° 0 min 0,000 mm 0,0 UV-I 0 W/m² 13,1 °C 15,1 °C 1,6 km/h (1 Bft)
03/05/2026 22:34 15,1 °C 14,4 °C 14,4 °C 13,3 °C 12,8 °C 88 % 15 lf 15 lf 4 cb 52 cb 200 cb 1011,0 hPa 0,0 mm 0,0 km/h (0 Bft) S-SE 165 ° 0 min 0,000 mm 0,0 UV-I 0 W/m² 13,1 °C 15,1 °C 1,6 km/h (1 Bft)
03/05/2026 22:32 15,1 °C 14,4 °C 14,4 °C 13,3 °C 12,8 °C 88 % 15 lf 15 lf 4 cb 52 cb 200 cb 1011,0 hPa 0,0 mm 0,0 km/h (0 Bft) S-SE 165 ° 0 min 0,000 mm 0,0 UV-I 0 W/m² 13,1 °C 15,1 °C 0,0 km/h (0 Bft)
03/05/2026 22:30 15,2 °C 14,4 °C 14,4 °C 13,3 °C 12,8 °C 88 % 15 lf 15 lf 4 cb 52 cb 200 cb 1011,0 hPa 0,0 mm 0,0 km/h (0 Bft) S-SE 165 ° 0 min 0,000 mm 0,0 UV-I 0 W/m² 13,2 °C 15,2 °C 0,0 km/h (0 Bft)
03/05/2026 22:28 15,2 °C 14,4 °C 14,4 °C 13,3 °C 12,8 °C 88 % 15 lf 15 lf 4 cb 52 cb 200 cb 1011,0 hPa 0,0 mm 0,4 km/h (0 Bft) S-SE 165 ° 0 min 0,000 mm 0,0 UV-I 0 W/m² 13,2 °C 15,2 °C 1,6 km/h (1 Bft)
03/05/2026 22:26 15,2 °C 14,4 °C 14,4 °C 13,3 °C 12,8 °C 88 % 15 lf 15 lf 4 cb 52 cb 200 cb 1011,0 hPa 0,0 mm 0,3 km/h (0 Bft) S-SE 165 ° 0 min 0,000 mm 0,0 UV-I 0 W/m² 13,2 °C 15,2 °C 1,6 km/h (1 Bft)
03/05/2026 22:24 15,2 °C 14,4 °C 14,4 °C 13,3 °C 12,8 °C 88 % 15 lf 15 lf 4 cb 52 cb 200 cb 1011,0 hPa 0,0 mm 0,0 km/h (0 Bft) S-SE 165 ° 0 min 0,000 mm 0,0 UV-I 0 W/m² 13,2 °C 15,2 °C 0,0 km/h (0 Bft)
03/05/2026 22:22 15,2 °C 14,4 °C 14,4 °C 13,3 °C 12,8 °C 88 % 15 lf 15 lf 4 cb 52 cb 200 cb 1011,0 hPa 0,0 mm 0,1 km/h (0 Bft) S-SE 165 ° 0 min 0,000 mm 0,0 UV-I 0 W/m² 13,2 °C 15,2 °C 1,6 km/h (1 Bft)
03/05/2026 22:20 15,2 °C 14,4 °C 14,4 °C 13,3 °C 12,8 °C 88 % 15 lf 15 lf 4 cb 52 cb 200 cb 1011,0 hPa 0,0 mm 0,0 km/h (0 Bft) S-SE 165 ° 0 min 0,000 mm 0,0 UV-I 0 W/m² 13,2 °C 15,2 °C 0,0 km/h (0 Bft)
03/05/2026 22:18 15,2 °C 14,4 °C 14,4 °C 13,3 °C 12,8 °C 88 % 15 lf 15 lf 4 cb 52 cb 200 cb 1011,0 hPa 0,0 mm 0,0 km/h (0 Bft) S-SE 165 ° 0 min 0,000 mm 0,0 UV-I 0 W/m² 13,2 °C 15,2 °C 1,6 km/h (1 Bft)
03/05/2026 22:16 15,2 °C 14,4 °C 14,4 °C 13,3 °C 12,8 °C 88 % 15 lf 15 lf 4 cb 52 cb 200 cb 1011,0 hPa 0,0 mm 0,0 km/h (0 Bft) S-SE 165 ° 0 min 0,000 mm 0,0 UV-I 0 W/m² 13,2 °C 15,2 °C 1,6 km/h (1 Bft)
03/05/2026 22:14 15,3 °C 14,4 °C 14,4 °C 13,3 °C 12,8 °C 88 % 15 lf 15 lf 4 cb 52 cb 200 cb 1010,9 hPa 0,0 mm 0,2 km/h (0 Bft) S-SE 165 ° 0 min 0,000 mm 0,0 UV-I 0 W/m² 13,3 °C 15,3 °C 1,6 km/h (1 Bft)
03/05/2026 22:12 15,3 °C 14,4 °C 14,4 °C 13,3 °C 12,8 °C 88 % 15 lf 15 lf 4 cb 52 cb 200 cb 1010,9 hPa 0,0 mm 0,1 km/h (0 Bft) S-SE 165 ° 0 min 0,000 mm 0,0 UV-I 0 W/m² 13,3 °C 15,3 °C 1,6 km/h (1 Bft)
03/05/2026 22:10 15,3 °C 14,4 °C 14,4 °C 13,3 °C 12,8 °C 88 % 15 lf 15 lf 4 cb 52 cb 200 cb 1010,9 hPa 0,0 mm 0,1 km/h (0 Bft) S-SE 165 ° 0 min 0,000 mm 0,0 UV-I 0 W/m² 13,3 °C 15,3 °C 1,6 km/h (1 Bft)
03/05/2026 22:08 15,3 °C 14,4 °C 14,4 °C 13,3 °C 12,8 °C 88 % 15 lf 15 lf 4 cb 52 cb 200 cb 1011,0 hPa 0,0 mm 0,3 km/h (0 Bft) S-SE 165 ° 0 min 0,000 mm 0,0 UV-I 0 W/m² 13,3 °C 15,3 °C 1,6 km/h (1 Bft)
03/05/2026 22:06 15,3 °C 14,4 °C 14,4 °C 13,3 °C 12,8 °C 88 % 15 lf 15 lf 4 cb 52 cb 200 cb 1011,0 hPa 0,0 mm 0,2 km/h (0 Bft) S-SE 165 ° 0 min 0,000 mm 0,0 UV-I 0 W/m² 13,3 °C 15,3 °C 1,6 km/h (1 Bft)
03/05/2026 22:04 15,3 °C 14,4 °C 14,4 °C 13,3 °C 12,8 °C 88 % 15 lf 15 lf 4 cb 52 cb 200 cb 1010,9 hPa 0,2 mm 1,0 km/h (0 Bft) S-SE 165 ° 0 min 0,000 mm 0,0 UV-I 0 W/m² 13,3 °C 15,3 °C 3,2 km/h (1 Bft)
03/05/2026 22:02 15,4 °C 14,4 °C 14,4 °C 13,3 °C 12,8 °C 88 % 15 lf 15 lf 4 cb 52 cb 200 cb 1010,9 hPa 0,0 mm 1,2 km/h (1 Bft) S-SE 165 ° 0 min 0,000 mm 0,0 UV-I 0 W/m² 13,4 °C 15,4 °C 4,8 km/h (1 Bft)
03/05/2026 22:00 15,4 °C 14,4 °C 14,4 °C 13,3 °C 12,8 °C 88 % 15 lf 15 lf 4 cb 52 cb 200 cb 1010,9 hPa 0,0 mm 1,9 km/h (1 Bft) S-SE 165 ° 0 min 0,000 mm 0,0 UV-I 0 W/m² 13,4 °C 15,4 °C 6,4 km/h (2 Bft)
03/05/2026 21:58 15,4 °C 14,4 °C 14,4 °C 13,3 °C 12,8 °C 88 % 15 lf 15 lf 4 cb 52 cb 200 cb 1010,9 hPa 0,0 mm 2,5 km/h (1 Bft) E-SE 123 ° 0 min 0,000 mm 0,0 UV-I 0 W/m² 13,4 °C 15,4 °C 4,8 km/h (1 Bft)
03/05/2026 21:56 15,4 °C 14,4 °C 14,4 °C 13,3 °C 12,8 °C 88 % 15 lf 15 lf 4 cb 52 cb 200 cb 1011,0 hPa 0,0 mm 1,8 km/h (1 Bft) E-SE 123 ° 0 min 0,000 mm 0,0 UV-I 0 W/m² 13,4 °C 15,4 °C 4,8 km/h (1 Bft)
03/05/2026 21:54 15,4 °C 14,4 °C 14,4 °C 13,3 °C 12,8 °C 88 % 15 lf 15 lf 4 cb 52 cb 200 cb 1011,0 hPa 0,0 mm 1,6 km/h (1 Bft) E-SE 123 ° 0 min 0,000 mm 0,0 UV-I 0 W/m² 13,4 °C 15,4 °C 4,8 km/h (1 Bft)
03/05/2026 21:52 15,4 °C 14,4 °C 14,4 °C 13,3 °C 12,8 °C 88 % 15 lf 15 lf 4 cb 52 cb 200 cb 1011,0 hPa 0,0 mm 0,6 km/h (0 Bft) E-SE 123 ° 0 min 0,000 mm 0,0 UV-I 0 W/m² 13,4 °C 15,4 °C 3,2 km/h (1 Bft)
03/05/2026 21:50 15,4 °C 15,0 °C 14,4 °C 13,3 °C 12,8 °C 88 % 15 lf 15 lf 4 cb 52 cb 200 cb 1010,9 hPa 0,0 mm 1,2 km/h (1 Bft) E-SE 123 ° 0 min 0,000 mm 0,0 UV-I 0 W/m² 13,4 °C 15,4 °C 3,2 km/h (1 Bft)
03/05/2026 21:48 15,4 °C 15,0 °C 14,4 °C 13,3 °C 12,8 °C 88 % 15 lf 15 lf 4 cb 52 cb 200 cb 1010,9 hPa 0,0 mm 0,6 km/h (0 Bft) E-SE 123 ° 0 min 0,000 mm 0,0 UV-I 0 W/m² 13,4 °C 15,4 °C 3,2 km/h (1 Bft)
03/05/2026 21:46 15,5 °C 15,0 °C 14,4 °C 13,3 °C 12,8 °C 88 % 15 lf 15 lf 4 cb 51 cb 200 cb 1010,9 hPa 0,0 mm 1,1 km/h (1 Bft) E-SE 123 ° 0 min 0,000 mm 0,0 UV-I 0 W/m² 13,5 °C 15,5 °C 3,2 km/h (1 Bft)
03/05/2026 21:44 15,5 °C 15,0 °C 14,4 °C 13,3 °C 12,8 °C 88 % 15 lf 15 lf 4 cb 51 cb 200 cb 1010,9 hPa 0,0 mm 1,1 km/h (1 Bft) E-SE 123 ° 0 min 0,000 mm 0,0 UV-I 0 W/m² 13,5 °C 15,5 °C 4,8 km/h (1 Bft)
03/05/2026 21:42 15,6 °C 15,0 °C 14,4 °C 13,3 °C 12,8 °C 88 % 13 lf 15 lf 4 cb 51 cb 200 cb 1010,8 hPa 0,0 mm 1,9 km/h (1 Bft) E-SE 123 ° 0 min 0,000 mm 0,0 UV-I 0 W/m² 13,6 °C 15,6 °C 4,8 km/h (1 Bft)
03/05/2026 21:40 15,6 °C 15,0 °C 14,4 °C 13,3 °C 12,8 °C 88 % 3 lf 7 lf 4 cb 51 cb 200 cb 1010,8 hPa 0,0 mm 1,9 km/h (1 Bft) E-SE 123 ° 0 min 0,000 mm 0,0 UV-I 0 W/m² 13,6 °C 15,6 °C 3,2 km/h (1 Bft)
03/05/2026 21:38 15,6 °C 15,0 °C 14,4 °C 13,3 °C 12,8 °C 88 % 2 lf 1 lf 4 cb 51 cb 200 cb 1010,8 hPa 0,0 mm 1,1 km/h (1 Bft) E-SE 123 ° 0 min 0,000 mm 0,0 UV-I 0 W/m² 13,6 °C 15,6 °C 3,2 km/h (1 Bft)
03/05/2026 21:36 15,6 °C 15,0 °C 14,4 °C 13,3 °C 12,8 °C 88 % 2 lf 1 lf 4 cb 51 cb 200 cb 1010,8 hPa 0,0 mm 1,7 km/h (1 Bft) E-SE 123 ° 0 min 0,000 mm 0,0 UV-I 0 W/m² 13,6 °C 15,6 °C 3,2 km/h (1 Bft)
03/05/2026 21:34 15,6 °C 15,0 °C 14,4 °C 13,3 °C 12,8 °C 88 % 2 lf 1 lf 4 cb 51 cb 200 cb 1010,8 hPa 0,0 mm 1,5 km/h (1 Bft) E-SE 123 ° 0 min 0,000 mm 0,0 UV-I 0 W/m² 13,6 °C 15,6 °C 6,4 km/h (2 Bft)
03/05/2026 21:32 15,6 °C 15,0 °C 14,4 °C 13,3 °C 12,8 °C 88 % 2 lf 2 lf 4 cb 51 cb 200 cb 1010,7 hPa 0,0 mm 1,7 km/h (1 Bft) E-SE 123 ° 0 min 0,000 mm 0,0 UV-I 0 W/m² 13,6 °C 15,6 °C 4,8 km/h (1 Bft)
03/05/2026 21:30 15,7 °C 15,0 °C 14,4 °C 13,3 °C 12,8 °C 88 % 2 lf 2 lf 4 cb 51 cb 200 cb 1010,7 hPa 0,0 mm 1,9 km/h (1 Bft) E-SE 123 ° 0 min 0,000 mm 0,0 UV-I 0 W/m² 13,7 °C 15,7 °C 6,4 km/h (2 Bft)
03/05/2026 21:28 15,7 °C 15,0 °C 14,4 °C 13,3 °C 12,8 °C 87 % 3 lf 2 lf 4 cb 51 cb 200 cb 1010,7 hPa 0,0 mm 1,9 km/h (1 Bft) E-SE 123 ° 0 min 0,000 mm 0,0 UV-I 0 W/m² 13,5 °C 15,7 °C 4,8 km/h (1 Bft)
03/05/2026 21:26 15,7 °C 15,0 °C 14,4 °C 13,3 °C 12,8 °C 87 % 3 lf 2 lf 4 cb 51 cb 200 cb 1010,6 hPa 0,0 mm 2,5 km/h (1 Bft) E-SE 123 ° 0 min 0,000 mm 0,0 UV-I 0 W/m² 13,5 °C 15,7 °C 6,4 km/h (2 Bft)
03/05/2026 21:24 15,7 °C 15,0 °C 14,4 °C 13,3 °C 12,8 °C 87 % 3 lf 2 lf 4 cb 51 cb 200 cb 1010,6 hPa 0,0 mm 2,0 km/h (1 Bft) E-SE 123 ° 0 min 0,000 mm 0,0 UV-I 0 W/m² 13,5 °C 15,7 °C 3,2 km/h (1 Bft)
03/05/2026 21:22 15,7 °C 15,0 °C 14,4 °C 13,3 °C 12,8 °C 87 % 3 lf 2 lf 4 cb 51 cb 200 cb 1010,6 hPa 0,0 mm 1,9 km/h (1 Bft) E-SE 123 ° 0 min 0,000 mm 0,0 UV-I 7 W/m² 13,5 °C 15,7 °C 4,8 km/h (1 Bft)
03/05/2026 21:20 15,8 °C 15,0 °C 14,4 °C 13,3 °C 12,8 °C 87 % 3 lf 2 lf 4 cb 51 cb 200 cb 1010,6 hPa 0,0 mm 1,2 km/h (1 Bft) E-SE 123 ° 0 min 0,000 mm 0,0 UV-I 11 W/m² 13,6 °C 15,8 °C 3,2 km/h (1 Bft)
03/05/2026 21:18 15,8 °C 15,0 °C 14,4 °C 13,3 °C 12,8 °C 87 % 3 lf 3 lf 4 cb 51 cb 200 cb 1010,5 hPa 0,0 mm 1,3 km/h (1 Bft) E-SE 123 ° 0 min 0,000 mm 0,0 UV-I 12 W/m² 13,6 °C 15,8 °C 4,8 km/h (1 Bft)
03/05/2026 21:16 15,8 °C 15,0 °C 14,4 °C 13,3 °C 12,8 °C 87 % 3 lf 3 lf 4 cb 51 cb 200 cb 1010,5 hPa 0,0 mm 1,4 km/h (1 Bft) E-SE 123 ° 0 min 0,000 mm 0,0 UV-I 12 W/m² 13,6 °C 15,8 °C 3,2 km/h (1 Bft)
03/05/2026 21:14 15,8 °C 15,0 °C 14,4 °C 13,3 °C 12,8 °C 87 % 3 lf 3 lf 4 cb 51 cb 200 cb 1010,4 hPa 0,0 mm 0,1 km/h (0 Bft) E-SE 123 ° 0 min 0,000 mm 0,0 UV-I 11 W/m² 13,6 °C 15,8 °C 1,6 km/h (1 Bft)
03/05/2026 21:12 15,8 °C 15,0 °C 14,4 °C 13,3 °C 12,8 °C 87 % 3 lf 3 lf 4 cb 51 cb 200 cb 1010,5 hPa 0,0 mm 0,3 km/h (0 Bft) E-SE 123 ° 0 min 0,000 mm 0,0 UV-I 9 W/m² 13,6 °C 15,8 °C 1,6 km/h (1 Bft)
03/05/2026 21:10 15,8 °C 15,0 °C 14,4 °C 13,3 °C 12,8 °C 87 % 4 lf 3 lf 4 cb 51 cb 200 cb 1010,5 hPa 0,0 mm 0,1 km/h (0 Bft) E-SE 123 ° 0 min 0,000 mm 0,0 UV-I 9 W/m² 13,6 °C 15,8 °C 1,6 km/h (1 Bft)
03/05/2026 21:08 15,8 °C 15,0 °C 14,4 °C 13,3 °C 12,8 °C 87 % 3 lf 3 lf 4 cb 51 cb 200 cb 1010,5 hPa 0,0 mm 0,2 km/h (0 Bft) E-SE 123 ° 0 min 0,000 mm 0,0 UV-I 9 W/m² 13,6 °C 15,8 °C 1,6 km/h (1 Bft)
03/05/2026 21:06 15,8 °C 15,0 °C 14,4 °C 13,3 °C 12,8 °C 87 % 3 lf 3 lf 4 cb 51 cb 200 cb 1010,4 hPa 0,0 mm 0,1 km/h (0 Bft) E-SE 123 ° 0 min 0,000 mm 0,0 UV-I 9 W/m² 13,6 °C 15,8 °C 1,6 km/h (1 Bft)
03/05/2026 21:04 15,8 °C 15,0 °C 14,4 °C 13,3 °C 12,8 °C 87 % 3 lf 3 lf 4 cb 51 cb 200 cb 1010,4 hPa 0,0 mm 1,6 km/h (1 Bft) E-SE 123 ° 0 min 0,000 mm 0,0 UV-I 9 W/m² 13,6 °C 15,8 °C 3,2 km/h (1 Bft)
03/05/2026 21:02 15,8 °C 15,0 °C 14,4 °C 13,3 °C 12,8 °C 87 % 3 lf 3 lf 4 cb 51 cb 200 cb 1010,4 hPa 0,0 mm 0,4 km/h (0 Bft) E-SE 123 ° 0 min 0,000 mm 0,0 UV-I 11 W/m² 13,6 °C 15,8 °C 3,2 km/h (1 Bft)
03/05/2026 21:00 15,9 °C 15,0 °C 14,4 °C 13,3 °C 12,8 °C 87 % 2 lf 1 lf 4 cb 51 cb 200 cb 1010,4 hPa 0,0 mm 0,1 km/h (0 Bft) E-SE 123 ° 2 min 0,025 mm 0,0 UV-I 12 W/m² 13,7 °C 15,9 °C 1,6 km/h (1 Bft)
03/05/2026 20:58 15,9 °C 15,0 °C 14,4 °C 13,3 °C 12,8 °C 87 % 0 lf 0 lf 4 cb 51 cb 200 cb 1010,4 hPa 0,0 mm 0,9 km/h (0 Bft) E-SE 123 ° 2 min 0,000 mm 0,0 UV-I 14 W/m² 13,7 °C 15,9 °C 3,2 km/h (1 Bft)
03/05/2026 20:56 15,9 °C 15,0 °C 14,4 °C 13,3 °C 12,8 °C 87 % 0 lf 0 lf 4 cb 51 cb 200 cb 1010,3 hPa 0,0 mm 1,9 km/h (1 Bft) E-SE 123 ° 2 min 0,000 mm 0,0 UV-I 16 W/m² 13,7 °C 15,9 °C 4,8 km/h (1 Bft)
03/05/2026 20:54 15,9 °C 15,0 °C 14,4 °C 13,3 °C 12,8 °C 87 % 0 lf 0 lf 4 cb 50 cb 200 cb 1010,3 hPa 0,0 mm 0,7 km/h (0 Bft) SE 133 ° 0 min 0,000 mm 0,0 UV-I 16 W/m² 13,7 °C 15,9 °C 1,6 km/h (1 Bft)
03/05/2026 20:52 15,9 °C 15,0 °C 14,4 °C 13,3 °C 12,8 °C 87 % 0 lf 0 lf 4 cb 50 cb 200 cb 1010,4 hPa 0,0 mm 0,5 km/h (0 Bft) SE 133 ° 0 min 0,000 mm 0,0 UV-I 18 W/m² 13,7 °C 15,9 °C 3,2 km/h (1 Bft)
03/05/2026 20:50 15,9 °C 15,6 °C 14,4 °C 13,3 °C 12,8 °C 87 % 0 lf 0 lf 4 cb 50 cb 200 cb 1010,3 hPa 0,0 mm 0,2 km/h (0 Bft) SE 133 ° 0 min 0,000 mm 0,0 UV-I 19 W/m² 13,7 °C 15,9 °C 1,6 km/h (1 Bft)
03/05/2026 20:48 15,9 °C 15,0 °C 14,4 °C 13,3 °C 12,8 °C 87 % 0 lf 0 lf 4 cb 50 cb 200 cb 1010,3 hPa 0,0 mm 0,8 km/h (0 Bft) SE 133 ° 2 min 0,000 mm 0,0 UV-I 26 W/m² 13,7 °C 15,9 °C 1,6 km/h (1 Bft)
03/05/2026 20:46 16,0 °C 15,0 °C 14,4 °C 13,3 °C 12,8 °C 87 % 0 lf 0 lf 4 cb 50 cb 200 cb 1010,2 hPa 0,0 mm 0,3 km/h (0 Bft) SE 133 ° 2 min 0,000 mm 0,0 UV-I 30 W/m² 13,8 °C 16,0 °C 1,6 km/h (1 Bft)
03/05/2026 20:44 15,9 °C 15,6 °C 14,4 °C 13,3 °C 12,8 °C 87 % 0 lf 0 lf 4 cb 50 cb 200 cb 1010,2 hPa 0,0 mm 0,8 km/h (0 Bft) SE 133 ° 0 min 0,000 mm 0,0 UV-I 26 W/m² 13,7 °C 15,9 °C 3,2 km/h (1 Bft)
03/05/2026 20:42 16,0 °C 15,6 °C 14,4 °C 13,3 °C 12,8 °C 87 % 0 lf 0 lf 4 cb 50 cb 200 cb 1010,2 hPa 0,0 mm 0,3 km/h (0 Bft) SE 133 ° 0 min 0,000 mm 0,0 UV-I 21 W/m² 13,8 °C 16,0 °C 1,6 km/h (1 Bft)
03/05/2026 20:40 16,0 °C 15,6 °C 14,4 °C 13,3 °C 12,8 °C 87 % 0 lf 0 lf 4 cb 50 cb 200 cb 1010,1 hPa 0,0 mm 1,3 km/h (1 Bft) SE 133 ° 0 min 0,000 mm 0,0 UV-I 21 W/m² 13,8 °C 16,0 °C 3,2 km/h (1 Bft)
03/05/2026 20:38 16,0 °C 15,6 °C 14,4 °C 13,3 °C 12,8 °C 87 % 0 lf 0 lf 4 cb 50 cb 200 cb 1010,1 hPa 0,0 mm 0,5 km/h (0 Bft) SE 133 ° 0 min 0,000 mm 0,0 UV-I 21 W/m² 13,8 °C 16,0 °C 3,2 km/h (1 Bft)
03/05/2026 20:36 16,1 °C 15,6 °C 14,4 °C 13,3 °C 12,8 °C 87 % 0 lf 0 lf 4 cb 50 cb 200 cb 1010,1 hPa 0,0 mm 0,7 km/h (0 Bft) SE 133 ° 0 min 0,000 mm 0,0 UV-I 23 W/m² 13,9 °C 16,1 °C 1,6 km/h (1 Bft)
03/05/2026 20:34 16,1 °C 15,6 °C 14,4 °C 13,3 °C 12,8 °C 87 % 0 lf 0 lf 4 cb 50 cb 200 cb 1010,1 hPa 0,0 mm 1,2 km/h (1 Bft) SE 133 ° 0 min 0,000 mm 0,0 UV-I 23 W/m² 13,9 °C 16,1 °C 3,2 km/h (1 Bft)
03/05/2026 20:32 16,1 °C 15,6 °C 14,4 °C 13,3 °C 12,8 °C 87 % 0 lf 0 lf 4 cb 50 cb 200 cb 1010,1 hPa 0,0 mm 0,1 km/h (0 Bft) SE 133 ° 0 min 0,000 mm 0,0 UV-I 23 W/m² 13,9 °C 16,1 °C 1,6 km/h (1 Bft)
03/05/2026 20:30 16,1 °C 15,6 °C 14,4 °C 13,3 °C 12,8 °C 87 % 0 lf 0 lf 4 cb 50 cb 200 cb 1010,1 hPa 0,0 mm 0,5 km/h (0 Bft) SE 133 ° 0 min 0,000 mm 0,0 UV-I 23 W/m² 13,9 °C 16,1 °C 3,2 km/h (1 Bft)
03/05/2026 20:28 16,1 °C 15,6 °C 14,4 °C 13,3 °C 12,8 °C 87 % 0 lf 0 lf 4 cb 50 cb 200 cb 1010,1 hPa 0,0 mm 0,7 km/h (0 Bft) SE 133 ° 0 min 0,000 mm 0,0 UV-I 21 W/m² 13,9 °C 16,1 °C 3,2 km/h (1 Bft)
03/05/2026 20:26 16,1 °C 15,6 °C 14,4 °C 13,3 °C 12,8 °C 87 % 0 lf 0 lf 4 cb 50 cb 200 cb 1010,1 hPa 0,0 mm 0,3 km/h (0 Bft) SE 133 ° 0 min 0,000 mm 0,0 UV-I 21 W/m² 13,9 °C 16,1 °C 3,2 km/h (1 Bft)
03/05/2026 20:24 16,1 °C 15,6 °C 14,4 °C 13,3 °C 12,8 °C 87 % 0 lf 0 lf 4 cb 49 cb 200 cb 1010,1 hPa 0,0 mm 0,1 km/h (0 Bft) SE 133 ° 0 min 0,000 mm 0,0 UV-I 25 W/m² 13,9 °C 16,1 °C 1,6 km/h (1 Bft)
03/05/2026 20:22 16,1 °C 15,6 °C 14,4 °C 13,3 °C 12,8 °C 87 % 0 lf 0 lf 4 cb 49 cb 200 cb 1010,1 hPa 0,0 mm 0,0 km/h (0 Bft) SE 133 ° 0 min 0,000 mm 0,0 UV-I 25 W/m² 13,9 °C 16,1 °C 0,0 km/h (0 Bft)
03/05/2026 20:20 16,0 °C 15,6 °C 14,4 °C 13,3 °C 12,8 °C 87 % 0 lf 0 lf 4 cb 49 cb 200 cb 1010,1 hPa 0,0 mm 0,1 km/h (0 Bft) SE 133 ° 0 min 0,000 mm 0,0 UV-I 25 W/m² 13,8 °C 16,0 °C 1,6 km/h (1 Bft)
03/05/2026 20:18 16,0 °C 15,6 °C 14,4 °C 13,3 °C 12,8 °C 87 % 0 lf 0 lf 4 cb 49 cb 200 cb 1010,1 hPa 0,0 mm 0,3 km/h (0 Bft) SE 133 ° 0 min 0,000 mm 0,0 UV-I 25 W/m² 13,8 °C 16,0 °C 3,2 km/h (1 Bft)
03/05/2026 20:16 16,0 °C 15,6 °C 14,4 °C 13,3 °C 12,8 °C 87 % 0 lf 0 lf 4 cb 49 cb 200 cb 1010,1 hPa 0,0 mm 1,2 km/h (1 Bft) SE 133 ° 0 min 0,000 mm 0,0 UV-I 26 W/m² 13,8 °C 16,0 °C 3,2 km/h (1 Bft)
03/05/2026 20:14 16,0 °C 15,6 °C 14,4 °C 13,3 °C 12,8 °C 87 % 0 lf 0 lf 4 cb 49 cb 200 cb 1010,1 hPa 0,0 mm 0,6 km/h (0 Bft) SE 133 ° 0 min 0,000 mm 0,0 UV-I 30 W/m² 13,8 °C 16,0 °C 1,6 km/h (1 Bft)
03/05/2026 20:12 16,0 °C 15,6 °C 14,4 °C 13,3 °C 12,8 °C 87 % 0 lf 0 lf 4 cb 49 cb 200 cb 1010,1 hPa 0,0 mm 0,0 km/h (0 Bft) SE 133 ° 0 min 0,000 mm 0,0 UV-I 30 W/m² 13,8 °C 16,0 °C 0,0 km/h (0 Bft)
03/05/2026 20:10 16,0 °C 15,6 °C 14,4 °C 13,3 °C 12,8 °C 87 % 0 lf 0 lf 4 cb 49 cb 200 cb 1010,1 hPa 0,0 mm 0,0 km/h (0 Bft) SE 133 ° 0 min 0,000 mm 0,0 UV-I 28 W/m² 13,8 °C 16,0 °C 0,0 km/h (0 Bft)
03/05/2026 20:08 16,0 °C 16,1 °C 14,4 °C 13,3 °C 12,8 °C 87 % 0 lf 0 lf 4 cb 49 cb 200 cb 1010,0 hPa 0,0 mm 0,0 km/h (0 Bft) SE 133 ° 0 min 0,000 mm 0,0 UV-I 30 W/m² 13,8 °C 16,0 °C 0,0 km/h (0 Bft)
03/05/2026 20:06 16,0 °C 16,1 °C 14,4 °C 13,3 °C 12,8 °C 87 % 0 lf 0 lf 4 cb 49 cb 200 cb 1010,0 hPa 0,0 mm 0,0 km/h (0 Bft) SE 133 ° 0 min 0,000 mm 0,0 UV-I 32 W/m² 13,8 °C 16,0 °C 1,6 km/h (1 Bft)
03/05/2026 20:04 16,1 °C 16,1 °C 14,4 °C 13,3 °C 12,8 °C 87 % 0 lf 0 lf 4 cb 49 cb 200 cb 1010,0 hPa 0,0 mm 0,7 km/h (0 Bft) SE 133 ° 0 min 0,000 mm 0,0 UV-I 32 W/m² 13,9 °C 16,1 °C 1,6 km/h (1 Bft)
03/05/2026 20:02 16,1 °C 16,1 °C 14,4 °C 13,3 °C 12,8 °C 87 % 0 lf 0 lf 4 cb 49 cb 200 cb 1010,0 hPa 0,0 mm 1,0 km/h (0 Bft) SE 133 ° 0 min 0,000 mm 0,0 UV-I 28 W/m² 13,9 °C 16,1 °C 3,2 km/h (1 Bft)
03/05/2026 20:00 16,1 °C 16,1 °C 14,4 °C 13,3 °C 12,8 °C 87 % 0 lf 0 lf 4 cb 49 cb 200 cb 1010,0 hPa 0,0 mm 0,5 km/h (0 Bft) SE 133 ° 0 min 0,076 mm 0,0 UV-I 30 W/m² 13,9 °C 16,1 °C 3,2 km/h (1 Bft)
03/05/2026 19:58 16,2 °C 16,1 °C 14,4 °C 13,3 °C 12,8 °C 87 % 0 lf 0 lf 4 cb 49 cb 200 cb 1009,9 hPa 0,0 mm 0,3 km/h (0 Bft) SE 133 ° 0 min 0,000 mm 0,0 UV-I 35 W/m² 14,0 °C 16,2 °C 1,6 km/h (1 Bft)
03/05/2026 19:56 16,1 °C 16,1 °C 14,4 °C 13,3 °C 12,8 °C 87 % 0 lf 0 lf 4 cb 49 cb 200 cb 1010,0 hPa 0,0 mm 0,2 km/h (0 Bft) O-SO 240 ° 0 min 0,000 mm 0,0 UV-I 35 W/m² 13,9 °C 16,1 °C 1,6 km/h (1 Bft)
03/05/2026 19:54 16,2 °C 16,1 °C 14,4 °C 13,3 °C 12,8 °C 87 % 0 lf 0 lf 4 cb 49 cb 200 cb 1010,0 hPa 0,0 mm 0,8 km/h (0 Bft) O-SO 240 ° 0 min 0,000 mm 0,0 UV-I 33 W/m² 14,0 °C 16,2 °C 3,2 km/h (1 Bft)
03/05/2026 19:52 16,2 °C 16,1 °C 14,4 °C 13,3 °C 12,8 °C 86 % 0 lf 0 lf 4 cb 49 cb 200 cb 1010,0 hPa 0,0 mm 0,1 km/h (0 Bft) O-SO 240 ° 0 min 0,000 mm 0,0 UV-I 32 W/m² 13,9 °C 16,2 °C 1,6 km/h (1 Bft)
03/05/2026 19:50 16,2 °C 16,1 °C 14,4 °C 13,3 °C 12,8 °C 86 % 0 lf 0 lf 4 cb 49 cb 200 cb 1010,0 hPa 0,0 mm 0,4 km/h (0 Bft) O-SO 240 ° 0 min 0,000 mm 0,0 UV-I 33 W/m² 13,9 °C 16,2 °C 1,6 km/h (1 Bft)
03/05/2026 19:48 16,3 °C 16,1 °C 14,4 °C 13,3 °C 12,8 °C 86 % 0 lf 0 lf 4 cb 49 cb 200 cb 1010,0 hPa 0,0 mm 1,0 km/h (0 Bft) O-SO 240 ° 0 min 0,000 mm 0,0 UV-I 30 W/m² 14,0 °C 16,3 °C 3,2 km/h (1 Bft)
03/05/2026 19:46 16,4 °C 16,1 °C 14,4 °C 13,3 °C 12,8 °C 85 % 0 lf 0 lf 4 cb 49 cb 200 cb 1010,1 hPa 0,0 mm 2,1 km/h (1 Bft) O-SO 240 ° 0 min 0,000 mm 0,0 UV-I 28 W/m² 13,9 °C 16,4 °C 4,8 km/h (1 Bft)
03/05/2026 19:44 16,4 °C 16,1 °C 14,4 °C 13,3 °C 12,8 °C 85 % 0 lf 0 lf 4 cb 49 cb 200 cb 1010,1 hPa 0,0 mm 1,3 km/h (1 Bft) O-SO 240 ° 0 min 0,000 mm 0,0 UV-I 30 W/m² 13,9 °C 16,4 °C 3,2 km/h (1 Bft)
03/05/2026 19:42 16,5 °C 16,1 °C 14,4 °C 13,3 °C 12,8 °C 85 % 0 lf 0 lf 4 cb 49 cb 200 cb 1010,1 hPa 0,0 mm 2,6 km/h (1 Bft) O-SO 240 ° 0 min 0,000 mm 0,0 UV-I 32 W/m² 14,0 °C 16,5 °C 4,8 km/h (1 Bft)
03/05/2026 19:40 16,6 °C 16,1 °C 14,4 °C 13,3 °C 12,8 °C 85 % 0 lf 0 lf 4 cb 48 cb 200 cb 1010,1 hPa 0,0 mm 3,3 km/h (1 Bft) O-SO 240 ° 0 min 0,000 mm 0,0 UV-I 35 W/m² 14,1 °C 16,6 °C 4,8 km/h (1 Bft)
03/05/2026 19:38 16,7 °C 16,7 °C 14,4 °C 13,3 °C 12,8 °C 85 % 0 lf 0 lf 4 cb 48 cb 200 cb 1010,0 hPa 0,0 mm 3,6 km/h (1 Bft) O-SO 240 ° 0 min 0,000 mm 0,0 UV-I 42 W/m² 14,2 °C 16,7 °C 4,8 km/h (1 Bft)
03/05/2026 19:36 16,8 °C 16,7 °C 14,4 °C 13,3 °C 12,8 °C 85 % 0 lf 0 lf 4 cb 48 cb 200 cb 1010,0 hPa 0,0 mm 2,5 km/h (1 Bft) O-SO 240 ° 0 min 0,000 mm 0,0 UV-I 49 W/m² 14,3 °C 16,8 °C 6,4 km/h (2 Bft)
03/05/2026 19:34 16,9 °C 16,7 °C 14,4 °C 13,3 °C 12,8 °C 85 % 0 lf 0 lf 4 cb 48 cb 200 cb 1010,0 hPa 0,0 mm 2,3 km/h (1 Bft) O-SO 240 ° 0 min 0,000 mm 0,0 UV-I 58 W/m² 14,4 °C 16,9 °C 4,8 km/h (1 Bft)
03/05/2026 19:32 17,0 °C 16,7 °C 14,4 °C 13,3 °C 12,8 °C 85 % 0 lf 0 lf 4 cb 48 cb 200 cb 1010,0 hPa 0,0 mm 1,7 km/h (1 Bft) O-SO 240 ° 0 min 0,000 mm 0,0 UV-I 76 W/m² 14,5 °C 17,0 °C 4,8 km/h (1 Bft)
03/05/2026 19:30 17,1 °C 16,7 °C 14,4 °C 13,3 °C 12,8 °C 85 % 0 lf 0 lf 4 cb 48 cb 200 cb 1010,0 hPa 0,0 mm 5,3 km/h (1 Bft) O-SO 240 ° 0 min 0,000 mm 0,0 UV-I 118 W/m² 14,6 °C 17,1 °C 8,0 km/h (2 Bft)
03/05/2026 19:28 17,1 °C 16,7 °C 14,4 °C 13,3 °C 12,8 °C 85 % 0 lf 0 lf 4 cb 48 cb 200 cb 1010,0 hPa 0,0 mm 4,0 km/h (1 Bft) O-SO 242 ° 2 min 0,000 mm 0,0 UV-I 204 W/m² 14,6 °C 17,1 °C 6,4 km/h (2 Bft)
03/05/2026 19:26 17,0 °C 16,7 °C 14,4 °C 13,3 °C 12,8 °C 86 % 0 lf 0 lf 4 cb 48 cb 200 cb 1010,0 hPa 0,0 mm 2,7 km/h (1 Bft) O-SO 242 ° 2 min 0,000 mm 0,0 UV-I 185 W/m² 14,6 °C 17,0 °C 4,8 km/h (1 Bft)
03/05/2026 19:24 16,9 °C 16,7 °C 14,4 °C 13,3 °C 12,8 °C 85 % 0 lf 0 lf 4 cb 48 cb 200 cb 1010,0 hPa 0,0 mm 2,9 km/h (1 Bft) O-SO 242 ° 2 min 0,000 mm 0,0 UV-I 156 W/m² 14,4 °C 16,9 °C 4,8 km/h (1 Bft)
03/05/2026 19:22 16,9 °C 16,7 °C 14,4 °C 13,3 °C 12,8 °C 85 % 0 lf 0 lf 4 cb 48 cb 200 cb 1010,0 hPa 0,0 mm 1,1 km/h (1 Bft) O-SO 242 ° 2 min 0,000 mm 0,5 UV-I 195 W/m² 14,4 °C 16,9 °C 3,2 km/h (1 Bft)
03/05/2026 19:20 16,9 °C 16,7 °C 14,4 °C 13,3 °C 12,8 °C 85 % 0 lf 0 lf 4 cb 48 cb 200 cb 1010,0 hPa 0,0 mm 2,2 km/h (1 Bft) O-SO 242 ° 0 min 0,000 mm 0,0 UV-I 100 W/m² 14,4 °C 16,9 °C 4,8 km/h (1 Bft)
03/05/2026 19:18 17,0 °C 17,2 °C 14,4 °C 13,3 °C 12,8 °C 85 % 0 lf 0 lf 4 cb 48 cb 200 cb 1010,0 hPa 0,0 mm 3,7 km/h (1 Bft) O-SO 242 ° 0 min 0,000 mm 0,5 UV-I 97 W/m² 14,5 °C 17,0 °C 6,4 km/h (2 Bft)
03/05/2026 19:16 17,1 °C 17,2 °C 14,4 °C 13,3 °C 12,8 °C 85 % 0 lf 0 lf 5 cb 48 cb 200 cb 1010,0 hPa 0,0 mm 3,5 km/h (1 Bft) O 262 ° 0 min 0,000 mm 0,5 UV-I 98 W/m² 14,6 °C 17,1 °C 4,8 km/h (1 Bft)
03/05/2026 19:14 17,1 °C 17,2 °C 14,4 °C 13,3 °C 12,8 °C 86 % 0 lf 0 lf 5 cb 47 cb 200 cb 1010,0 hPa 0,0 mm 2,1 km/h (1 Bft) O 262 ° 2 min 0,000 mm 0,5 UV-I 251 W/m² 14,7 °C 17,1 °C 4,8 km/h (1 Bft)
03/05/2026 19:12 17,0 °C 17,2 °C 14,4 °C 13,3 °C 12,8 °C 86 % 0 lf 0 lf 5 cb 47 cb 200 cb 1010,1 hPa 0,0 mm 0,7 km/h (0 Bft) O 262 ° 2 min 0,000 mm 0,5 UV-I 213 W/m² 14,6 °C 17,0 °C 3,2 km/h (1 Bft)
03/05/2026 19:10 17,1 °C 17,2 °C 14,4 °C 13,3 °C 12,8 °C 86 % 0 lf 0 lf 5 cb 47 cb 200 cb 1010,0 hPa 0,0 mm 1,8 km/h (1 Bft) O 262 ° 2 min 0,000 mm 0,5 UV-I 204 W/m² 14,7 °C 17,1 °C 3,2 km/h (1 Bft)
03/05/2026 19:08 17,1 °C 17,2 °C 14,4 °C 13,3 °C 12,8 °C 86 % 0 lf 0 lf 5 cb 47 cb 200 cb 1010,0 hPa 0,0 mm 2,5 km/h (1 Bft) O 262 ° 2 min 0,000 mm 0,5 UV-I 223 W/m² 14,7 °C 17,1 °C 4,8 km/h (1 Bft)
03/05/2026 19:06 17,2 °C 17,2 °C 14,4 °C 13,3 °C 12,8 °C 85 % 0 lf 0 lf 5 cb 47 cb 200 cb 1010,1 hPa 0,0 mm 2,3 km/h (1 Bft) O 262 ° 0 min 0,000 mm 0,5 UV-I 141 W/m² 14,7 °C 17,2 °C 4,8 km/h (1 Bft)
03/05/2026 19:04 17,2 °C 17,2 °C 14,4 °C 13,3 °C 12,8 °C 85 % 0 lf 0 lf 5 cb 47 cb 200 cb 1010,1 hPa 0,0 mm 1,6 km/h (1 Bft) O 265 ° 0 min 0,000 mm 0,6 UV-I 137 W/m² 14,7 °C 17,2 °C 4,8 km/h (1 Bft)
03/05/2026 19:02 17,2 °C 17,2 °C 14,4 °C 13,3 °C 12,8 °C 85 % 0 lf 0 lf 5 cb 47 cb 200 cb 1010,1 hPa 0,0 mm 2,8 km/h (1 Bft) O-SO 242 ° 2 min 0,000 mm 0,7 UV-I 345 W/m² 14,7 °C 17,2 °C 8,0 km/h (2 Bft)
03/05/2026 19:00 17,2 °C 17,2 °C 14,4 °C 13,3 °C 12,8 °C 84 % 0 lf 0 lf 5 cb 47 cb 200 cb 1010,1 hPa 0,0 mm 1,5 km/h (1 Bft) SO 226 ° 2 min 0,178 mm 0,7 UV-I 387 W/m² 14,5 °C 17,2 °C 3,2 km/h (1 Bft)
03/05/2026 18:58 17,2 °C 17,2 °C 14,4 °C 13,3 °C 12,8 °C 85 % 0 lf 0 lf 4 cb 47 cb 200 cb 1010,0 hPa 0,0 mm 1,4 km/h (1 Bft) SO 226 ° 0 min 0,000 mm 0,6 UV-I 165 W/m² 14,7 °C 17,2 °C 4,8 km/h (1 Bft)
03/05/2026 18:56 17,2 °C 17,2 °C 14,4 °C 13,3 °C 12,8 °C 84 % 0 lf 0 lf 4 cb 47 cb 200 cb 1010,0 hPa 0,0 mm 1,5 km/h (1 Bft) S-SO 210 ° 2 min 0,000 mm 0,6 UV-I 213 W/m² 14,5 °C 17,2 °C 4,8 km/h (1 Bft)
03/05/2026 18:54 17,3 °C 17,2 °C 14,4 °C 13,3 °C 12,8 °C 85 % 0 lf 0 lf 4 cb 46 cb 200 cb 1010,0 hPa 0,0 mm 4,5 km/h (1 Bft) S-SO 210 ° 2 min 0,000 mm 0,7 UV-I 257 W/m² 14,8 °C 17,3 °C 8,0 km/h (2 Bft)
03/05/2026 18:52 17,4 °C 17,2 °C 14,4 °C 13,3 °C 12,8 °C 84 % 0 lf 0 lf 4 cb 46 cb 200 cb 1010,0 hPa 0,0 mm 3,1 km/h (1 Bft) SO 230 ° 2 min 0,000 mm 0,8 UV-I 353 W/m² 14,7 °C 17,4 °C 8,0 km/h (2 Bft)
03/05/2026 18:50 17,5 °C 17,2 °C 14,4 °C 13,3 °C 12,8 °C 84 % 0 lf 0 lf 4 cb 46 cb 200 cb 1010,0 hPa 0,0 mm 2,0 km/h (1 Bft) O-SO 245 ° 2 min 0,000 mm 0,7 UV-I 345 W/m² 14,8 °C 17,5 °C 4,8 km/h (1 Bft)
03/05/2026 18:48 17,5 °C 17,2 °C 14,4 °C 13,3 °C 12,8 °C 84 % 0 lf 0 lf 4 cb 46 cb 200 cb 1009,9 hPa 0,0 mm 3,5 km/h (1 Bft) O-SO 241 ° 2 min 0,000 mm 0,8 UV-I 229 W/m² 14,8 °C 17,5 °C 9,7 km/h (2 Bft)
03/05/2026 18:46 17,7 °C 17,8 °C 14,4 °C 13,3 °C 12,8 °C 85 % 0 lf 0 lf 4 cb 45 cb 200 cb 1010,0 hPa 0,0 mm 3,3 km/h (1 Bft) O 276 ° 2 min 0,000 mm 0,8 UV-I 381 W/m² 15,1 °C 17,7 °C 8,0 km/h (2 Bft)
03/05/2026 18:44 17,8 °C 17,8 °C 14,4 °C 13,3 °C 12,8 °C 86 % 1 lf 1 lf 4 cb 45 cb 200 cb 1010,0 hPa 0,0 mm 1,3 km/h (1 Bft) O-SO 241 ° 2 min 0,000 mm 0,9 UV-I 388 W/m² 15,4 °C 17,8 °C 4,8 km/h (1 Bft)
03/05/2026 18:42 17,8 °C 17,8 °C 14,4 °C 13,3 °C 12,8 °C 86 % 2 lf 1 lf 4 cb 45 cb 200 cb 1009,9 hPa 0,0 mm 2,5 km/h (1 Bft) O-SO 240 ° 2 min 0,000 mm 0,9 UV-I 413 W/m² 15,4 °C 17,8 °C 4,8 km/h (1 Bft)
03/05/2026 18:40 17,7 °C 17,8 °C 14,4 °C 13,3 °C 12,8 °C 87 % 2 lf 2 lf 4 cb 45 cb 200 cb 1010,0 hPa 0,0 mm 2,0 km/h (1 Bft) O-SO 251 ° 2 min 0,000 mm 1,0 UV-I 406 W/m² 15,5 °C 17,7 °C 4,8 km/h (1 Bft)
03/05/2026 18:38 17,7 °C 17,8 °C 14,4 °C 13,3 °C 12,8 °C 87 % 3 lf 2 lf 4 cb 45 cb 200 cb 1009,9 hPa 0,0 mm 1,9 km/h (1 Bft) O-SO 251 ° 2 min 0,000 mm 1,0 UV-I 399 W/m² 15,5 °C 17,7 °C 3,2 km/h (1 Bft)
03/05/2026 18:36 17,2 °C 17,8 °C 14,4 °C 13,3 °C 12,8 °C 85 % 3 lf 3 lf 3 cb 45 cb 200 cb 1009,9 hPa 0,0 mm 0,6 km/h (0 Bft) O-SO 251 ° 2 min 0,000 mm 1,0 UV-I 420 W/m² 14,7 °C 17,2 °C 1,6 km/h (1 Bft)
03/05/2026 18:34 17,3 °C 17,8 °C 14,4 °C 13,3 °C 12,8 °C 86 % 3 lf 3 lf 3 cb 45 cb 200 cb 1010,0 hPa 0,0 mm 1,8 km/h (1 Bft) O-SO 251 ° 2 min 0,000 mm 0,9 UV-I 457 W/m² 14,9 °C 17,3 °C 4,8 km/h (1 Bft)
03/05/2026 18:32 17,2 °C 17,8 °C 14,4 °C 13,3 °C 12,8 °C 87 % 4 lf 5 lf 3 cb 45 cb 200 cb 1009,9 hPa 0,0 mm 1,6 km/h (1 Bft) O 267 ° 2 min 0,000 mm 1,1 UV-I 459 W/m² 15,0 °C 17,2 °C 4,8 km/h (1 Bft)
03/05/2026 18:30 17,1 °C 17,8 °C 14,4 °C 13,3 °C 12,8 °C 87 % 5 lf 10 lf 3 cb 45 cb 200 cb 1010,0 hPa 0,0 mm 3,7 km/h (1 Bft) O 266 ° 2 min 0,000 mm 1,1 UV-I 239 W/m² 14,9 °C 17,1 °C 8,0 km/h (2 Bft)
03/05/2026 18:28 17,2 °C 18,3 °C 14,4 °C 13,3 °C 12,8 °C 89 % 8 lf 13 lf 3 cb 45 cb 200 cb 1010,0 hPa 0,0 mm 2,1 km/h (1 Bft) O-SO 242 ° 2 min 0,000 mm 1,0 UV-I 278 W/m² 15,4 °C 17,2 °C 4,8 km/h (1 Bft)
03/05/2026 18:26 16,9 °C 17,8 °C 14,4 °C 13,3 °C 12,8 °C 89 % 11 lf 15 lf 3 cb 45 cb 200 cb 1010,0 hPa 0,0 mm 4,0 km/h (1 Bft) SO 225 ° 2 min 0,000 mm 1,3 UV-I 338 W/m² 15,1 °C 16,9 °C 6,4 km/h (2 Bft)
03/05/2026 18:24 16,7 °C 17,2 °C 14,4 °C 13,3 °C 12,8 °C 88 % 13 lf 15 lf 3 cb 45 cb 200 cb 1010,0 hPa 0,0 mm 1,9 km/h (1 Bft) O-SO 258 ° 2 min 0,000 mm 1,0 UV-I 338 W/m² 14,7 °C 16,7 °C 4,8 km/h (1 Bft)
03/05/2026 18:22 16,8 °C 17,8 °C 14,4 °C 13,3 °C 12,8 °C 89 % 14 lf 15 lf 3 cb 45 cb 200 cb 1010,0 hPa 0,0 mm 2,9 km/h (1 Bft) O-SO 258 ° 2 min 0,000 mm 1,0 UV-I 244 W/m² 15,0 °C 16,8 °C 8,0 km/h (2 Bft)
03/05/2026 18:20 17,1 °C 18,3 °C 14,4 °C 13,3 °C 12,8 °C 90 % 15 lf 15 lf 3 cb 45 cb 200 cb 1010,0 hPa 0,0 mm 2,7 km/h (1 Bft) O-SO 250 ° 2 min 0,000 mm 1,1 UV-I 503 W/m² 15,4 °C 17,1 °C 6,4 km/h (2 Bft)
03/05/2026 18:18 16,7 °C 17,8 °C 14,4 °C 13,3 °C 12,8 °C 90 % 15 lf 15 lf 3 cb 45 cb 200 cb 1010,0 hPa 0,0 mm 3,1 km/h (1 Bft) O-SO 245 ° 2 min 0,000 mm 1,4 UV-I 592 W/m² 15,0 °C 16,7 °C 6,4 km/h (2 Bft)
03/05/2026 18:16 16,3 °C 16,7 °C 14,4 °C 13,3 °C 12,8 °C 89 % 15 lf 15 lf 3 cb 45 cb 200 cb 1010,0 hPa 0,0 mm 1,1 km/h (1 Bft) O-SO 245 ° 2 min 0,000 mm 1,4 UV-I 350 W/m² 14,5 °C 16,3 °C 3,2 km/h (1 Bft)
03/05/2026 18:14 16,2 °C 16,7 °C 14,4 °C 13,3 °C 12,8 °C 90 % 15 lf 15 lf 3 cb 45 cb 200 cb 1010,0 hPa 0,0 mm 1,2 km/h (1 Bft) O-SO 245 ° 2 min 0,000 mm 1,1 UV-I 269 W/m² 14,6 °C 16,2 °C 3,2 km/h (1 Bft)
03/05/2026 18:12 16,0 °C 16,7 °C 14,4 °C 13,3 °C 12,8 °C 90 % 15 lf 15 lf 3 cb 45 cb 200 cb 1010,0 hPa 0,0 mm 0,8 km/h (0 Bft) O-SO 245 ° 0 min 0,000 mm 1,0 UV-I 243 W/m² 14,4 °C 16,0 °C 3,2 km/h (1 Bft)
03/05/2026 18:10 15,9 °C 16,7 °C 14,4 °C 13,3 °C 12,8 °C 90 % 15 lf 15 lf 3 cb 45 cb 200 cb 1010,0 hPa 0,0 mm 2,7 km/h (1 Bft) O-SO 245 ° 0 min 0,000 mm 1,0 UV-I 211 W/m² 14,3 °C 15,9 °C 4,8 km/h (1 Bft)
03/05/2026 18:08 15,9 °C 16,1 °C 14,4 °C 13,3 °C 12,8 °C 90 % 15 lf 15 lf 3 cb 45 cb 200 cb 1010,0 hPa 0,0 mm 3,4 km/h (1 Bft) O-SO 245 ° 0 min 0,000 mm 1,0 UV-I 202 W/m² 14,3 °C 15,9 °C 6,4 km/h (2 Bft)
03/05/2026 18:06 15,8 °C 16,1 °C 14,4 °C 13,3 °C 12,8 °C 90 % 15 lf 15 lf 3 cb 45 cb 200 cb 1010,0 hPa 0,0 mm 2,4 km/h (1 Bft) O-SO 238 ° 0 min 0,000 mm 1,0 UV-I 202 W/m² 14,2 °C 15,8 °C 6,4 km/h (2 Bft)
03/05/2026 18:04 15,8 °C 16,1 °C 14,4 °C 13,3 °C 12,8 °C 90 % 15 lf 15 lf 3 cb 44 cb 200 cb 1010,1 hPa 0,0 mm 6,2 km/h (2 Bft) SO 235 ° 0 min 0,000 mm 1,0 UV-I 218 W/m² 14,2 °C 15,8 °C 8,0 km/h (2 Bft)
03/05/2026 18:02 15,9 °C 16,7 °C 14,4 °C 13,3 °C 12,8 °C 90 % 15 lf 15 lf 3 cb 44 cb 200 cb 1010,1 hPa 0,0 mm 5,9 km/h (2 Bft) SO 231 ° 0 min 0,000 mm 1,0 UV-I 225 W/m² 14,3 °C 15,9 °C 8,0 km/h (2 Bft)
03/05/2026 18:00 15,9 °C 16,7 °C 14,4 °C 13,3 °C 12,8 °C 91 % 15 lf 15 lf 3 cb 44 cb 200 cb 1010,1 hPa 0,0 mm 3,8 km/h (1 Bft) O 265 ° 0 min 0,076 mm 1,0 UV-I 227 W/m² 14,4 °C 15,9 °C 11,3 km/h (2 Bft)
03/05/2026 17:58 15,9 °C 16,7 °C 14,4 °C 13,3 °C 12,8 °C 90 % 15 lf 15 lf 3 cb 44 cb 200 cb 1010,0 hPa 0,0 mm 2,9 km/h (1 Bft) O-SO 250 ° 0 min 0,000 mm 0,9 UV-I 197 W/m² 14,3 °C 15,9 °C 6,4 km/h (2 Bft)
03/05/2026 17:56 15,9 °C 16,7 °C 14,4 °C 13,3 °C 12,8 °C 91 % 15 lf 15 lf 3 cb 44 cb 200 cb 1009,9 hPa 0,0 mm 0,3 km/h (0 Bft) O-SO 250 ° 0 min 0,000 mm 0,9 UV-I 185 W/m² 14,4 °C 15,9 °C 1,6 km/h (1 Bft)
03/05/2026 17:54 15,7 °C 16,7 °C 14,4 °C 13,3 °C 12,8 °C 90 % 15 lf 15 lf 3 cb 44 cb 200 cb 1009,9 hPa 0,0 mm 1,4 km/h (1 Bft) O-SO 250 ° 0 min 0,000 mm 0,9 UV-I 179 W/m² 14,1 °C 15,7 °C 3,2 km/h (1 Bft)
03/05/2026 17:52 15,7 °C 16,1 °C 14,4 °C 13,3 °C 12,8 °C 90 % 15 lf 15 lf 3 cb 44 cb 200 cb 1010,0 hPa 0,0 mm 3,3 km/h (1 Bft) O-SO 250 ° 0 min 0,000 mm 1,0 UV-I 167 W/m² 14,1 °C 15,7 °C 6,4 km/h (2 Bft)
03/05/2026 17:50 15,8 °C 16,7 °C 14,4 °C 13,3 °C 12,8 °C 90 % 15 lf 15 lf 3 cb 44 cb 200 cb 1010,0 hPa 0,0 mm 3,0 km/h (1 Bft) O-SO 242 ° 0 min 0,000 mm 1,0 UV-I 171 W/m² 14,2 °C 15,8 °C 4,8 km/h (1 Bft)
03/05/2026 17:48 15,8 °C 16,1 °C 14,4 °C 13,3 °C 12,8 °C 91 % 15 lf 15 lf 3 cb 44 cb 200 cb 1009,9 hPa 0,0 mm 2,8 km/h (1 Bft) SO 221 ° 0 min 0,000 mm 1,0 UV-I 176 W/m² 14,3 °C 15,8 °C 4,8 km/h (1 Bft)
03/05/2026 17:46 15,7 °C 16,1 °C 14,4 °C 13,3 °C 12,8 °C 90 % 15 lf 15 lf 3 cb 44 cb 200 cb 1010,0 hPa 0,0 mm 3,6 km/h (1 Bft) SO 221 ° 0 min 0,000 mm 1,1 UV-I 192 W/m² 14,1 °C 15,7 °C 6,4 km/h (2 Bft)
03/05/2026 17:44 15,8 °C 16,1 °C 14,4 °C 13,3 °C 12,8 °C 91 % 15 lf 15 lf 3 cb 44 cb 200 cb 1009,9 hPa 0,0 mm 2,5 km/h (1 Bft) O-SO 256 ° 0 min 0,000 mm 1,1 UV-I 213 W/m² 14,3 °C 15,8 °C 4,8 km/h (1 Bft)
03/05/2026 17:42 15,6 °C 16,1 °C 14,4 °C 13,3 °C 12,8 °C 91 % 15 lf 15 lf 3 cb 44 cb 200 cb 1009,9 hPa 0,0 mm 1,4 km/h (1 Bft) O-SO 256 ° 0 min 0,000 mm 1,1 UV-I 232 W/m² 14,1 °C 15,6 °C 4,8 km/h (1 Bft)
03/05/2026 17:40 15,6 °C 16,1 °C 14,4 °C 13,3 °C 12,8 °C 91 % 15 lf 15 lf 3 cb 44 cb 200 cb 1009,9 hPa 0,0 mm 2,8 km/h (1 Bft) O-SO 256 ° 0 min 0,000 mm 1,1 UV-I 244 W/m² 14,1 °C 15,6 °C 4,8 km/h (1 Bft)
03/05/2026 17:38 15,5 °C 16,1 °C 14,4 °C 13,3 °C 12,8 °C 91 % 15 lf 15 lf 3 cb 44 cb 200 cb 1009,9 hPa 0,0 mm 1,8 km/h (1 Bft) O-SO 256 ° 0 min 0,000 mm 1,0 UV-I 237 W/m² 14,0 °C 15,5 °C 4,8 km/h (1 Bft)
03/05/2026 17:36 15,4 °C 16,1 °C 14,4 °C 13,3 °C 12,8 °C 91 % 15 lf 15 lf 3 cb 44 cb 200 cb 1009,9 hPa 0,0 mm 1,7 km/h (1 Bft) O-SO 256 ° 0 min 0,000 mm 0,9 UV-I 214 W/m² 13,9 °C 15,4 °C 4,8 km/h (1 Bft)
03/05/2026 17:34 15,6 °C 16,1 °C 14,4 °C 13,3 °C 12,8 °C 91 % 15 lf 15 lf 3 cb 44 cb 200 cb 1009,9 hPa 0,0 mm 0,7 km/h (0 Bft) SO 217 ° 0 min 0,000 mm 0,7 UV-I 160 W/m² 14,1 °C 15,6 °C 3,2 km/h (1 Bft)
03/05/2026 17:32 15,6 °C 16,1 °C 14,4 °C 13,3 °C 12,8 °C 91 % 15 lf 15 lf 3 cb 44 cb 200 cb 1009,9 hPa 0,0 mm 0,3 km/h (0 Bft) SO 217 ° 0 min 0,000 mm 0,7 UV-I 148 W/m² 14,1 °C 15,6 °C 3,2 km/h (1 Bft)
03/05/2026 17:30 15,5 °C 15,6 °C 14,4 °C 13,3 °C 12,8 °C 92 % 15 lf 15 lf 3 cb 44 cb 200 cb 1009,9 hPa 0,0 mm 0,0 km/h (0 Bft) SO 217 ° 0 min 0,000 mm 0,7 UV-I 141 W/m² 14,2 °C 15,5 °C 0,0 km/h (0 Bft)
03/05/2026 17:28 15,3 °C 15,6 °C 14,4 °C 13,3 °C 12,8 °C 91 % 15 lf 15 lf 3 cb 44 cb 200 cb 1010,0 hPa 0,0 mm 0,0 km/h (0 Bft) SO 217 ° 0 min 0,000 mm 0,7 UV-I 139 W/m² 13,8 °C 15,3 °C 1,6 km/h (1 Bft)
03/05/2026 17:26 15,3 °C 15,6 °C 14,4 °C 13,3 °C 12,8 °C 91 % 15 lf 15 lf 3 cb 44 cb 200 cb 1010,0 hPa 0,0 mm 0,8 km/h (0 Bft) SO 217 ° 0 min 0,000 mm 0,7 UV-I 146 W/m² 13,8 °C 15,3 °C 3,2 km/h (1 Bft)
03/05/2026 17:24 15,3 °C 15,6 °C 14,4 °C 13,3 °C 12,8 °C 91 % 15 lf 15 lf 3 cb 44 cb 200 cb 1010,1 hPa 0,0 mm 3,7 km/h (1 Bft) SO 217 ° 0 min 0,000 mm 0,8 UV-I 156 W/m² 13,8 °C 15,3 °C 6,4 km/h (2 Bft)
03/05/2026 17:22 15,3 °C 15,6 °C 14,4 °C 13,3 °C 12,8 °C 91 % 15 lf 15 lf 3 cb 43 cb 200 cb 1010,2 hPa 0,0 mm 3,6 km/h (1 Bft) O-SO 240 ° 0 min 0,000 mm 0,9 UV-I 176 W/m² 13,8 °C 15,3 °C 4,8 km/h (1 Bft)
03/05/2026 17:20 15,3 °C 15,6 °C 14,4 °C 13,3 °C 12,8 °C 92 % 15 lf 15 lf 3 cb 43 cb 200 cb 1010,2 hPa 0,0 mm 1,3 km/h (1 Bft) O-SO 240 ° 0 min 0,000 mm 0,9 UV-I 181 W/m² 14,0 °C 15,3 °C 4,8 km/h (1 Bft)
03/05/2026 17:18 15,2 °C 15,0 °C 14,4 °C 13,3 °C 12,8 °C 92 % 15 lf 15 lf 3 cb 43 cb 200 cb 1010,2 hPa 0,0 mm 2,5 km/h (1 Bft) O-SO 240 ° 0 min 0,000 mm 0,9 UV-I 183 W/m² 13,9 °C 15,2 °C 4,8 km/h (1 Bft)
03/05/2026 17:16 15,1 °C 15,0 °C 14,4 °C 13,3 °C 12,8 °C 91 % 15 lf 15 lf 3 cb 43 cb 200 cb 1010,2 hPa 0,0 mm 2,6 km/h (1 Bft) O-SO 241 ° 0 min 0,000 mm 0,8 UV-I 163 W/m² 13,6 °C 15,1 °C 4,8 km/h (1 Bft)
03/05/2026 17:14 15,1 °C 15,0 °C 14,4 °C 13,3 °C 12,8 °C 91 % 15 lf 15 lf 3 cb 43 cb 200 cb 1010,3 hPa 0,0 mm 2,9 km/h (1 Bft) O-SO 241 ° 0 min 0,000 mm 0,7 UV-I 139 W/m² 13,6 °C 15,1 °C 4,8 km/h (1 Bft)
03/05/2026 17:12 15,1 °C 15,0 °C 14,4 °C 13,3 °C 12,8 °C 91 % 15 lf 15 lf 3 cb 43 cb 200 cb 1010,3 hPa 0,2 mm 4,9 km/h (1 Bft) O-SO 242 ° 0 min 0,000 mm 0,6 UV-I 118 W/m² 13,6 °C 15,1 °C 8,0 km/h (2 Bft)
03/05/2026 17:10 15,1 °C 15,0 °C 14,4 °C 13,3 °C 12,8 °C 91 % 15 lf 15 lf 3 cb 43 cb 200 cb 1010,3 hPa 0,0 mm 2,2 km/h (1 Bft) O-SO 237 ° 0 min 0,000 mm 0,5 UV-I 95 W/m² 13,6 °C 15,1 °C 4,8 km/h (1 Bft)
03/05/2026 17:08 15,0 °C 15,0 °C 14,4 °C 13,3 °C 12,8 °C 91 % 15 lf 15 lf 3 cb 43 cb 200 cb 1010,3 hPa 0,0 mm 3,0 km/h (1 Bft) O-SO 237 ° 0 min 0,000 mm 0,5 UV-I 86 W/m² 13,5 °C 15,0 °C 4,8 km/h (1 Bft)
03/05/2026 17:06 15,1 °C 15,0 °C 14,4 °C 13,3 °C 12,8 °C 91 % 15 lf 15 lf 3 cb 43 cb 200 cb 1010,3 hPa 0,0 mm 4,1 km/h (1 Bft) O-SO 237 ° 0 min 0,000 mm 0,5 UV-I 83 W/m² 13,6 °C 15,1 °C 6,4 km/h (2 Bft)
03/05/2026 17:04 15,0 °C 15,0 °C 14,4 °C 13,3 °C 12,8 °C 91 % 15 lf 15 lf 3 cb 43 cb 200 cb 1010,4 hPa 0,2 mm 4,2 km/h (1 Bft) SO 231 ° 0 min 0,000 mm 0,0 UV-I 76 W/m² 13,5 °C 15,0 °C 9,7 km/h (2 Bft)
03/05/2026 17:02 14,9 °C 15,0 °C 14,4 °C 13,3 °C 12,8 °C 91 % 15 lf 15 lf 3 cb 43 cb 200 cb 1010,4 hPa 0,0 mm 4,4 km/h (1 Bft) O 259 ° 0 min 0,000 mm 0,0 UV-I 69 W/m² 13,4 °C 14,9 °C 8,0 km/h (2 Bft)
03/05/2026 17:00 15,1 °C 15,0 °C 14,4 °C 13,3 °C 12,8 °C 91 % 15 lf 15 lf 3 cb 43 cb 200 cb 1010,4 hPa 0,0 mm 5,5 km/h (1 Bft) O 266 ° 0 min 0,026 mm 0,0 UV-I 62 W/m² 13,6 °C 15,1 °C 9,7 km/h (2 Bft)
03/05/2026 16:58 15,1 °C 15,0 °C 14,4 °C 13,3 °C 12,8 °C 91 % 15 lf 15 lf 3 cb 43 cb 200 cb 1010,4 hPa 0,2 mm 5,1 km/h (1 Bft) SO 236 ° 0 min 0,000 mm 0,0 UV-I 54 W/m² 13,6 °C 15,1 °C 9,7 km/h (2 Bft)
03/05/2026 16:56 15,1 °C 15,0 °C 14,4 °C 13,3 °C 12,8 °C 91 % 15 lf 15 lf 3 cb 42 cb 200 cb 1010,5 hPa 0,0 mm 4,4 km/h (1 Bft) SO 234 ° 0 min 0,000 mm 0,0 UV-I 56 W/m² 13,6 °C 15,1 °C 11,3 km/h (2 Bft)
03/05/2026 16:54 15,1 °C 15,0 °C 14,4 °C 13,3 °C 12,8 °C 91 % 15 lf 15 lf 3 cb 42 cb 200 cb 1010,5 hPa 0,0 mm 6,0 km/h (2 Bft) SO 219 ° 0 min 0,000 mm 0,0 UV-I 60 W/m² 13,6 °C 15,1 °C 11,3 km/h (2 Bft)
03/05/2026 16:52 15,1 °C 15,0 °C 14,4 °C 13,3 °C 12,8 °C 91 % 15 lf 15 lf 3 cb 42 cb 200 cb 1010,5 hPa 0,0 mm 5,5 km/h (1 Bft) SO 215 ° 0 min 0,000 mm 0,0 UV-I 65 W/m² 13,6 °C 15,1 °C 9,7 km/h (2 Bft)
03/05/2026 16:50 15,1 °C 15,0 °C 14,4 °C 13,3 °C 12,8 °C 91 % 15 lf 15 lf 3 cb 41 cb 200 cb 1010,5 hPa 0,2 mm 4,1 km/h (1 Bft) SO 229 ° 0 min 0,000 mm 0,0 UV-I 69 W/m² 13,6 °C 15,1 °C 6,4 km/h (2 Bft)
03/05/2026 16:48 15,1 °C 15,0 °C 14,4 °C 13,3 °C 12,8 °C 91 % 15 lf 15 lf 3 cb 41 cb 200 cb 1010,5 hPa 0,0 mm 6,6 km/h (2 Bft) SO 229 ° 0 min 0,000 mm 0,0 UV-I 70 W/m² 13,6 °C 15,0 °C 12,9 km/h (3 Bft)
03/05/2026 16:46 15,1 °C 15,0 °C 14,4 °C 13,3 °C 12,8 °C 91 % 15 lf 15 lf 3 cb 41 cb 200 cb 1010,5 hPa 0,0 mm 6,0 km/h (2 Bft) SO 217 ° 0 min 0,000 mm 0,5 UV-I 72 W/m² 13,6 °C 15,1 °C 11,3 km/h (2 Bft)
03/05/2026 16:44 15,1 °C 15,0 °C 14,4 °C 13,3 °C 12,8 °C 91 % 15 lf 15 lf 3 cb 41 cb 200 cb 1010,4 hPa 0,0 mm 4,2 km/h (1 Bft) O-SO 241 ° 0 min 0,000 mm 0,5 UV-I 70 W/m² 13,6 °C 15,1 °C 8,0 km/h (2 Bft)
03/05/2026 16:42 15,1 °C 15,0 °C 14,4 °C 13,3 °C 12,8 °C 90 % 15 lf 15 lf 3 cb 41 cb 200 cb 1010,4 hPa 0,0 mm 4,1 km/h (1 Bft) O-SO 238 ° 0 min 0,000 mm 0,5 UV-I 69 W/m² 13,5 °C 15,1 °C 8,0 km/h (2 Bft)
03/05/2026 16:40 15,1 °C 15,0 °C 14,4 °C 13,3 °C 12,8 °C 90 % 15 lf 15 lf 3 cb 41 cb 200 cb 1010,4 hPa 0,2 mm 5,4 km/h (1 Bft) O 263 ° 0 min 0,000 mm 0,5 UV-I 70 W/m² 13,5 °C 15,1 °C 9,7 km/h (2 Bft)
03/05/2026 16:38 15,1 °C 15,0 °C 14,4 °C 13,3 °C 12,8 °C 90 % 15 lf 15 lf 3 cb 40 cb 200 cb 1010,4 hPa 0,2 mm 2,2 km/h (1 Bft) SO 215 ° 0 min 0,000 mm 0,5 UV-I 74 W/m² 13,5 °C 15,1 °C 6,4 km/h (2 Bft)
03/05/2026 16:36 15,1 °C 14,4 °C 14,4 °C 13,3 °C 12,8 °C 90 % 15 lf 15 lf 3 cb 40 cb 200 cb 1010,3 hPa 0,0 mm 2,6 km/h (1 Bft) O 259 ° 0 min 0,000 mm 0,5 UV-I 79 W/m² 13,5 °C 15,1 °C 8,0 km/h (2 Bft)
03/05/2026 16:34 15,1 °C 14,4 °C 14,4 °C 13,3 °C 12,8 °C 90 % 15 lf 15 lf 3 cb 40 cb 200 cb 1010,3 hPa 0,4 mm 3,5 km/h (1 Bft) O-SO 246 ° 0 min 0,000 mm 0,5 UV-I 76 W/m² 13,5 °C 15,1 °C 8,0 km/h (2 Bft)
03/05/2026 16:32 15,0 °C 14,4 °C 14,4 °C 13,3 °C 12,8 °C 90 % 15 lf 15 lf 3 cb 40 cb 200 cb 1010,2 hPa 0,0 mm 4,7 km/h (1 Bft) O-SO 252 ° 0 min 0,000 mm 0,0 UV-I 65 W/m² 13,4 °C 15,0 °C 9,7 km/h (2 Bft)
03/05/2026 16:30 15,1 °C 14,4 °C 14,4 °C 13,3 °C 12,8 °C 90 % 15 lf 15 lf 3 cb 40 cb 200 cb 1010,2 hPa 0,2 mm 3,8 km/h (1 Bft) O 263 ° 0 min 0,000 mm 0,0 UV-I 44 W/m² 13,5 °C 15,1 °C 8,0 km/h (2 Bft)
03/05/2026 16:28 15,0 °C 14,4 °C 14,4 °C 13,3 °C 12,8 °C 90 % 15 lf 15 lf 3 cb 40 cb 200 cb 1010,2 hPa 0,2 mm 4,3 km/h (1 Bft) O 262 ° 0 min 0,000 mm 0,0 UV-I 33 W/m² 13,4 °C 15,0 °C 11,3 km/h (2 Bft)
03/05/2026 16:26 15,0 °C 14,4 °C 14,4 °C 13,3 °C 12,8 °C 90 % 15 lf 15 lf 3 cb 40 cb 200 cb 1010,1 hPa 0,2 mm 4,4 km/h (1 Bft) O-NO 282 ° 0 min 0,000 mm 0,0 UV-I 28 W/m² 13,4 °C 15,0 °C 8,0 km/h (2 Bft)
03/05/2026 16:24 15,0 °C 14,4 °C 14,4 °C 13,3 °C 12,8 °C 90 % 15 lf 15 lf 3 cb 40 cb 200 cb 1010,2 hPa 0,0 mm 5,6 km/h (1 Bft) O-NO 287 ° 0 min 0,000 mm 0,0 UV-I 23 W/m² 13,4 °C 15,0 °C 9,7 km/h (2 Bft)
03/05/2026 16:22 15,0 °C 14,4 °C 14,4 °C 13,3 °C 12,8 °C 90 % 15 lf 15 lf 3 cb 40 cb 200 cb 1010,2 hPa 0,2 mm 4,5 km/h (1 Bft) O 270 ° 0 min 0,000 mm 0,0 UV-I 21 W/m² 13,4 °C 15,0 °C 9,7 km/h (2 Bft)
03/05/2026 16:20 15,0 °C 15,0 °C 14,4 °C 13,3 °C 12,8 °C 90 % 15 lf 15 lf 3 cb 40 cb 200 cb 1010,3 hPa 0,0 mm 2,9 km/h (1 Bft) O-SO 245 ° 0 min 0,000 mm 0,0 UV-I 19 W/m² 13,4 °C 15,0 °C 6,4 km/h (2 Bft)
03/05/2026 16:18 15,0 °C 15,0 °C 14,4 °C 13,3 °C 12,8 °C 90 % 15 lf 15 lf 3 cb 40 cb 200 cb 1010,2 hPa 0,0 mm 2,1 km/h (1 Bft) SO 234 ° 0 min 0,000 mm 0,0 UV-I 19 W/m² 13,4 °C 15,0 °C 4,8 km/h (1 Bft)
03/05/2026 16:16 15,0 °C 15,0 °C 14,4 °C 13,3 °C 12,8 °C 90 % 15 lf 15 lf 3 cb 40 cb 200 cb 1010,2 hPa 0,0 mm 2,9 km/h (1 Bft) O-SO 251 ° 0 min 0,000 mm 0,0 UV-I 25 W/m² 13,4 °C 15,0 °C 6,4 km/h (2 Bft)
03/05/2026 16:14 15,0 °C 15,0 °C 14,4 °C 13,3 °C 12,8 °C 90 % 15 lf 15 lf 3 cb 40 cb 200 cb 1010,1 hPa 0,0 mm 2,8 km/h (1 Bft) O-SO 245 ° 0 min 0,000 mm 0,0 UV-I 30 W/m² 13,4 °C 15,0 °C 8,0 km/h (2 Bft)
03/05/2026 16:12 14,9 °C 15,0 °C 14,4 °C 13,3 °C 12,8 °C 90 % 15 lf 15 lf 3 cb 40 cb 200 cb 1010,0 hPa 0,2 mm 2,7 km/h (1 Bft) O 265 ° 0 min 0,000 mm 0,0 UV-I 40 W/m² 13,3 °C 14,9 °C 6,4 km/h (2 Bft)
03/05/2026 16:10 14,9 °C 15,0 °C 14,4 °C 13,3 °C 12,8 °C 90 % 15 lf 15 lf 3 cb 40 cb 200 cb 1010,0 hPa 0,0 mm 2,6 km/h (1 Bft) SO 227 ° 0 min 0,000 mm 0,0 UV-I 46 W/m² 13,3 °C 14,9 °C 4,8 km/h (1 Bft)
03/05/2026 16:08 15,1 °C 15,0 °C 14,4 °C 13,3 °C 12,8 °C 90 % 15 lf 15 lf 3 cb 40 cb 200 cb 1010,0 hPa 0,0 mm 4,3 km/h (1 Bft) O-NO 286 ° 0 min 0,000 mm 0,0 UV-I 49 W/m² 13,5 °C 15,1 °C 8,0 km/h (2 Bft)
03/05/2026 16:06 15,1 °C 15,0 °C 14,4 °C 13,3 °C 12,8 °C 90 % 15 lf 15 lf 3 cb 41 cb 200 cb 1009,9 hPa 0,0 mm 4,9 km/h (1 Bft) O-SO 256 ° 0 min 0,000 mm 0,0 UV-I 58 W/m² 13,5 °C 15,1 °C 9,7 km/h (2 Bft)
03/05/2026 16:04 15,1 °C 15,0 °C 14,4 °C 13,3 °C 12,8 °C 90 % 15 lf 15 lf 3 cb 41 cb 200 cb 1009,9 hPa 0,0 mm 1,6 km/h (1 Bft) O 261 ° 0 min 0,000 mm 0,6 UV-I 58 W/m² 13,5 °C 15,1 °C 4,8 km/h (1 Bft)
03/05/2026 16:02 15,1 °C 15,0 °C 14,4 °C 13,3 °C 12,8 °C 89 % 15 lf 15 lf 2 cb 41 cb 200 cb 1009,9 hPa 0,2 mm 1,8 km/h (1 Bft) O 261 ° 0 min 0,000 mm 0,6 UV-I 56 W/m² 13,3 °C 15,1 °C 4,8 km/h (1 Bft)
03/05/2026 16:00 15,2 °C 15,0 °C 14,4 °C 13,3 °C 12,8 °C 89 % 15 lf 15 lf 2 cb 41 cb 200 cb 1009,9 hPa 0,0 mm 3,7 km/h (1 Bft) O-NO 286 ° 0 min 0,051 mm 0,6 UV-I 60 W/m² 13,4 °C 15,2 °C 11,3 km/h (2 Bft)
03/05/2026 15:58 15,2 °C 15,0 °C 14,4 °C 13,3 °C 12,8 °C 89 % 15 lf 15 lf 2 cb 41 cb 200 cb 1010,0 hPa 0,0 mm 4,3 km/h (1 Bft) O 265 ° 0 min 0,000 mm 0,6 UV-I 63 W/m² 13,4 °C 15,2 °C 9,7 km/h (2 Bft)
03/05/2026 15:56 15,3 °C 15,0 °C 14,4 °C 13,3 °C 12,8 °C 90 % 15 lf 15 lf 2 cb 41 cb 200 cb 1010,0 hPa 0,0 mm 3,9 km/h (1 Bft) O-SO 252 ° 0 min 0,000 mm 0,7 UV-I 70 W/m² 13,7 °C 15,3 °C 6,4 km/h (2 Bft)
03/05/2026 15:54 15,3 °C 15,0 °C 14,4 °C 13,3 °C 12,8 °C 89 % 15 lf 15 lf 2 cb 41 cb 200 cb 1010,0 hPa 0,0 mm 4,2 km/h (1 Bft) O-SO 246 ° 0 min 0,000 mm 0,8 UV-I 93 W/m² 13,5 °C 15,3 °C 8,0 km/h (2 Bft)
03/05/2026 15:52 15,3 °C 15,0 °C 14,4 °C 13,3 °C 12,8 °C 90 % 15 lf 15 lf 2 cb 41 cb 200 cb 1010,0 hPa 0,0 mm 3,4 km/h (1 Bft) O 272 ° 0 min 0,000 mm 0,9 UV-I 116 W/m² 13,7 °C 15,3 °C 8,0 km/h (2 Bft)
03/05/2026 15:50 15,3 °C 15,0 °C 14,4 °C 13,3 °C 12,8 °C 90 % 15 lf 15 lf 2 cb 41 cb 200 cb 1010,0 hPa 0,0 mm 1,3 km/h (1 Bft) O-SO 244 ° 0 min 0,000 mm 1,0 UV-I 130 W/m² 13,7 °C 15,3 °C 3,2 km/h (1 Bft)
03/05/2026 15:48 15,2 °C 15,0 °C 14,4 °C 13,3 °C 12,8 °C 89 % 15 lf 15 lf 2 cb 42 cb 200 cb 1010,1 hPa 0,0 mm 2,4 km/h (1 Bft) O-SO 244 ° 0 min 0,000 mm 1,0 UV-I 128 W/m² 13,4 °C 15,2 °C 6,4 km/h (2 Bft)
03/05/2026 15:46 15,2 °C 15,0 °C 14,4 °C 13,3 °C 12,8 °C 89 % 15 lf 15 lf 2 cb 42 cb 200 cb 1010,1 hPa 0,0 mm 3,6 km/h (1 Bft) O-NO 287 ° 0 min 0,000 mm 0,9 UV-I 114 W/m² 13,4 °C 15,2 °C 8,0 km/h (2 Bft)
03/05/2026 15:44 15,2 °C 15,0 °C 14,4 °C 13,3 °C 12,8 °C 90 % 15 lf 15 lf 2 cb 42 cb 200 cb 1010,2 hPa 0,0 mm 5,0 km/h (1 Bft) O 261 ° 0 min 0,000 mm 0,8 UV-I 105 W/m² 13,6 °C 15,2 °C 12,9 km/h (3 Bft)
03/05/2026 15:42 15,1 °C 15,0 °C 14,4 °C 13,3 °C 12,8 °C 89 % 15 lf 15 lf 2 cb 43 cb 200 cb 1010,2 hPa 0,0 mm 3,1 km/h (1 Bft) O-SO 258 ° 0 min 0,000 mm 0,8 UV-I 107 W/m² 13,3 °C 15,1 °C 8,0 km/h (2 Bft)
03/05/2026 15:40 15,0 °C 15,0 °C 14,4 °C 13,3 °C 12,8 °C 89 % 15 lf 15 lf 2 cb 44 cb 200 cb 1010,2 hPa 0,0 mm 3,2 km/h (1 Bft) O 279 ° 0 min 0,000 mm 0,8 UV-I 102 W/m² 13,2 °C 15,0 °C 8,0 km/h (2 Bft)
03/05/2026 15:38 14,9 °C 15,0 °C 14,4 °C 13,3 °C 12,8 °C 89 % 15 lf 15 lf 2 cb 45 cb 200 cb 1010,2 hPa 0,0 mm 3,0 km/h (1 Bft) O-NO 301 ° 0 min 0,000 mm 0,7 UV-I 93 W/m² 13,1 °C 14,9 °C 8,0 km/h (2 Bft)
03/05/2026 15:36 14,9 °C 15,0 °C 14,4 °C 13,3 °C 12,8 °C 89 % 15 lf 15 lf 2 cb 47 cb 200 cb 1010,2 hPa 0,0 mm 4,0 km/h (1 Bft) O 264 ° 0 min 0,000 mm 0,7 UV-I 93 W/m² 13,1 °C 14,9 °C 9,7 km/h (2 Bft)
03/05/2026 15:34 14,9 °C 15,0 °C 14,4 °C 13,3 °C 12,8 °C 89 % 15 lf 15 lf 2 cb 50 cb 200 cb 1010,2 hPa 0,0 mm 2,8 km/h (1 Bft) O 277 ° 0 min 0,000 mm 0,7 UV-I 98 W/m² 13,1 °C 14,9 °C 4,8 km/h (1 Bft)
03/05/2026 15:32 14,8 °C 15,0 °C 14,4 °C 13,3 °C 12,8 °C 89 % 15 lf 15 lf 2 cb 51 cb 200 cb 1010,3 hPa 0,0 mm 2,4 km/h (1 Bft) O 277 ° 0 min 0,000 mm 0,8 UV-I 107 W/m² 13,0 °C 14,8 °C 8,0 km/h (2 Bft)
03/05/2026 15:30 14,8 °C 15,0 °C 14,4 °C 13,3 °C 12,8 °C 89 % 15 lf 15 lf 2 cb 56 cb 200 cb 1010,3 hPa 0,0 mm 5,7 km/h (1 Bft) O 271 ° 0 min 0,000 mm 0,8 UV-I 102 W/m² 13,0 °C 14,8 °C 11,3 km/h (2 Bft)
03/05/2026 15:28 14,9 °C 15,0 °C 14,4 °C 13,3 °C 12,8 °C 89 % 15 lf 15 lf 2 cb 61 cb 200 cb 1010,3 hPa 0,2 mm 4,4 km/h (1 Bft) O 261 ° 0 min 0,000 mm 0,8 UV-I 107 W/m² 13,1 °C 14,9 °C 12,9 km/h (3 Bft)
03/05/2026 15:26 14,9 °C 15,0 °C 14,4 °C 13,3 °C 12,8 °C 89 % 15 lf 15 lf 2 cb 69 cb 200 cb 1010,4 hPa 0,4 mm 5,4 km/h (1 Bft) O 275 ° 0 min 0,000 mm 0,7 UV-I 100 W/m² 13,1 °C 14,9 °C 11,3 km/h (2 Bft)
03/05/2026 15:24 15,1 °C 15,0 °C 14,4 °C 13,3 °C 12,8 °C 89 % 15 lf 15 lf 2 cb 79 cb 200 cb 1010,4 hPa 0,0 mm 4,0 km/h (1 Bft) O-SO 242 ° 0 min 0,000 mm 0,7 UV-I 98 W/m² 13,3 °C 15,1 °C 12,9 km/h (3 Bft)
03/05/2026 15:22 15,2 °C 15,0 °C 14,4 °C 13,3 °C 12,8 °C 88 % 15 lf 15 lf 2 cb 103 cb 200 cb 1010,4 hPa 0,8 mm 3,7 km/h (1 Bft) O-SO 252 ° 0 min 0,000 mm 0,7 UV-I 88 W/m² 13,2 °C 15,2 °C 9,7 km/h (2 Bft)
03/05/2026 15:20 15,3 °C 15,6 °C 14,4 °C 13,3 °C 12,8 °C 89 % 15 lf 15 lf 3 cb 128 cb 200 cb 1010,4 hPa 2,0 mm 6,6 km/h (2 Bft) O 275 ° 0 min 0,000 mm 0,5 UV-I 65 W/m² 13,5 °C 15,2 °C 11,3 km/h (2 Bft)
03/05/2026 15:18 15,4 °C 15,6 °C 14,4 °C 13,3 °C 12,8 °C 88 % 15 lf 15 lf 4 cb 131 cb 200 cb 1010,5 hPa 1,6 mm 5,6 km/h (1 Bft) O-NO 284 ° 0 min 0,000 mm 0,0 UV-I 54 W/m² 13,4 °C 15,4 °C 9,7 km/h (2 Bft)
03/05/2026 15:16 15,3 °C 16,1 °C 14,4 °C 13,3 °C 12,8 °C 88 % 15 lf 15 lf 11 cb 131 cb 200 cb 1010,6 hPa 0,8 mm 3,3 km/h (1 Bft) O 261 ° 0 min 0,000 mm 0,0 UV-I 51 W/m² 13,3 °C 15,3 °C 4,8 km/h (1 Bft)
03/05/2026 15:14 15,3 °C 16,1 °C 14,4 °C 13,3 °C 12,8 °C 88 % 15 lf 15 lf 12 cb 131 cb 200 cb 1010,4 hPa 0,4 mm 5,0 km/h (1 Bft) O 259 ° 0 min 0,000 mm 0,0 UV-I 44 W/m² 13,3 °C 15,3 °C 8,0 km/h (2 Bft)
03/05/2026 15:12 15,2 °C 16,1 °C 14,4 °C 13,3 °C 12,8 °C 88 % 15 lf 15 lf 12 cb 131 cb 200 cb 1010,4 hPa 0,2 mm 2,6 km/h (1 Bft) O-NO 282 ° 0 min 0,000 mm 0,0 UV-I 49 W/m² 13,2 °C 15,2 °C 8,0 km/h (2 Bft)
03/05/2026 15:10 15,2 °C 16,1 °C 14,4 °C 13,3 °C 12,8 °C 87 % 15 lf 15 lf 12 cb 131 cb 200 cb 1010,3 hPa 0,2 mm 0,6 km/h (0 Bft) O-NO 283 ° 0 min 0,000 mm 0,0 UV-I 51 W/m² 13,0 °C 15,2 °C 1,6 km/h (1 Bft)
03/05/2026 15:08 15,1 °C 16,7 °C 14,4 °C 13,3 °C 12,8 °C 87 % 15 lf 15 lf 12 cb 131 cb 200 cb 1010,3 hPa 0,0 mm 1,1 km/h (1 Bft) O-NO 283 ° 0 min 0,000 mm 0,0 UV-I 54 W/m² 13,0 °C 15,1 °C 4,8 km/h (1 Bft)
03/05/2026 15:06 15,1 °C 16,1 °C 14,4 °C 13,3 °C 12,8 °C 87 % 15 lf 15 lf 12 cb 131 cb 200 cb 1010,3 hPa 0,2 mm 0,9 km/h (0 Bft) O-NO 283 ° 0 min 0,000 mm 0,0 UV-I 53 W/m² 13,0 °C 15,1 °C 3,2 km/h (1 Bft)
03/05/2026 15:04 15,1 °C 16,1 °C 14,4 °C 13,3 °C 12,8 °C 86 % 15 lf 15 lf 12 cb 131 cb 200 cb 1010,3 hPa 0,2 mm 0,7 km/h (0 Bft) O-NO 283 ° 0 min 0,000 mm 0,0 UV-I 49 W/m² 12,8 °C 15,1 °C 1,6 km/h (1 Bft)
03/05/2026 15:02 15,1 °C 16,7 °C 14,4 °C 13,3 °C 12,8 °C 85 % 15 lf 15 lf 12 cb 131 cb 200 cb 1010,3 hPa 0,2 mm 0,0 km/h (0 Bft) O-NO 283 ° 0 min 0,000 mm 0,0 UV-I 47 W/m² 12,6 °C 15,1 °C 0,0 km/h (0 Bft)
03/05/2026 15:00 15,2 °C 16,7 °C 14,4 °C 13,3 °C 12,8 °C 85 % 15 lf 15 lf 12 cb 131 cb 200 cb 1010,3 hPa 0,0 mm 0,7 km/h (0 Bft) O-NO 283 ° 0 min 0,228 mm 0,0 UV-I 49 W/m² 12,7 °C 15,2 °C 3,2 km/h (1 Bft)
03/05/2026 14:58 15,2 °C 16,7 °C 14,4 °C 13,3 °C 12,8 °C 85 % 15 lf 15 lf 12 cb 131 cb 200 cb 1010,2 hPa 0,0 mm 0,5 km/h (0 Bft) O-NO 283 ° 0 min 0,000 mm 0,0 UV-I 51 W/m² 12,7 °C 15,2 °C 3,2 km/h (1 Bft)
03/05/2026 14:56 15,3 °C 16,7 °C 14,4 °C 13,3 °C 12,8 °C 84 % 15 lf 15 lf 12 cb 131 cb 200 cb 1010,2 hPa 0,2 mm 2,8 km/h (1 Bft) O-NO 283 ° 0 min 0,000 mm 0,5 UV-I 67 W/m² 12,6 °C 15,3 °C 4,8 km/h (1 Bft)
03/05/2026 14:54 15,5 °C 16,7 °C 14,4 °C 13,3 °C 12,8 °C 83 % 15 lf 15 lf 12 cb 131 cb 200 cb 1010,3 hPa 0,0 mm 3,1 km/h (1 Bft) O-NO 283 ° 0 min 0,000 mm 0,6 UV-I 79 W/m² 12,6 °C 15,5 °C 8,0 km/h (2 Bft)
03/05/2026 14:52 15,8 °C 17,2 °C 14,4 °C 13,3 °C 12,8 °C 83 % 15 lf 15 lf 12 cb 131 cb 200 cb 1010,4 hPa 0,2 mm 2,7 km/h (1 Bft) NO 305 ° 0 min 0,000 mm 0,7 UV-I 84 W/m² 12,9 °C 15,8 °C 8,0 km/h (2 Bft)
03/05/2026 14:50 16,2 °C 16,7 °C 14,4 °C 13,3 °C 12,8 °C 81 % 15 lf 15 lf 12 cb 131 cb 200 cb 1010,4 hPa 0,0 mm 4,4 km/h (1 Bft) NO 308 ° 0 min 0,000 mm 0,6 UV-I 77 W/m² 12,9 °C 16,2 °C 9,7 km/h (2 Bft)
03/05/2026 14:48 16,6 °C 17,2 °C 14,4 °C 13,3 °C 12,8 °C 81 % 15 lf 15 lf 12 cb 131 cb 200 cb 1010,4 hPa 0,0 mm 5,7 km/h (1 Bft) NO 317 ° 0 min 0,000 mm 0,5 UV-I 70 W/m² 13,3 °C 16,6 °C 12,9 km/h (3 Bft)
03/05/2026 14:46 17,1 °C 17,2 °C 14,4 °C 13,3 °C 12,8 °C 79 % 15 lf 15 lf 12 cb 131 cb 200 cb 1010,4 hPa 0,2 mm 7,1 km/h (2 Bft) O-NO 289 ° 0 min 0,000 mm 0,5 UV-I 63 W/m² 13,4 °C 16,7 °C 16,1 km/h (3 Bft)
03/05/2026 14:44 17,4 °C 17,8 °C 14,4 °C 13,3 °C 12,8 °C 78 % 15 lf 15 lf 12 cb 130 cb 200 cb 1010,3 hPa 0,0 mm 7,4 km/h (2 Bft) O-NO 292 ° 0 min 0,000 mm 0,0 UV-I 53 W/m² 13,5 °C 16,9 °C 14,5 km/h (3 Bft)
03/05/2026 14:42 17,7 °C 17,8 °C 14,4 °C 13,3 °C 12,8 °C 77 % 15 lf 15 lf 12 cb 130 cb 200 cb 1010,3 hPa 0,2 mm 9,5 km/h (2 Bft) NO 309 ° 0 min 0,000 mm 0,0 UV-I 51 W/m² 13,6 °C 16,3 °C 20,9 km/h (4 Bft)
03/05/2026 14:40 18,0 °C 18,3 °C 14,4 °C 13,3 °C 12,8 °C 75 % 15 lf 15 lf 11 cb 130 cb 200 cb 1010,4 hPa 0,0 mm 8,3 km/h (2 Bft) O-NO 286 ° 0 min 0,000 mm 0,0 UV-I 51 W/m² 13,5 °C 17,1 °C 20,9 km/h (4 Bft)
03/05/2026 14:38 18,4 °C 18,9 °C 14,4 °C 13,3 °C 12,8 °C 74 % 2 lf 0 lf 11 cb 130 cb 200 cb 1010,4 hPa 0,0 mm 8,4 km/h (2 Bft) O 263 ° 0 min 0,000 mm 0,5 UV-I 63 W/m² 13,7 °C 17,5 °C 22,5 km/h (4 Bft)
03/05/2026 14:36 18,8 °C 18,9 °C 14,4 °C 13,3 °C 12,8 °C 78 % 0 lf 0 lf 11 cb 130 cb 200 cb 1010,4 hPa 0,0 mm 9,1 km/h (2 Bft) O-NO 287 ° 0 min 0,000 mm 0,7 UV-I 84 W/m² 14,9 °C 17,6 °C 19,3 km/h (3 Bft)
03/05/2026 14:34 19,0 °C 19,4 °C 14,4 °C 13,3 °C 12,8 °C 77 % 0 lf 0 lf 11 cb 130 cb 200 cb 1010,3 hPa 0,0 mm 9,0 km/h (2 Bft) S-SO 213 ° 0 min 0,000 mm 0,7 UV-I 81 W/m² 14,9 °C 17,9 °C 17,7 km/h (3 Bft)
03/05/2026 14:32 19,2 °C 19,4 °C 14,4 °C 13,3 °C 12,8 °C 77 % 0 lf 0 lf 11 cb 130 cb 200 cb 1010,2 hPa 0,0 mm 10,4 km/h (2 Bft) S-SO 200 ° 0 min 0,000 mm 1,4 UV-I 172 W/m² 15,1 °C 17,6 °C 17,7 km/h (3 Bft)
03/05/2026 14:30 19,4 °C 20,0 °C 14,4 °C 13,3 °C 12,8 °C 76 % 0 lf 0 lf 11 cb 130 cb 200 cb 1010,1 hPa 0,0 mm 10,9 km/h (2 Bft) SO 225 ° 0 min 0,000 mm 2,0 UV-I 248 W/m² 15,1 °C 17,7 °C 17,7 km/h (3 Bft)
03/05/2026 14:28 19,6 °C 21,1 °C 14,4 °C 13,3 °C 12,8 °C 77 % 0 lf 0 lf 11 cb 130 cb 200 cb 1010,1 hPa 0,0 mm 10,8 km/h (2 Bft) SO 235 ° 2 min 0,000 mm 3,0 UV-I 476 W/m² 15,5 °C 17,9 °C 19,3 km/h (3 Bft)
03/05/2026 14:26 19,4 °C 20,6 °C 14,4 °C 13,3 °C 12,8 °C 79 % 0 lf 0 lf 11 cb 130 cb 200 cb 1010,1 hPa 0,0 mm 7,0 km/h (2 Bft) S 190 ° 2 min 0,000 mm 3,4 UV-I 476 W/m² 15,7 °C 19,1 °C 14,5 km/h (3 Bft)
03/05/2026 14:24 19,3 °C 20,6 °C 14,4 °C 13,3 °C 12,8 °C 78 % 0 lf 0 lf 11 cb 130 cb 200 cb 1010,0 hPa 0,0 mm 12,7 km/h (3 Bft) SO 227 ° 2 min 0,000 mm 3,7 UV-I 531 W/m² 15,4 °C 17,0 °C 17,7 km/h (3 Bft)
03/05/2026 14:22 19,1 °C 20,6 °C 14,4 °C 13,3 °C 12,8 °C 78 % 0 lf 0 lf 11 cb 130 cb 200 cb 1010,1 hPa 0,0 mm 9,1 km/h (2 Bft) SO 225 ° 2 min 0,000 mm 4,1 UV-I 531 W/m² 15,2 °C 18,0 °C 14,5 km/h (3 Bft)
03/05/2026 14:20 18,9 °C 20,0 °C 14,4 °C 13,3 °C 12,8 °C 78 % 0 lf 0 lf 11 cb 130 cb 200 cb 1010,1 hPa 0,0 mm 10,0 km/h (2 Bft) S-SO 194 ° 2 min 0,000 mm 4,2 UV-I 531 W/m² 15,0 °C 17,4 °C 16,1 km/h (3 Bft)
03/05/2026 14:18 18,9 °C 20,0 °C 14,4 °C 13,3 °C 12,8 °C 78 % 0 lf 0 lf 11 cb 130 cb 200 cb 1010,1 hPa 0,0 mm 11,0 km/h (2 Bft) SO 216 ° 0 min 0,000 mm 3,4 UV-I 394 W/m² 15,0 °C 17,1 °C 17,7 km/h (3 Bft)
03/05/2026 14:16 19,2 °C 20,6 °C 14,4 °C 13,3 °C 12,8 °C 77 % 0 lf 0 lf 11 cb 130 cb 200 cb 1010,1 hPa 0,0 mm 13,0 km/h (3 Bft) SO 219 ° 2 min 0,000 mm 5,0 UV-I 480 W/m² 15,1 °C 16,8 °C 19,3 km/h (3 Bft)
03/05/2026 14:14 19,4 °C 20,6 °C 14,4 °C 13,3 °C 12,8 °C 78 % 0 lf 0 lf 11 cb 129 cb 200 cb 1010,1 hPa 0,0 mm 9,5 km/h (2 Bft) S 190 ° 2 min 0,000 mm 3,4 UV-I 469 W/m² 15,5 °C 18,2 °C 17,7 km/h (3 Bft)
03/05/2026 14:12 19,6 °C 21,1 °C 14,4 °C 13,3 °C 12,8 °C 77 % 0 lf 0 lf 11 cb 129 cb 200 cb 1010,1 hPa 0,0 mm 11,2 km/h (2 Bft) S 190 ° 0 min 0,000 mm 3,5 UV-I 404 W/m² 15,5 °C 17,8 °C 17,7 km/h (3 Bft)
03/05/2026 14:10 19,7 °C 21,7 °C 14,4 °C 13,3 °C 12,8 °C 77 % 0 lf 0 lf 11 cb 129 cb 200 cb 1010,0 hPa 0,0 mm 12,1 km/h (2 Bft) SO 227 ° 2 min 0,000 mm 5,6 UV-I 986 W/m² 15,5 °C 17,7 °C 19,3 km/h (3 Bft)
03/05/2026 14:08 19,6 °C 21,1 °C 14,4 °C 13,3 °C 12,8 °C 78 % 0 lf 0 lf 11 cb 129 cb 200 cb 1010,0 hPa 0,0 mm 9,6 km/h (2 Bft) SO 219 ° 2 min 0,000 mm 5,6 UV-I 958 W/m² 15,7 °C 18,3 °C 14,5 km/h (3 Bft)
03/05/2026 14:06 19,5 °C 20,6 °C 14,4 °C 13,3 °C 12,8 °C 80 % 0 lf 0 lf 11 cb 129 cb 200 cb 1010,1 hPa 0,0 mm 9,6 km/h (2 Bft) S-SE 167 ° 2 min 0,000 mm 5,7 UV-I 874 W/m² 16,0 °C 18,2 °C 17,7 km/h (3 Bft)
03/05/2026 14:04 19,3 °C 20,6 °C 14,4 °C 13,3 °C 12,8 °C 79 % 0 lf 0 lf 11 cb 129 cb 200 cb 1010,1 hPa 0,0 mm 9,7 km/h (2 Bft) S 185 ° 2 min 0,000 mm 4,2 UV-I 977 W/m² 15,6 °C 18,0 °C 14,5 km/h (3 Bft)
03/05/2026 14:02 19,2 °C 20,6 °C 14,4 °C 13,3 °C 12,8 °C 79 % 0 lf 0 lf 11 cb 129 cb 200 cb 1010,0 hPa 0,0 mm 9,7 km/h (2 Bft) SO 234 ° 2 min 0,000 mm 5,7 UV-I 923 W/m² 15,5 °C 17,9 °C 19,3 km/h (3 Bft)
03/05/2026 14:00 18,8 °C 20,0 °C 14,4 °C 13,3 °C 12,8 °C 80 % 0 lf 0 lf 11 cb 129 cb 200 cb 1010,1 hPa 0,0 mm 12,2 km/h (2 Bft) S-SO 204 ° 2 min 0,356 mm 5,7 UV-I 937 W/m² 15,3 °C 16,6 °C 19,3 km/h (3 Bft)
03/05/2026 13:58 18,7 °C 18,9 °C 14,4 °C 13,3 °C 12,8 °C 79 % 0 lf 0 lf 11 cb 129 cb 200 cb 1010,0 hPa 0,0 mm 11,4 km/h (2 Bft) S 190 ° 2 min 0,000 mm 5,8 UV-I 478 W/m² 15,0 °C 16,7 °C 17,7 km/h (3 Bft)
03/05/2026 13:56 18,9 °C 20,0 °C 14,4 °C 13,3 °C 12,8 °C 79 % 0 lf 0 lf 11 cb 129 cb 200 cb 1010,1 hPa 0,0 mm 12,1 km/h (2 Bft) O-SO 246 ° 0 min 0,000 mm 3,1 UV-I 415 W/m² 15,2 °C 16,7 °C 17,7 km/h (3 Bft)
03/05/2026 13:54 18,9 °C 20,0 °C 14,4 °C 13,3 °C 12,8 °C 80 % 0 lf 0 lf 11 cb 129 cb 200 cb 1010,1 hPa 0,0 mm 11,0 km/h (2 Bft) S 180 ° 0 min 0,000 mm 5,7 UV-I 415 W/m² 15,4 °C 17,1 °C 19,3 km/h (3 Bft)
03/05/2026 13:52 18,9 °C 19,4 °C 14,4 °C 13,3 °C 12,8 °C 81 % 0 lf 0 lf 11 cb 129 cb 200 cb 1010,1 hPa 0,0 mm 8,3 km/h (2 Bft) SE 134 ° 0 min 0,000 mm 3,3 UV-I 415 W/m² 15,6 °C 18,1 °C 14,5 km/h (3 Bft)
03/05/2026 13:50 18,9 °C 19,4 °C 14,4 °C 13,3 °C 12,8 °C 81 % 0 lf 0 lf 11 cb 129 cb 200 cb 1010,1 hPa 0,0 mm 9,2 km/h (2 Bft) S-SO 200 ° 0 min 0,000 mm 3,1 UV-I 394 W/m² 15,6 °C 17,7 °C 17,7 km/h (3 Bft)
03/05/2026 13:48 18,9 °C 19,4 °C 14,4 °C 13,3 °C 12,8 °C 81 % 0 lf 0 lf 11 cb 129 cb 200 cb 1010,1 hPa 0,0 mm 6,8 km/h (2 Bft) SO 232 ° 0 min 0,000 mm 3,0 UV-I 410 W/m² 15,6 °C 18,7 °C 11,3 km/h (2 Bft)
03/05/2026 13:46 18,8 °C 20,0 °C 14,4 °C 13,3 °C 12,8 °C 82 % 0 lf 0 lf 11 cb 129 cb 200 cb 1010,2 hPa 0,0 mm 10,0 km/h (2 Bft) S 169 ° 2 min 0,000 mm 4,4 UV-I 731 W/m² 15,7 °C 17,3 °C 14,5 km/h (3 Bft)
03/05/2026 13:44 18,5 °C 19,4 °C 14,4 °C 13,3 °C 12,8 °C 81 % 0 lf 0 lf 11 cb 129 cb 200 cb 1010,2 hPa 0,0 mm 9,5 km/h (2 Bft) SO 234 ° 2 min 0,000 mm 4,0 UV-I 956 W/m² 15,2 °C 17,2 °C 16,1 km/h (3 Bft)
03/05/2026 13:42 18,7 °C 19,4 °C 14,4 °C 13,3 °C 12,8 °C 82 % 0 lf 0 lf 11 cb 129 cb 200 cb 1010,2 hPa 0,0 mm 11,1 km/h (2 Bft) S 190 ° 2 min 0,000 mm 4,8 UV-I 956 W/m² 15,6 °C 16,8 °C 19,3 km/h (3 Bft)
03/05/2026 13:40 18,5 °C 18,9 °C 14,4 °C 13,3 °C 12,8 °C 83 % 0 lf 0 lf 11 cb 129 cb 200 cb 1010,2 hPa 0,0 mm 9,7 km/h (2 Bft) S-SO 196 ° 2 min 0,000 mm 5,3 UV-I 956 W/m² 15,6 °C 17,1 °C 14,5 km/h (3 Bft)
03/05/2026 13:38 18,2 °C 18,9 °C 14,4 °C 13,3 °C 12,8 °C 83 % 0 lf 0 lf 11 cb 129 cb 200 cb 1010,2 hPa 0,0 mm 10,6 km/h (2 Bft) SO 227 ° 2 min 0,000 mm 5,7 UV-I 1032 W/m² 15,3 °C 16,4 °C 17,7 km/h (3 Bft)
03/05/2026 13:36 18,0 °C 18,3 °C 14,4 °C 13,3 °C 12,8 °C 83 % 0 lf 0 lf 11 cb 129 cb 200 cb 1010,2 hPa 0,0 mm 10,0 km/h (2 Bft) S-SE 159 ° 0 min 0,000 mm 6,0 UV-I 429 W/m² 15,1 °C 16,4 °C 16,1 km/h (3 Bft)
03/05/2026 13:34 18,1 °C 18,3 °C 14,4 °C 12,8 °C 12,8 °C 83 % 0 lf 0 lf 11 cb 128 cb 200 cb 1010,2 hPa 0,0 mm 10,0 km/h (2 Bft) S-SO 194 ° 0 min 0,000 mm 3,8 UV-I 429 W/m² 15,2 °C 16,5 °C 14,5 km/h (3 Bft)
03/05/2026 13:32 18,2 °C 18,3 °C 14,4 °C 13,3 °C 12,8 °C 83 % 0 lf 0 lf 11 cb 128 cb 200 cb 1010,2 hPa 0,0 mm 10,7 km/h (2 Bft) S 173 ° 2 min 0,000 mm 3,5 UV-I 650 W/m² 15,3 °C 16,4 °C 14,5 km/h (3 Bft)
03/05/2026 13:30 18,2 °C 18,3 °C 14,4 °C 13,3 °C 12,8 °C 84 % 0 lf 0 lf 11 cb 128 cb 200 cb 1010,3 hPa 0,0 mm 10,6 km/h (2 Bft) S-SO 194 ° 2 min 0,000 mm 4,6 UV-I 613 W/m² 15,4 °C 16,4 °C 19,3 km/h (3 Bft)
03/05/2026 13:28 18,0 °C 17,8 °C 14,4 °C 12,8 °C 12,8 °C 84 % 0 lf 0 lf 11 cb 127 cb 200 cb 1010,3 hPa 0,0 mm 6,8 km/h (2 Bft) S 190 ° 0 min 0,000 mm 5,8 UV-I 436 W/m² 15,3 °C 17,8 °C 12,9 km/h (3 Bft)
03/05/2026 13:26 17,8 °C 17,8 °C 14,4 °C 13,3 °C 12,8 °C 84 % 0 lf 0 lf 11 cb 128 cb 200 cb 1010,3 hPa 0,0 mm 8,1 km/h (2 Bft) SO 221 ° 2 min 0,000 mm 3,6 UV-I 462 W/m² 15,1 °C 17,0 °C 12,9 km/h (3 Bft)
03/05/2026 13:24 17,7 °C 17,8 °C 14,4 °C 13,3 °C 12,8 °C 83 % 0 lf 0 lf 11 cb 128 cb 200 cb 1010,4 hPa 0,0 mm 10,6 km/h (2 Bft) SO 218 ° 0 min 0,000 mm 3,9 UV-I 415 W/m² 14,8 °C 15,9 °C 16,1 km/h (3 Bft)
03/05/2026 13:22 17,7 °C 17,8 °C 14,4 °C 12,8 °C 12,8 °C 83 % 0 lf 0 lf 11 cb 127 cb 200 cb 1010,4 hPa 0,0 mm 10,7 km/h (2 Bft) O-SO 242 ° 2 min 0,000 mm 3,6 UV-I 489 W/m² 14,8 °C 15,8 °C 17,7 km/h (3 Bft)
03/05/2026 13:20 17,8 °C 17,8 °C 14,4 °C 12,8 °C 12,8 °C 85 % 0 lf 0 lf 11 cb 127 cb 200 cb 1010,4 hPa 0,0 mm 9,0 km/h (2 Bft) S-SE 163 ° 0 min 0,000 mm 2,7 UV-I 304 W/m² 15,2 °C 16,6 °C 16,1 km/h (3 Bft)
03/05/2026 13:18 17,7 °C 17,8 °C 14,4 °C 12,8 °C 12,8 °C 84 % 0 lf 0 lf 11 cb 127 cb 200 cb 1010,4 hPa 0,0 mm 8,2 km/h (2 Bft) S-SE 165 ° 0 min 0,000 mm 3,2 UV-I 420 W/m² 15,0 °C 16,8 °C 14,5 km/h (3 Bft)
03/05/2026 13:16 17,7 °C 17,8 °C 14,4 °C 12,8 °C 12,8 °C 84 % 0 lf 0 lf 11 cb 127 cb 200 cb 1010,5 hPa 0,0 mm 9,0 km/h (2 Bft) S-SO 194 ° 2 min 0,000 mm 2,9 UV-I 487 W/m² 15,0 °C 16,5 °C 14,5 km/h (3 Bft)
03/05/2026 13:14 17,7 °C 17,8 °C 14,4 °C 12,8 °C 12,8 °C 84 % 0 lf 0 lf 11 cb 127 cb 200 cb 1010,4 hPa 0,0 mm 8,8 km/h (2 Bft) S 185 ° 2 min 0,000 mm 3,4 UV-I 577 W/m² 15,0 °C 16,6 °C 14,5 km/h (3 Bft)
03/05/2026 13:12 17,8 °C 17,8 °C 14,4 °C 12,8 °C 12,8 °C 84 % 0 lf 0 lf 11 cb 127 cb 200 cb 1010,5 hPa 0,0 mm 8,1 km/h (2 Bft) SO 236 ° 2 min 0,000 mm 3,6 UV-I 492 W/m² 15,1 °C 17,0 °C 16,1 km/h (3 Bft)
03/05/2026 13:10 17,7 °C 17,2 °C 14,4 °C 12,8 °C 12,8 °C 84 % 0 lf 0 lf 11 cb 127 cb 200 cb 1010,5 hPa 0,0 mm 9,4 km/h (2 Bft) SO 222 ° 0 min 0,000 mm 3,4 UV-I 417 W/m² 15,0 °C 16,3 °C 14,5 km/h (3 Bft)
03/05/2026 13:08 17,6 °C 17,2 °C 14,4 °C 12,8 °C 12,8 °C 84 % 0 lf 0 lf 11 cb 127 cb 200 cb 1010,5 hPa 0,0 mm 11,6 km/h (2 Bft) SO 217 ° 2 min 0,000 mm 3,7 UV-I 469 W/m² 14,9 °C 15,4 °C 17,7 km/h (3 Bft)
03/05/2026 13:06 17,6 °C 17,2 °C 14,4 °C 12,8 °C 12,8 °C 84 % 0 lf 0 lf 11 cb 127 cb 200 cb 1010,5 hPa 0,0 mm 10,7 km/h (2 Bft) S-SO 207 ° 2 min 0,000 mm 4,5 UV-I 603 W/m² 14,9 °C 15,7 °C 17,7 km/h (3 Bft)
03/05/2026 13:04 17,4 °C 17,2 °C 14,4 °C 12,8 °C 12,8 °C 85 % 0 lf 0 lf 11 cb 127 cb 200 cb 1010,5 hPa 0,0 mm 9,6 km/h (2 Bft) SO 227 ° 2 min 0,000 mm 4,4 UV-I 671 W/m² 14,8 °C 15,9 °C 14,5 km/h (3 Bft)
03/05/2026 13:02 17,3 °C 17,2 °C 14,4 °C 12,8 °C 12,8 °C 85 % 0 lf 0 lf 11 cb 127 cb 200 cb 1010,5 hPa 0,0 mm 9,8 km/h (2 Bft) S-SO 202 ° 2 min 0,000 mm 4,3 UV-I 526 W/m² 14,8 °C 15,7 °C 16,1 km/h (3 Bft)
03/05/2026 13:00 17,2 °C 17,2 °C 14,4 °C 12,8 °C 12,8 °C 85 % 0 lf 0 lf 11 cb 127 cb 200 cb 1010,5 hPa 0,0 mm 7,1 km/h (2 Bft) S 185 ° 2 min 0,203 mm 3,7 UV-I 603 W/m² 14,7 °C 16,9 °C 12,9 km/h (3 Bft)
_ Min-Heure 07:12 05:56 13:00 13:00 13:00 14:38 13:00 13:00 15:22 16:08 13:00 16:00 - 15:02 - - - - - - 07:18 07:18 15:02
Minimum _ 10,8 °C 10,0 °C 14,4 °C 12,8 °C 12,8 °C 74 % 0 lf 0 lf 2 cb 40 cb 200 cb 1009,9 hPa - 0,0 km/h (0 Bft) - - - - - - 9,4 °C 10,8 °C 0,0 km/h (0 Bft)
_ Max-Heure 14:10 14:10 13:00 13:24 13:00 08:10 14:40 14:40 14:42 14:46 13:00 10:58 15:20 14:16 - - 13:00 14:00 13:36 13:38 14:06 14:26 14:38
Maximum _ 19,7 °C 21,7 °C 14,4 °C 13,3 °C 12,8 °C 93 % 15 lf 15 lf 12 cb 131 cb 200 cb 1013,5 hPa 2,0 mm 13,0 km/h
SO (3 Bft)
- - 2 min 0,356 mm 6,0 UV-I 1032 W/m² 16,0 °C 19,1 °C 22,5 km/h
O-NO (4 Bft)
Moyenne _ 15,0 °C 14,5 °C 14,4 °C 13,3 °C 12,8 °C 88 % 10 lf 10 lf 6 cb 66 cb 200 cb 1011,2 hPa #13,4 mm 2,2 km/h (1 Bft) O-SO - #1:54 h #0,737 mm 1,9 UV-I 260 W/m² 13,0 °C 14,8 °C 4,6 km/h (1 Bft)